<?xml version="1.0" encoding="UTF-8" standalone="no" ?>
<gpx xmlns="http://www.topografix.com/GPX/1/1" xmlns:xsi="http://www.w3.org/2001/XMLSchema-instance" xsi:schemaLocation="http://www.topografix.com/GPX/1/1 http://www.topografix.com/GPX/1/1/gpx.xsd" version="1.1" creator="VisuGPX - https://www.visugpx.com">
  <metadata>
    <name>Caranca Coume de Bassibes</name>
    <desc><![CDATA[Montée au refuge Ras de Caranca Puis Coume de Bassibes]]></desc>
  </metadata>
  <trk>
    <name><![CDATA[2015-06-04 16:58:51]]></name>
    <trkseg>
      <trkpt lat="42.47518" lon="2.17988">
        <ele>1595.45</ele>
        <time>2015-06-04T07:49:50Z</time>
      </trkpt>
      <trkpt lat="42.47519" lon="2.17988">
        <ele>1595.45</ele>
        <time>2015-06-04T07:49:51Z</time>
      </trkpt>
      <trkpt lat="42.47523" lon="2.1799">
        <ele>1595.93</ele>
        <time>2015-06-04T07:50:21Z</time>
      </trkpt>
      <trkpt lat="42.47517" lon="2.17991">
        <ele>1596.41</ele>
        <time>2015-06-04T07:50:56Z</time>
      </trkpt>
      <trkpt lat="42.47514" lon="2.17992">
        <ele>1595.45</ele>
        <time>2015-06-04T07:51:22Z</time>
      </trkpt>
      <trkpt lat="42.47515" lon="2.17993">
        <ele>1595.45</ele>
        <time>2015-06-04T07:51:27Z</time>
      </trkpt>
      <trkpt lat="42.47518" lon="2.17995">
        <ele>1595.45</ele>
        <time>2015-06-04T07:51:30Z</time>
      </trkpt>
      <trkpt lat="42.4753" lon="2.17998">
        <ele>1597.37</ele>
        <time>2015-06-04T07:51:44Z</time>
      </trkpt>
      <trkpt lat="42.4754" lon="2.18">
        <ele>1598.81</ele>
        <time>2015-06-04T07:51:55Z</time>
      </trkpt>
      <trkpt lat="42.47556" lon="2.18004">
        <ele>1601.69</ele>
        <time>2015-06-04T07:52:13Z</time>
      </trkpt>
      <trkpt lat="42.47576" lon="2.18008">
        <ele>1603.14</ele>
        <time>2015-06-04T07:52:30Z</time>
      </trkpt>
      <trkpt lat="42.47596" lon="2.18011">
        <ele>1605.06</ele>
        <time>2015-06-04T07:52:45Z</time>
      </trkpt>
      <trkpt lat="42.4761" lon="2.18019">
        <ele>1606.5</ele>
        <time>2015-06-04T07:53:01Z</time>
      </trkpt>
      <trkpt lat="42.47628" lon="2.18028">
        <ele>1607.94</ele>
        <time>2015-06-04T07:53:19Z</time>
      </trkpt>
      <trkpt lat="42.47649" lon="2.18034">
        <ele>1609.38</ele>
        <time>2015-06-04T07:53:36Z</time>
      </trkpt>
      <trkpt lat="42.47671" lon="2.18037">
        <ele>1610.35</ele>
        <time>2015-06-04T07:53:54Z</time>
      </trkpt>
      <trkpt lat="42.47688" lon="2.18036">
        <ele>1611.31</ele>
        <time>2015-06-04T07:54:09Z</time>
      </trkpt>
      <trkpt lat="42.47691" lon="2.18035">
        <ele>1611.79</ele>
        <time>2015-06-04T07:54:11Z</time>
      </trkpt>
      <trkpt lat="42.47696" lon="2.18037">
        <ele>1611.79</ele>
        <time>2015-06-04T07:54:15Z</time>
      </trkpt>
      <trkpt lat="42.47706" lon="2.18033">
        <ele>1612.27</ele>
        <time>2015-06-04T07:54:22Z</time>
      </trkpt>
      <trkpt lat="42.47722" lon="2.18032">
        <ele>1613.23</ele>
        <time>2015-06-04T07:54:39Z</time>
      </trkpt>
      <trkpt lat="42.4774" lon="2.18031">
        <ele>1614.67</ele>
        <time>2015-06-04T07:54:55Z</time>
      </trkpt>
      <trkpt lat="42.47758" lon="2.18031">
        <ele>1616.59</ele>
        <time>2015-06-04T07:55:12Z</time>
      </trkpt>
      <trkpt lat="42.47776" lon="2.18034">
        <ele>1616.59</ele>
        <time>2015-06-04T07:55:26Z</time>
      </trkpt>
      <trkpt lat="42.47789" lon="2.18043">
        <ele>1618.04</ele>
        <time>2015-06-04T07:55:42Z</time>
      </trkpt>
      <trkpt lat="42.47804" lon="2.18058">
        <ele>1619.48</ele>
        <time>2015-06-04T07:55:56Z</time>
      </trkpt>
      <trkpt lat="42.4781" lon="2.18071">
        <ele>1620.44</ele>
        <time>2015-06-04T07:56:09Z</time>
      </trkpt>
      <trkpt lat="42.47802" lon="2.18094">
        <ele>1622.36</ele>
        <time>2015-06-04T07:56:26Z</time>
      </trkpt>
      <trkpt lat="42.478" lon="2.18094">
        <ele>1623.8</ele>
        <time>2015-06-04T07:56:41Z</time>
      </trkpt>
      <trkpt lat="42.47797" lon="2.18097">
        <ele>1623.8</ele>
        <time>2015-06-04T07:56:59Z</time>
      </trkpt>
      <trkpt lat="42.4779" lon="2.18102">
        <ele>1625.73</ele>
        <time>2015-06-04T07:57:11Z</time>
      </trkpt>
      <trkpt lat="42.47781" lon="2.18105">
        <ele>1628.13</ele>
        <time>2015-06-04T07:57:24Z</time>
      </trkpt>
      <trkpt lat="42.47776" lon="2.18109">
        <ele>1630.05</ele>
        <time>2015-06-04T07:57:36Z</time>
      </trkpt>
      <trkpt lat="42.47774" lon="2.18111">
        <ele>1630.53</ele>
        <time>2015-06-04T07:57:38Z</time>
      </trkpt>
      <trkpt lat="42.47764" lon="2.1811">
        <ele>1632.94</ele>
        <time>2015-06-04T07:57:53Z</time>
      </trkpt>
      <trkpt lat="42.47756" lon="2.18108">
        <ele>1634.86</ele>
        <time>2015-06-04T07:58:07Z</time>
      </trkpt>
      <trkpt lat="42.47755" lon="2.18112">
        <ele>1635.34</ele>
        <time>2015-06-04T07:58:11Z</time>
      </trkpt>
      <trkpt lat="42.47752" lon="2.18118">
        <ele>1636.78</ele>
        <time>2015-06-04T07:58:25Z</time>
      </trkpt>
      <trkpt lat="42.47755" lon="2.18119">
        <ele>1637.26</ele>
        <time>2015-06-04T07:58:43Z</time>
      </trkpt>
      <trkpt lat="42.47755" lon="2.18123">
        <ele>1637.74</ele>
        <time>2015-06-04T07:59:01Z</time>
      </trkpt>
      <trkpt lat="42.47748" lon="2.18127">
        <ele>1639.67</ele>
        <time>2015-06-04T07:59:13Z</time>
      </trkpt>
      <trkpt lat="42.47748" lon="2.18129">
        <ele>1640.15</ele>
        <time>2015-06-04T07:59:15Z</time>
      </trkpt>
      <trkpt lat="42.47735" lon="2.18133">
        <ele>1642.55</ele>
        <time>2015-06-04T07:59:29Z</time>
      </trkpt>
      <trkpt lat="42.47728" lon="2.18139">
        <ele>1644.47</ele>
        <time>2015-06-04T07:59:41Z</time>
      </trkpt>
      <trkpt lat="42.47726" lon="2.18144">
        <ele>1646.88</ele>
        <time>2015-06-04T07:59:53Z</time>
      </trkpt>
      <trkpt lat="42.47721" lon="2.1815">
        <ele>1648.8</ele>
        <time>2015-06-04T08:00:06Z</time>
      </trkpt>
      <trkpt lat="42.47713" lon="2.18153">
        <ele>1651.2</ele>
        <time>2015-06-04T08:00:18Z</time>
      </trkpt>
      <trkpt lat="42.47705" lon="2.18157">
        <ele>1652.64</ele>
        <time>2015-06-04T08:00:31Z</time>
      </trkpt>
      <trkpt lat="42.47697" lon="2.18163">
        <ele>1654.57</ele>
        <time>2015-06-04T08:00:45Z</time>
      </trkpt>
      <trkpt lat="42.47692" lon="2.18165">
        <ele>1655.53</ele>
        <time>2015-06-04T08:00:52Z</time>
      </trkpt>
      <trkpt lat="42.47681" lon="2.18168">
        <ele>1657.45</ele>
        <time>2015-06-04T08:01:03Z</time>
      </trkpt>
      <trkpt lat="42.47674" lon="2.18173">
        <ele>1658.41</ele>
        <time>2015-06-04T08:01:14Z</time>
      </trkpt>
      <trkpt lat="42.47663" lon="2.18176">
        <ele>1660.33</ele>
        <time>2015-06-04T08:01:28Z</time>
      </trkpt>
      <trkpt lat="42.47655" lon="2.18182">
        <ele>1661.3</ele>
        <time>2015-06-04T08:01:41Z</time>
      </trkpt>
      <trkpt lat="42.47645" lon="2.18185">
        <ele>1663.22</ele>
        <time>2015-06-04T08:01:55Z</time>
      </trkpt>
      <trkpt lat="42.47642" lon="2.18187">
        <ele>1663.22</ele>
        <time>2015-06-04T08:01:58Z</time>
      </trkpt>
      <trkpt lat="42.47636" lon="2.18192">
        <ele>1663.7</ele>
        <time>2015-06-04T08:02:06Z</time>
      </trkpt>
      <trkpt lat="42.47629" lon="2.18197">
        <ele>1664.66</ele>
        <time>2015-06-04T08:02:12Z</time>
      </trkpt>
      <trkpt lat="42.47622" lon="2.182">
        <ele>1665.62</ele>
        <time>2015-06-04T08:02:23Z</time>
      </trkpt>
      <trkpt lat="42.47618" lon="2.18205">
        <ele>1666.1</ele>
        <time>2015-06-04T08:02:37Z</time>
      </trkpt>
      <trkpt lat="42.47614" lon="2.18205">
        <ele>1666.58</ele>
        <time>2015-06-04T08:02:42Z</time>
      </trkpt>
      <trkpt lat="42.47605" lon="2.18207">
        <ele>1668.02</ele>
        <time>2015-06-04T08:02:53Z</time>
      </trkpt>
      <trkpt lat="42.47596" lon="2.18217">
        <ele>1668.99</ele>
        <time>2015-06-04T08:03:06Z</time>
      </trkpt>
      <trkpt lat="42.4759" lon="2.18222">
        <ele>1669.95</ele>
        <time>2015-06-04T08:03:19Z</time>
      </trkpt>
      <trkpt lat="42.47586" lon="2.18231">
        <ele>1671.39</ele>
        <time>2015-06-04T08:03:31Z</time>
      </trkpt>
      <trkpt lat="42.47582" lon="2.18244">
        <ele>1672.83</ele>
        <time>2015-06-04T08:03:45Z</time>
      </trkpt>
      <trkpt lat="42.47582" lon="2.18249">
        <ele>1672.83</ele>
        <time>2015-06-04T08:03:49Z</time>
      </trkpt>
      <trkpt lat="42.47582" lon="2.18269">
        <ele>1673.79</ele>
        <time>2015-06-04T08:04:06Z</time>
      </trkpt>
      <trkpt lat="42.47572" lon="2.18277">
        <ele>1675.72</ele>
        <time>2015-06-04T08:04:18Z</time>
      </trkpt>
      <trkpt lat="42.47564" lon="2.18289">
        <ele>1677.16</ele>
        <time>2015-06-04T08:04:31Z</time>
      </trkpt>
      <trkpt lat="42.47562" lon="2.18293">
        <ele>1677.64</ele>
        <time>2015-06-04T08:04:36Z</time>
      </trkpt>
      <trkpt lat="42.47559" lon="2.18297">
        <ele>1678.6</ele>
        <time>2015-06-04T08:04:41Z</time>
      </trkpt>
      <trkpt lat="42.47558" lon="2.18303">
        <ele>1679.08</ele>
        <time>2015-06-04T08:04:48Z</time>
      </trkpt>
      <trkpt lat="42.47555" lon="2.18312">
        <ele>1680.52</ele>
        <time>2015-06-04T08:04:58Z</time>
      </trkpt>
      <trkpt lat="42.47552" lon="2.18319">
        <ele>1681.96</ele>
        <time>2015-06-04T08:05:07Z</time>
      </trkpt>
      <trkpt lat="42.47547" lon="2.18327">
        <ele>1682.93</ele>
        <time>2015-06-04T08:05:18Z</time>
      </trkpt>
      <trkpt lat="42.47546" lon="2.18335">
        <ele>1684.37</ele>
        <time>2015-06-04T08:05:28Z</time>
      </trkpt>
      <trkpt lat="42.47546" lon="2.18345">
        <ele>1685.81</ele>
        <time>2015-06-04T08:05:39Z</time>
      </trkpt>
      <trkpt lat="42.47545" lon="2.18356">
        <ele>1687.25</ele>
        <time>2015-06-04T08:05:52Z</time>
      </trkpt>
      <trkpt lat="42.47542" lon="2.18367">
        <ele>1689.65</ele>
        <time>2015-06-04T08:06:06Z</time>
      </trkpt>
      <trkpt lat="42.47541" lon="2.18377">
        <ele>1690.62</ele>
        <time>2015-06-04T08:06:20Z</time>
      </trkpt>
      <trkpt lat="42.47542" lon="2.18385">
        <ele>1692.06</ele>
        <time>2015-06-04T08:06:31Z</time>
      </trkpt>
      <trkpt lat="42.47538" lon="2.18395">
        <ele>1693.5</ele>
        <time>2015-06-04T08:06:43Z</time>
      </trkpt>
      <trkpt lat="42.47534" lon="2.18405">
        <ele>1695.42</ele>
        <time>2015-06-04T08:06:57Z</time>
      </trkpt>
      <trkpt lat="42.47536" lon="2.18413">
        <ele>1697.83</ele>
        <time>2015-06-04T08:07:11Z</time>
      </trkpt>
      <trkpt lat="42.47535" lon="2.18422">
        <ele>1699.75</ele>
        <time>2015-06-04T08:07:24Z</time>
      </trkpt>
      <trkpt lat="42.47535" lon="2.18433">
        <ele>1701.19</ele>
        <time>2015-06-04T08:07:38Z</time>
      </trkpt>
      <trkpt lat="42.47534" lon="2.1844">
        <ele>1703.11</ele>
        <time>2015-06-04T08:07:50Z</time>
      </trkpt>
      <trkpt lat="42.47532" lon="2.18447">
        <ele>1705.04</ele>
        <time>2015-06-04T08:08:02Z</time>
      </trkpt>
      <trkpt lat="42.47532" lon="2.18455">
        <ele>1706</ele>
        <time>2015-06-04T08:08:16Z</time>
      </trkpt>
      <trkpt lat="42.47527" lon="2.18462">
        <ele>1708.4</ele>
        <time>2015-06-04T08:08:31Z</time>
      </trkpt>
      <trkpt lat="42.47525" lon="2.18471">
        <ele>1709.84</ele>
        <time>2015-06-04T08:08:44Z</time>
      </trkpt>
      <trkpt lat="42.4752" lon="2.18477">
        <ele>1711.28</ele>
        <time>2015-06-04T08:08:59Z</time>
      </trkpt>
      <trkpt lat="42.47518" lon="2.18484">
        <ele>1713.21</ele>
        <time>2015-06-04T08:09:10Z</time>
      </trkpt>
      <trkpt lat="42.47515" lon="2.1849">
        <ele>1714.65</ele>
        <time>2015-06-04T08:09:23Z</time>
      </trkpt>
      <trkpt lat="42.47512" lon="2.18495">
        <ele>1716.57</ele>
        <time>2015-06-04T08:09:39Z</time>
      </trkpt>
      <trkpt lat="42.47509" lon="2.185">
        <ele>1718.49</ele>
        <time>2015-06-04T08:09:53Z</time>
      </trkpt>
      <trkpt lat="42.47507" lon="2.18509">
        <ele>1719.94</ele>
        <time>2015-06-04T08:10:07Z</time>
      </trkpt>
      <trkpt lat="42.47501" lon="2.18512">
        <ele>1721.86</ele>
        <time>2015-06-04T08:10:20Z</time>
      </trkpt>
      <trkpt lat="42.47499" lon="2.18522">
        <ele>1722.82</ele>
        <time>2015-06-04T08:10:33Z</time>
      </trkpt>
      <trkpt lat="42.47498" lon="2.18532">
        <ele>1724.74</ele>
        <time>2015-06-04T08:10:47Z</time>
      </trkpt>
      <trkpt lat="42.47498" lon="2.18537">
        <ele>1726.18</ele>
        <time>2015-06-04T08:10:58Z</time>
      </trkpt>
      <trkpt lat="42.47495" lon="2.18544">
        <ele>1728.11</ele>
        <time>2015-06-04T08:11:13Z</time>
      </trkpt>
      <trkpt lat="42.47497" lon="2.1855">
        <ele>1730.51</ele>
        <time>2015-06-04T08:11:26Z</time>
      </trkpt>
      <trkpt lat="42.47494" lon="2.1855">
        <ele>1730.99</ele>
        <time>2015-06-04T08:11:45Z</time>
      </trkpt>
      <trkpt lat="42.47495" lon="2.18548">
        <ele>1730.99</ele>
        <time>2015-06-04T08:12:07Z</time>
      </trkpt>
      <trkpt lat="42.47495" lon="2.1855">
        <ele>1731.47</ele>
        <time>2015-06-04T08:12:31Z</time>
      </trkpt>
      <trkpt lat="42.47496" lon="2.18557">
        <ele>1733.39</ele>
        <time>2015-06-04T08:12:47Z</time>
      </trkpt>
      <trkpt lat="42.47495" lon="2.18564">
        <ele>1735.8</ele>
        <time>2015-06-04T08:12:59Z</time>
      </trkpt>
      <trkpt lat="42.47494" lon="2.18572">
        <ele>1737.72</ele>
        <time>2015-06-04T08:13:15Z</time>
      </trkpt>
      <trkpt lat="42.47496" lon="2.18579">
        <ele>1739.64</ele>
        <time>2015-06-04T08:13:27Z</time>
      </trkpt>
      <trkpt lat="42.47492" lon="2.18586">
        <ele>1742.05</ele>
        <time>2015-06-04T08:13:40Z</time>
      </trkpt>
      <trkpt lat="42.47491" lon="2.18593">
        <ele>1743.97</ele>
        <time>2015-06-04T08:13:54Z</time>
      </trkpt>
      <trkpt lat="42.47489" lon="2.186">
        <ele>1746.37</ele>
        <time>2015-06-04T08:14:08Z</time>
      </trkpt>
      <trkpt lat="42.47489" lon="2.18606">
        <ele>1747.81</ele>
        <time>2015-06-04T08:14:23Z</time>
      </trkpt>
      <trkpt lat="42.47489" lon="2.18612">
        <ele>1750.7</ele>
        <time>2015-06-04T08:14:36Z</time>
      </trkpt>
      <trkpt lat="42.4749" lon="2.18619">
        <ele>1752.62</ele>
        <time>2015-06-04T08:14:50Z</time>
      </trkpt>
      <trkpt lat="42.47488" lon="2.18624">
        <ele>1754.54</ele>
        <time>2015-06-04T08:15:06Z</time>
      </trkpt>
      <trkpt lat="42.47486" lon="2.1863">
        <ele>1756.95</ele>
        <time>2015-06-04T08:15:20Z</time>
      </trkpt>
      <trkpt lat="42.47485" lon="2.18638">
        <ele>1758.39</ele>
        <time>2015-06-04T08:15:32Z</time>
      </trkpt>
      <trkpt lat="42.47483" lon="2.18646">
        <ele>1760.31</ele>
        <time>2015-06-04T08:15:47Z</time>
      </trkpt>
      <trkpt lat="42.47482" lon="2.18654">
        <ele>1762.71</ele>
        <time>2015-06-04T08:16:01Z</time>
      </trkpt>
      <trkpt lat="42.47484" lon="2.1866">
        <ele>1764.64</ele>
        <time>2015-06-04T08:16:13Z</time>
      </trkpt>
      <trkpt lat="42.47482" lon="2.18668">
        <ele>1767.04</ele>
        <time>2015-06-04T08:16:29Z</time>
      </trkpt>
      <trkpt lat="42.47478" lon="2.18676">
        <ele>1769.44</ele>
        <time>2015-06-04T08:16:46Z</time>
      </trkpt>
      <trkpt lat="42.47477" lon="2.18683">
        <ele>1771.37</ele>
        <time>2015-06-04T08:16:59Z</time>
      </trkpt>
      <trkpt lat="42.47473" lon="2.1869">
        <ele>1773.77</ele>
        <time>2015-06-04T08:17:14Z</time>
      </trkpt>
      <trkpt lat="42.47471" lon="2.18697">
        <ele>1775.69</ele>
        <time>2015-06-04T08:17:29Z</time>
      </trkpt>
      <trkpt lat="42.47466" lon="2.18704">
        <ele>1777.61</ele>
        <time>2015-06-04T08:17:45Z</time>
      </trkpt>
      <trkpt lat="42.47465" lon="2.18711">
        <ele>1780.02</ele>
        <time>2015-06-04T08:17:57Z</time>
      </trkpt>
      <trkpt lat="42.47463" lon="2.18718">
        <ele>1782.9</ele>
        <time>2015-06-04T08:18:12Z</time>
      </trkpt>
      <trkpt lat="42.47458" lon="2.18724">
        <ele>1784.82</ele>
        <time>2015-06-04T08:18:28Z</time>
      </trkpt>
      <trkpt lat="42.4746" lon="2.18731">
        <ele>1787.23</ele>
        <time>2015-06-04T08:18:46Z</time>
      </trkpt>
      <trkpt lat="42.4746" lon="2.18738">
        <ele>1790.11</ele>
        <time>2015-06-04T08:19:02Z</time>
      </trkpt>
      <trkpt lat="42.47459" lon="2.18746">
        <ele>1792.03</ele>
        <time>2015-06-04T08:19:17Z</time>
      </trkpt>
      <trkpt lat="42.47461" lon="2.18747">
        <ele>1793</ele>
        <time>2015-06-04T08:19:31Z</time>
      </trkpt>
      <trkpt lat="42.47463" lon="2.1875">
        <ele>1794.44</ele>
        <time>2015-06-04T08:19:50Z</time>
      </trkpt>
      <trkpt lat="42.47464" lon="2.18757">
        <ele>1796.36</ele>
        <time>2015-06-04T08:20:04Z</time>
      </trkpt>
      <trkpt lat="42.47464" lon="2.18764">
        <ele>1798.76</ele>
        <time>2015-06-04T08:20:19Z</time>
      </trkpt>
      <trkpt lat="42.47468" lon="2.18764">
        <ele>1800.69</ele>
        <time>2015-06-04T08:20:33Z</time>
      </trkpt>
      <trkpt lat="42.47468" lon="2.18773">
        <ele>1803.09</ele>
        <time>2015-06-04T08:20:47Z</time>
      </trkpt>
      <trkpt lat="42.47474" lon="2.18777">
        <ele>1805.01</ele>
        <time>2015-06-04T08:21:01Z</time>
      </trkpt>
      <trkpt lat="42.47476" lon="2.18786">
        <ele>1807.9</ele>
        <time>2015-06-04T08:21:18Z</time>
      </trkpt>
      <trkpt lat="42.47473" lon="2.18792">
        <ele>1809.34</ele>
        <time>2015-06-04T08:21:30Z</time>
      </trkpt>
      <trkpt lat="42.47481" lon="2.1879">
        <ele>1811.26</ele>
        <time>2015-06-04T08:21:45Z</time>
      </trkpt>
      <trkpt lat="42.47486" lon="2.18794">
        <ele>1814.15</ele>
        <time>2015-06-04T08:22:02Z</time>
      </trkpt>
      <trkpt lat="42.4749" lon="2.18794">
        <ele>1816.07</ele>
        <time>2015-06-04T08:22:16Z</time>
      </trkpt>
      <trkpt lat="42.47495" lon="2.18791">
        <ele>1817.51</ele>
        <time>2015-06-04T08:22:29Z</time>
      </trkpt>
      <trkpt lat="42.47497" lon="2.18802">
        <ele>1820.39</ele>
        <time>2015-06-04T08:22:46Z</time>
      </trkpt>
      <trkpt lat="42.47501" lon="2.18801">
        <ele>1822.8</ele>
        <time>2015-06-04T08:23:02Z</time>
      </trkpt>
      <trkpt lat="42.47503" lon="2.188">
        <ele>1823.28</ele>
        <time>2015-06-04T08:23:07Z</time>
      </trkpt>
      <trkpt lat="42.47508" lon="2.18804">
        <ele>1825.2</ele>
        <time>2015-06-04T08:23:21Z</time>
      </trkpt>
      <trkpt lat="42.47509" lon="2.18807">
        <ele>1827.12</ele>
        <time>2015-06-04T08:23:33Z</time>
      </trkpt>
      <trkpt lat="42.47508" lon="2.18814">
        <ele>1829.05</ele>
        <time>2015-06-04T08:23:47Z</time>
      </trkpt>
      <trkpt lat="42.4751" lon="2.18819">
        <ele>1830.97</ele>
        <time>2015-06-04T08:24:00Z</time>
      </trkpt>
      <trkpt lat="42.47512" lon="2.18822">
        <ele>1832.89</ele>
        <time>2015-06-04T08:24:13Z</time>
      </trkpt>
      <trkpt lat="42.47513" lon="2.18823">
        <ele>1833.85</ele>
        <time>2015-06-04T08:24:27Z</time>
      </trkpt>
      <trkpt lat="42.47515" lon="2.18822">
        <ele>1835.29</ele>
        <time>2015-06-04T08:24:47Z</time>
      </trkpt>
      <trkpt lat="42.47518" lon="2.18825">
        <ele>1837.22</ele>
        <time>2015-06-04T08:25:02Z</time>
      </trkpt>
      <trkpt lat="42.47521" lon="2.18826">
        <ele>1839.14</ele>
        <time>2015-06-04T08:25:15Z</time>
      </trkpt>
      <trkpt lat="42.47521" lon="2.1883">
        <ele>1840.58</ele>
        <time>2015-06-04T08:25:32Z</time>
      </trkpt>
      <trkpt lat="42.47521" lon="2.18833">
        <ele>1842.98</ele>
        <time>2015-06-04T08:25:45Z</time>
      </trkpt>
      <trkpt lat="42.47525" lon="2.18835">
        <ele>1843.95</ele>
        <time>2015-06-04T08:25:55Z</time>
      </trkpt>
      <trkpt lat="42.47527" lon="2.18828">
        <ele>1846.35</ele>
        <time>2015-06-04T08:26:10Z</time>
      </trkpt>
      <trkpt lat="42.47533" lon="2.18833">
        <ele>1847.79</ele>
        <time>2015-06-04T08:26:24Z</time>
      </trkpt>
      <trkpt lat="42.47534" lon="2.18837">
        <ele>1850.68</ele>
        <time>2015-06-04T08:26:40Z</time>
      </trkpt>
      <trkpt lat="42.47537" lon="2.18833">
        <ele>1851.64</ele>
        <time>2015-06-04T08:26:52Z</time>
      </trkpt>
      <trkpt lat="42.4754" lon="2.18831">
        <ele>1854.04</ele>
        <time>2015-06-04T08:27:09Z</time>
      </trkpt>
      <trkpt lat="42.47543" lon="2.18834">
        <ele>1855.48</ele>
        <time>2015-06-04T08:27:23Z</time>
      </trkpt>
      <trkpt lat="42.47548" lon="2.18838">
        <ele>1857.89</ele>
        <time>2015-06-04T08:27:39Z</time>
      </trkpt>
      <trkpt lat="42.47551" lon="2.18838">
        <ele>1859.81</ele>
        <time>2015-06-04T08:27:52Z</time>
      </trkpt>
      <trkpt lat="42.47554" lon="2.18835">
        <ele>1861.25</ele>
        <time>2015-06-04T08:28:05Z</time>
      </trkpt>
      <trkpt lat="42.47552" lon="2.18838">
        <ele>1861.25</ele>
        <time>2015-06-04T08:28:29Z</time>
      </trkpt>
      <trkpt lat="42.47549" lon="2.18839">
        <ele>1860.29</ele>
        <time>2015-06-04T08:28:44Z</time>
      </trkpt>
      <trkpt lat="42.4755" lon="2.18836">
        <ele>1861.73</ele>
        <time>2015-06-04T08:28:59Z</time>
      </trkpt>
      <trkpt lat="42.47554" lon="2.18837">
        <ele>1863.17</ele>
        <time>2015-06-04T08:29:11Z</time>
      </trkpt>
      <trkpt lat="42.47554" lon="2.18835">
        <ele>1864.61</ele>
        <time>2015-06-04T08:29:24Z</time>
      </trkpt>
      <trkpt lat="42.47557" lon="2.18838">
        <ele>1866.06</ele>
        <time>2015-06-04T08:29:35Z</time>
      </trkpt>
      <trkpt lat="42.4756" lon="2.18841">
        <ele>1867.98</ele>
        <time>2015-06-04T08:29:46Z</time>
      </trkpt>
      <trkpt lat="42.47562" lon="2.18837">
        <ele>1869.9</ele>
        <time>2015-06-04T08:30:00Z</time>
      </trkpt>
      <trkpt lat="42.47566" lon="2.18841">
        <ele>1871.34</ele>
        <time>2015-06-04T08:30:12Z</time>
      </trkpt>
      <trkpt lat="42.47569" lon="2.18838">
        <ele>1873.27</ele>
        <time>2015-06-04T08:30:27Z</time>
      </trkpt>
      <trkpt lat="42.47573" lon="2.18834">
        <ele>1875.67</ele>
        <time>2015-06-04T08:30:43Z</time>
      </trkpt>
      <trkpt lat="42.47577" lon="2.18832">
        <ele>1878.07</ele>
        <time>2015-06-04T08:31:00Z</time>
      </trkpt>
      <trkpt lat="42.47581" lon="2.1883">
        <ele>1880</ele>
        <time>2015-06-04T08:31:16Z</time>
      </trkpt>
      <trkpt lat="42.47584" lon="2.18831">
        <ele>1880.48</ele>
        <time>2015-06-04T08:31:29Z</time>
      </trkpt>
      <trkpt lat="42.47579" lon="2.18839">
        <ele>1880.48</ele>
        <time>2015-06-04T08:31:47Z</time>
      </trkpt>
      <trkpt lat="42.47583" lon="2.18833">
        <ele>1880.96</ele>
        <time>2015-06-04T08:31:54Z</time>
      </trkpt>
      <trkpt lat="42.47596" lon="2.18837">
        <ele>1880.96</ele>
        <time>2015-06-04T08:32:09Z</time>
      </trkpt>
      <trkpt lat="42.47608" lon="2.18844">
        <ele>1881.44</ele>
        <time>2015-06-04T08:32:27Z</time>
      </trkpt>
      <trkpt lat="42.47614" lon="2.18851">
        <ele>1882.88</ele>
        <time>2015-06-04T08:32:40Z</time>
      </trkpt>
      <trkpt lat="42.47615" lon="2.1886">
        <ele>1884.32</ele>
        <time>2015-06-04T08:32:52Z</time>
      </trkpt>
      <trkpt lat="42.47613" lon="2.18866">
        <ele>1886.24</ele>
        <time>2015-06-04T08:33:06Z</time>
      </trkpt>
      <trkpt lat="42.47614" lon="2.18877">
        <ele>1888.65</ele>
        <time>2015-06-04T08:33:22Z</time>
      </trkpt>
      <trkpt lat="42.47617" lon="2.18888">
        <ele>1889.61</ele>
        <time>2015-06-04T08:33:35Z</time>
      </trkpt>
      <trkpt lat="42.4762" lon="2.18898">
        <ele>1891.05</ele>
        <time>2015-06-04T08:33:48Z</time>
      </trkpt>
      <trkpt lat="42.47617" lon="2.18906">
        <ele>1893.45</ele>
        <time>2015-06-04T08:34:02Z</time>
      </trkpt>
      <trkpt lat="42.47615" lon="2.18912">
        <ele>1896.34</ele>
        <time>2015-06-04T08:34:19Z</time>
      </trkpt>
      <trkpt lat="42.47618" lon="2.18921">
        <ele>1898.26</ele>
        <time>2015-06-04T08:34:37Z</time>
      </trkpt>
      <trkpt lat="42.4762" lon="2.18931">
        <ele>1899.22</ele>
        <time>2015-06-04T08:34:50Z</time>
      </trkpt>
      <trkpt lat="42.47623" lon="2.18943">
        <ele>1900.66</ele>
        <time>2015-06-04T08:35:04Z</time>
      </trkpt>
      <trkpt lat="42.47625" lon="2.1895">
        <ele>1902.11</ele>
        <time>2015-06-04T08:35:19Z</time>
      </trkpt>
      <trkpt lat="42.47628" lon="2.1896">
        <ele>1902.59</ele>
        <time>2015-06-04T08:35:32Z</time>
      </trkpt>
      <trkpt lat="42.47629" lon="2.18967">
        <ele>1904.03</ele>
        <time>2015-06-04T08:35:45Z</time>
      </trkpt>
      <trkpt lat="42.47633" lon="2.18978">
        <ele>1905.47</ele>
        <time>2015-06-04T08:35:59Z</time>
      </trkpt>
      <trkpt lat="42.47632" lon="2.18987">
        <ele>1908.35</ele>
        <time>2015-06-04T08:36:15Z</time>
      </trkpt>
      <trkpt lat="42.47635" lon="2.18997">
        <ele>1910.28</ele>
        <time>2015-06-04T08:36:29Z</time>
      </trkpt>
      <trkpt lat="42.47637" lon="2.19004">
        <ele>1910.76</ele>
        <time>2015-06-04T08:36:44Z</time>
      </trkpt>
      <trkpt lat="42.47643" lon="2.19012">
        <ele>1910.76</ele>
        <time>2015-06-04T08:36:55Z</time>
      </trkpt>
      <trkpt lat="42.47642" lon="2.1902">
        <ele>1913.16</ele>
        <time>2015-06-04T08:37:10Z</time>
      </trkpt>
      <trkpt lat="42.47647" lon="2.19031">
        <ele>1913.64</ele>
        <time>2015-06-04T08:37:25Z</time>
      </trkpt>
      <trkpt lat="42.47651" lon="2.19039">
        <ele>1914.6</ele>
        <time>2015-06-04T08:37:37Z</time>
      </trkpt>
      <trkpt lat="42.47659" lon="2.19042">
        <ele>1913.64</ele>
        <time>2015-06-04T08:37:52Z</time>
      </trkpt>
      <trkpt lat="42.47659" lon="2.19043">
        <ele>1913.64</ele>
        <time>2015-06-04T08:37:53Z</time>
      </trkpt>
      <trkpt lat="42.47663" lon="2.19053">
        <ele>1913.64</ele>
        <time>2015-06-04T08:38:05Z</time>
      </trkpt>
      <trkpt lat="42.47662" lon="2.19058">
        <ele>1915.08</ele>
        <time>2015-06-04T08:38:14Z</time>
      </trkpt>
      <trkpt lat="42.47665" lon="2.19067">
        <ele>1916.53</ele>
        <time>2015-06-04T08:38:26Z</time>
      </trkpt>
      <trkpt lat="42.47667" lon="2.19076">
        <ele>1917.01</ele>
        <time>2015-06-04T08:38:37Z</time>
      </trkpt>
      <trkpt lat="42.47668" lon="2.19083">
        <ele>1917.49</ele>
        <time>2015-06-04T08:38:50Z</time>
      </trkpt>
      <trkpt lat="42.47667" lon="2.19093">
        <ele>1919.41</ele>
        <time>2015-06-04T08:39:04Z</time>
      </trkpt>
      <trkpt lat="42.47671" lon="2.19101">
        <ele>1920.37</ele>
        <time>2015-06-04T08:39:18Z</time>
      </trkpt>
      <trkpt lat="42.47673" lon="2.19111">
        <ele>1920.37</ele>
        <time>2015-06-04T08:39:31Z</time>
      </trkpt>
      <trkpt lat="42.47678" lon="2.19117">
        <ele>1921.81</ele>
        <time>2015-06-04T08:39:46Z</time>
      </trkpt>
      <trkpt lat="42.47681" lon="2.19129">
        <ele>1923.74</ele>
        <time>2015-06-04T08:40:00Z</time>
      </trkpt>
      <trkpt lat="42.47684" lon="2.19136">
        <ele>1925.18</ele>
        <time>2015-06-04T08:40:14Z</time>
      </trkpt>
      <trkpt lat="42.47686" lon="2.19143">
        <ele>1926.62</ele>
        <time>2015-06-04T08:40:28Z</time>
      </trkpt>
      <trkpt lat="42.4769" lon="2.19151">
        <ele>1926.62</ele>
        <time>2015-06-04T08:40:40Z</time>
      </trkpt>
      <trkpt lat="42.47695" lon="2.19156">
        <ele>1927.1</ele>
        <time>2015-06-04T08:40:50Z</time>
      </trkpt>
      <trkpt lat="42.47702" lon="2.19165">
        <ele>1927.58</ele>
        <time>2015-06-04T08:41:01Z</time>
      </trkpt>
      <trkpt lat="42.47705" lon="2.19179">
        <ele>1928.54</ele>
        <time>2015-06-04T08:41:15Z</time>
      </trkpt>
      <trkpt lat="42.47705" lon="2.19186">
        <ele>1930.95</ele>
        <time>2015-06-04T08:41:27Z</time>
      </trkpt>
      <trkpt lat="42.47704" lon="2.19194">
        <ele>1932.39</ele>
        <time>2015-06-04T08:41:39Z</time>
      </trkpt>
      <trkpt lat="42.47711" lon="2.19195">
        <ele>1933.35</ele>
        <time>2015-06-04T08:41:51Z</time>
      </trkpt>
      <trkpt lat="42.47718" lon="2.19206">
        <ele>1934.79</ele>
        <time>2015-06-04T08:42:05Z</time>
      </trkpt>
      <trkpt lat="42.47721" lon="2.19214">
        <ele>1936.71</ele>
        <time>2015-06-04T08:42:21Z</time>
      </trkpt>
      <trkpt lat="42.4773" lon="2.19218">
        <ele>1937.19</ele>
        <time>2015-06-04T08:42:35Z</time>
      </trkpt>
      <trkpt lat="42.47735" lon="2.19223">
        <ele>1938.64</ele>
        <time>2015-06-04T08:42:49Z</time>
      </trkpt>
      <trkpt lat="42.47742" lon="2.19227">
        <ele>1940.08</ele>
        <time>2015-06-04T08:43:04Z</time>
      </trkpt>
      <trkpt lat="42.47749" lon="2.19232">
        <ele>1940.56</ele>
        <time>2015-06-04T08:43:14Z</time>
      </trkpt>
      <trkpt lat="42.47759" lon="2.19238">
        <ele>1942.96</ele>
        <time>2015-06-04T08:43:28Z</time>
      </trkpt>
      <trkpt lat="42.47768" lon="2.19245">
        <ele>1944.4</ele>
        <time>2015-06-04T08:43:44Z</time>
      </trkpt>
      <trkpt lat="42.47774" lon="2.19248">
        <ele>1944.4</ele>
        <time>2015-06-04T08:43:57Z</time>
      </trkpt>
      <trkpt lat="42.47775" lon="2.19255">
        <ele>1946.33</ele>
        <time>2015-06-04T08:44:08Z</time>
      </trkpt>
      <trkpt lat="42.47779" lon="2.19259">
        <ele>1948.25</ele>
        <time>2015-06-04T08:44:22Z</time>
      </trkpt>
      <trkpt lat="42.47787" lon="2.19262">
        <ele>1949.21</ele>
        <time>2015-06-04T08:44:37Z</time>
      </trkpt>
      <trkpt lat="42.47821" lon="2.19441">
        <ele>1952.57</ele>
        <time>2015-06-04T08:50:45Z</time>
      </trkpt>
      <trkpt lat="42.47823" lon="2.1944">
        <ele>1952.57</ele>
        <time>2015-06-04T08:50:46Z</time>
      </trkpt>
      <trkpt lat="42.47829" lon="2.19436">
        <ele>1953.54</ele>
        <time>2015-06-04T08:51:00Z</time>
      </trkpt>
      <trkpt lat="42.47888" lon="2.19413">
        <ele>1953.54</ele>
        <time>2015-06-04T08:51:24Z</time>
      </trkpt>
      <trkpt lat="42.47907" lon="2.19412">
        <ele>1956.9</ele>
        <time>2015-06-04T08:51:29Z</time>
      </trkpt>
      <trkpt lat="42.47909" lon="2.19412">
        <ele>1959.78</ele>
        <time>2015-06-04T08:51:31Z</time>
      </trkpt>
      <trkpt lat="42.4791" lon="2.19412">
        <ele>1964.11</ele>
        <time>2015-06-04T08:51:34Z</time>
      </trkpt>
      <trkpt lat="42.47911" lon="2.19411">
        <ele>1967.48</ele>
        <time>2015-06-04T08:51:37Z</time>
      </trkpt>
      <trkpt lat="42.4791" lon="2.19413">
        <ele>1970.84</ele>
        <time>2015-06-04T08:51:40Z</time>
      </trkpt>
      <trkpt lat="42.4791" lon="2.19414">
        <ele>1972.28</ele>
        <time>2015-06-04T08:51:42Z</time>
      </trkpt>
      <trkpt lat="42.47912" lon="2.19416">
        <ele>1974.69</ele>
        <time>2015-06-04T08:51:45Z</time>
      </trkpt>
      <trkpt lat="42.47913" lon="2.19417">
        <ele>1976.13</ele>
        <time>2015-06-04T08:51:47Z</time>
      </trkpt>
      <trkpt lat="42.47915" lon="2.19418">
        <ele>1977.57</ele>
        <time>2015-06-04T08:51:49Z</time>
      </trkpt>
      <trkpt lat="42.47918" lon="2.1942">
        <ele>1979.97</ele>
        <time>2015-06-04T08:51:52Z</time>
      </trkpt>
      <trkpt lat="42.47925" lon="2.19424">
        <ele>1983.82</ele>
        <time>2015-06-04T08:51:58Z</time>
      </trkpt>
      <trkpt lat="42.47929" lon="2.19428">
        <ele>1987.18</ele>
        <time>2015-06-04T08:52:04Z</time>
      </trkpt>
      <trkpt lat="42.47931" lon="2.19431">
        <ele>1989.1</ele>
        <time>2015-06-04T08:52:07Z</time>
      </trkpt>
      <trkpt lat="42.47934" lon="2.19438">
        <ele>1991.99</ele>
        <time>2015-06-04T08:52:14Z</time>
      </trkpt>
      <trkpt lat="42.47936" lon="2.1944">
        <ele>1992.95</ele>
        <time>2015-06-04T08:52:16Z</time>
      </trkpt>
      <trkpt lat="42.47936" lon="2.19443">
        <ele>1993.91</ele>
        <time>2015-06-04T08:52:19Z</time>
      </trkpt>
      <trkpt lat="42.47936" lon="2.19444">
        <ele>1994.39</ele>
        <time>2015-06-04T08:52:20Z</time>
      </trkpt>
      <trkpt lat="42.47935" lon="2.19452">
        <ele>1996.8</ele>
        <time>2015-06-04T08:52:27Z</time>
      </trkpt>
      <trkpt lat="42.47933" lon="2.1946">
        <ele>1998.24</ele>
        <time>2015-06-04T08:52:35Z</time>
      </trkpt>
      <trkpt lat="42.47932" lon="2.19464">
        <ele>1999.2</ele>
        <time>2015-06-04T08:52:39Z</time>
      </trkpt>
      <trkpt lat="42.47928" lon="2.19468">
        <ele>2000.16</ele>
        <time>2015-06-04T08:52:44Z</time>
      </trkpt>
      <trkpt lat="42.4792" lon="2.19482">
        <ele>2003.04</ele>
        <time>2015-06-04T08:52:58Z</time>
      </trkpt>
      <trkpt lat="42.47914" lon="2.1949">
        <ele>2004.01</ele>
        <time>2015-06-04T08:53:06Z</time>
      </trkpt>
      <trkpt lat="42.47906" lon="2.19502">
        <ele>2005.93</ele>
        <time>2015-06-04T08:53:19Z</time>
      </trkpt>
      <trkpt lat="42.47901" lon="2.19512">
        <ele>2007.37</ele>
        <time>2015-06-04T08:53:30Z</time>
      </trkpt>
      <trkpt lat="42.47895" lon="2.19521">
        <ele>2008.33</ele>
        <time>2015-06-04T08:53:41Z</time>
      </trkpt>
      <trkpt lat="42.47892" lon="2.19527">
        <ele>2009.29</ele>
        <time>2015-06-04T08:53:48Z</time>
      </trkpt>
      <trkpt lat="42.47886" lon="2.1954">
        <ele>2011.22</ele>
        <time>2015-06-04T08:54:01Z</time>
      </trkpt>
      <trkpt lat="42.4788" lon="2.19552">
        <ele>2012.18</ele>
        <time>2015-06-04T08:54:14Z</time>
      </trkpt>
      <trkpt lat="42.47877" lon="2.19567">
        <ele>2014.1</ele>
        <time>2015-06-04T08:54:28Z</time>
      </trkpt>
      <trkpt lat="42.47872" lon="2.19584">
        <ele>2016.02</ele>
        <time>2015-06-04T08:54:42Z</time>
      </trkpt>
      <trkpt lat="42.47869" lon="2.19592">
        <ele>2016.98</ele>
        <time>2015-06-04T08:54:50Z</time>
      </trkpt>
      <trkpt lat="42.47865" lon="2.19605">
        <ele>2017.46</ele>
        <time>2015-06-04T08:55:02Z</time>
      </trkpt>
      <trkpt lat="42.47864" lon="2.19608">
        <ele>2017.46</ele>
        <time>2015-06-04T08:55:05Z</time>
      </trkpt>
      <trkpt lat="42.47864" lon="2.19611">
        <ele>2017.94</ele>
        <time>2015-06-04T08:55:07Z</time>
      </trkpt>
      <trkpt lat="42.4786" lon="2.19614">
        <ele>2018.43</ele>
        <time>2015-06-04T08:55:11Z</time>
      </trkpt>
      <trkpt lat="42.47858" lon="2.19616">
        <ele>2018.43</ele>
        <time>2015-06-04T08:55:13Z</time>
      </trkpt>
      <trkpt lat="42.47857" lon="2.19617">
        <ele>2018.43</ele>
        <time>2015-06-04T08:55:15Z</time>
      </trkpt>
      <trkpt lat="42.47855" lon="2.19629">
        <ele>2019.39</ele>
        <time>2015-06-04T08:55:25Z</time>
      </trkpt>
      <trkpt lat="42.47855" lon="2.19641">
        <ele>2020.83</ele>
        <time>2015-06-04T08:55:35Z</time>
      </trkpt>
      <trkpt lat="42.47854" lon="2.19649">
        <ele>2021.79</ele>
        <time>2015-06-04T08:55:43Z</time>
      </trkpt>
      <trkpt lat="42.47853" lon="2.19666">
        <ele>2023.23</ele>
        <time>2015-06-04T08:55:57Z</time>
      </trkpt>
      <trkpt lat="42.47852" lon="2.19675">
        <ele>2023.71</ele>
        <time>2015-06-04T08:56:05Z</time>
      </trkpt>
      <trkpt lat="42.4785" lon="2.19688">
        <ele>2025.15</ele>
        <time>2015-06-04T08:56:17Z</time>
      </trkpt>
      <trkpt lat="42.47851" lon="2.1969">
        <ele>2025.64</ele>
        <time>2015-06-04T08:56:19Z</time>
      </trkpt>
      <trkpt lat="42.47849" lon="2.19691">
        <ele>2025.64</ele>
        <time>2015-06-04T08:56:21Z</time>
      </trkpt>
      <trkpt lat="42.47852" lon="2.19702">
        <ele>2026.6</ele>
        <time>2015-06-04T08:56:31Z</time>
      </trkpt>
      <trkpt lat="42.47853" lon="2.19713">
        <ele>2027.56</ele>
        <time>2015-06-04T08:56:42Z</time>
      </trkpt>
      <trkpt lat="42.47855" lon="2.19723">
        <ele>2028.52</ele>
        <time>2015-06-04T08:56:52Z</time>
      </trkpt>
      <trkpt lat="42.47857" lon="2.19736">
        <ele>2029.96</ele>
        <time>2015-06-04T08:57:05Z</time>
      </trkpt>
      <trkpt lat="42.47857" lon="2.19745">
        <ele>2031.4</ele>
        <time>2015-06-04T08:57:18Z</time>
      </trkpt>
      <trkpt lat="42.47852" lon="2.19752">
        <ele>2034.77</ele>
        <time>2015-06-04T08:57:33Z</time>
      </trkpt>
      <trkpt lat="42.47846" lon="2.19752">
        <ele>2036.21</ele>
        <time>2015-06-04T08:57:48Z</time>
      </trkpt>
      <trkpt lat="42.47842" lon="2.19757">
        <ele>2038.61</ele>
        <time>2015-06-04T08:58:02Z</time>
      </trkpt>
      <trkpt lat="42.47838" lon="2.19762">
        <ele>2040.54</ele>
        <time>2015-06-04T08:58:17Z</time>
      </trkpt>
      <trkpt lat="42.47834" lon="2.19771">
        <ele>2043.9</ele>
        <time>2015-06-04T08:58:34Z</time>
      </trkpt>
      <trkpt lat="42.4783" lon="2.19781">
        <ele>2045.82</ele>
        <time>2015-06-04T08:58:51Z</time>
      </trkpt>
      <trkpt lat="42.47827" lon="2.19789">
        <ele>2047.75</ele>
        <time>2015-06-04T08:59:05Z</time>
      </trkpt>
      <trkpt lat="42.47825" lon="2.19797">
        <ele>2050.15</ele>
        <time>2015-06-04T08:59:19Z</time>
      </trkpt>
      <trkpt lat="42.47824" lon="2.19808">
        <ele>2051.59</ele>
        <time>2015-06-04T08:59:32Z</time>
      </trkpt>
      <trkpt lat="42.47822" lon="2.19817">
        <ele>2053.03</ele>
        <time>2015-06-04T08:59:43Z</time>
      </trkpt>
      <trkpt lat="42.47818" lon="2.19827">
        <ele>2053.99</ele>
        <time>2015-06-04T08:59:55Z</time>
      </trkpt>
      <trkpt lat="42.47816" lon="2.19831">
        <ele>2054.96</ele>
        <time>2015-06-04T09:00:07Z</time>
      </trkpt>
      <trkpt lat="42.47816" lon="2.19831">
        <ele>2054.96</ele>
        <time>2015-06-04T09:00:25Z</time>
      </trkpt>
      <trkpt lat="42.47816" lon="2.19829">
        <ele>2055.44</ele>
        <time>2015-06-04T09:00:45Z</time>
      </trkpt>
      <trkpt lat="42.47817" lon="2.19831">
        <ele>2055.44</ele>
        <time>2015-06-04T09:01:07Z</time>
      </trkpt>
      <trkpt lat="42.47816" lon="2.19827">
        <ele>2055.44</ele>
        <time>2015-06-04T09:01:27Z</time>
      </trkpt>
      <trkpt lat="42.47815" lon="2.19828">
        <ele>2055.44</ele>
        <time>2015-06-04T09:01:48Z</time>
      </trkpt>
      <trkpt lat="42.47817" lon="2.19829">
        <ele>2055.44</ele>
        <time>2015-06-04T09:02:13Z</time>
      </trkpt>
      <trkpt lat="42.47817" lon="2.19832">
        <ele>2055.44</ele>
        <time>2015-06-04T09:02:31Z</time>
      </trkpt>
      <trkpt lat="42.47816" lon="2.19831">
        <ele>2055.44</ele>
        <time>2015-06-04T09:02:52Z</time>
      </trkpt>
      <trkpt lat="42.47816" lon="2.19831">
        <ele>2055.44</ele>
        <time>2015-06-04T09:03:08Z</time>
      </trkpt>
      <trkpt lat="42.47814" lon="2.19834">
        <ele>2055.44</ele>
        <time>2015-06-04T09:03:21Z</time>
      </trkpt>
      <trkpt lat="42.478" lon="2.19847">
        <ele>2055.92</ele>
        <time>2015-06-04T09:03:36Z</time>
      </trkpt>
      <trkpt lat="42.47793" lon="2.19852">
        <ele>2055.92</ele>
        <time>2015-06-04T09:03:43Z</time>
      </trkpt>
      <trkpt lat="42.47788" lon="2.19853">
        <ele>2056.4</ele>
        <time>2015-06-04T09:03:48Z</time>
      </trkpt>
      <trkpt lat="42.47784" lon="2.19856">
        <ele>2056.4</ele>
        <time>2015-06-04T09:03:52Z</time>
      </trkpt>
      <trkpt lat="42.47769" lon="2.19864">
        <ele>2057.36</ele>
        <time>2015-06-04T09:04:06Z</time>
      </trkpt>
      <trkpt lat="42.47753" lon="2.19876">
        <ele>2057.36</ele>
        <time>2015-06-04T09:04:22Z</time>
      </trkpt>
      <trkpt lat="42.47741" lon="2.19884">
        <ele>2057.84</ele>
        <time>2015-06-04T09:04:34Z</time>
      </trkpt>
      <trkpt lat="42.4774" lon="2.19885">
        <ele>2057.84</ele>
        <time>2015-06-04T09:04:35Z</time>
      </trkpt>
      <trkpt lat="42.47769" lon="2.19864">
        <ele>2065.53</ele>
        <time>2015-06-04T09:06:58Z</time>
      </trkpt>
      <trkpt lat="42.47654" lon="2.20124">
        <ele>2065.53</ele>
        <time>2015-06-04T09:06:59Z</time>
      </trkpt>
      <trkpt lat="42.47655" lon="2.20096">
        <ele>2067.45</ele>
        <time>2015-06-04T09:07:13Z</time>
      </trkpt>
      <trkpt lat="42.47649" lon="2.201">
        <ele>2067.93</ele>
        <time>2015-06-04T09:07:23Z</time>
      </trkpt>
      <trkpt lat="42.47644" lon="2.20101">
        <ele>2071.3</ele>
        <time>2015-06-04T09:07:30Z</time>
      </trkpt>
      <trkpt lat="42.47643" lon="2.20101">
        <ele>2074.66</ele>
        <time>2015-06-04T09:07:31Z</time>
      </trkpt>
      <trkpt lat="42.47642" lon="2.20102">
        <ele>2080.43</ele>
        <time>2015-06-04T09:07:33Z</time>
      </trkpt>
      <trkpt lat="42.47641" lon="2.20101">
        <ele>2085.24</ele>
        <time>2015-06-04T09:07:35Z</time>
      </trkpt>
      <trkpt lat="42.4764" lon="2.20101">
        <ele>2090.52</ele>
        <time>2015-06-04T09:07:37Z</time>
      </trkpt>
      <trkpt lat="42.47639" lon="2.20101">
        <ele>2094.85</ele>
        <time>2015-06-04T09:07:39Z</time>
      </trkpt>
      <trkpt lat="42.47638" lon="2.20101">
        <ele>2099.66</ele>
        <time>2015-06-04T09:07:40Z</time>
      </trkpt>
      <trkpt lat="42.47638" lon="2.20101">
        <ele>2099.66</ele>
        <time>2015-06-04T09:07:41Z</time>
      </trkpt>
      <trkpt lat="42.47637" lon="2.20101">
        <ele>2103.5</ele>
        <time>2015-06-04T09:07:42Z</time>
      </trkpt>
      <trkpt lat="42.47636" lon="2.20102">
        <ele>2103.5</ele>
        <time>2015-06-04T09:07:43Z</time>
      </trkpt>
      <trkpt lat="42.47632" lon="2.20106">
        <ele>2107.83</ele>
        <time>2015-06-04T09:07:50Z</time>
      </trkpt>
      <trkpt lat="42.47631" lon="2.20107">
        <ele>2111.67</ele>
        <time>2015-06-04T09:07:52Z</time>
      </trkpt>
      <trkpt lat="42.4763" lon="2.20108">
        <ele>2113.12</ele>
        <time>2015-06-04T09:07:54Z</time>
      </trkpt>
      <trkpt lat="42.47627" lon="2.2011">
        <ele>2116.48</ele>
        <time>2015-06-04T09:07:58Z</time>
      </trkpt>
      <trkpt lat="42.47625" lon="2.20111">
        <ele>2118.88</ele>
        <time>2015-06-04T09:08:00Z</time>
      </trkpt>
      <trkpt lat="42.47624" lon="2.20114">
        <ele>2122.25</ele>
        <time>2015-06-04T09:08:04Z</time>
      </trkpt>
      <trkpt lat="42.47622" lon="2.20116">
        <ele>2125.61</ele>
        <time>2015-06-04T09:08:08Z</time>
      </trkpt>
      <trkpt lat="42.47621" lon="2.20117">
        <ele>2125.61</ele>
        <time>2015-06-04T09:08:09Z</time>
      </trkpt>
      <trkpt lat="42.4762" lon="2.20119">
        <ele>2128.98</ele>
        <time>2015-06-04T09:08:12Z</time>
      </trkpt>
      <trkpt lat="42.4762" lon="2.20119">
        <ele>2128.98</ele>
        <time>2015-06-04T09:08:13Z</time>
      </trkpt>
      <trkpt lat="42.47616" lon="2.20125">
        <ele>2129.46</ele>
        <time>2015-06-04T09:08:24Z</time>
      </trkpt>
      <trkpt lat="42.4761" lon="2.20129">
        <ele>2130.42</ele>
        <time>2015-06-04T09:08:35Z</time>
      </trkpt>
      <trkpt lat="42.47607" lon="2.20135">
        <ele>2132.34</ele>
        <time>2015-06-04T09:08:47Z</time>
      </trkpt>
      <trkpt lat="42.47606" lon="2.20141">
        <ele>2134.26</ele>
        <time>2015-06-04T09:08:53Z</time>
      </trkpt>
      <trkpt lat="42.47603" lon="2.20145">
        <ele>2138.11</ele>
        <time>2015-06-04T09:08:59Z</time>
      </trkpt>
      <trkpt lat="42.47601" lon="2.20149">
        <ele>2141.47</ele>
        <time>2015-06-04T09:09:05Z</time>
      </trkpt>
      <trkpt lat="42.47597" lon="2.20154">
        <ele>2144.36</ele>
        <time>2015-06-04T09:09:14Z</time>
      </trkpt>
      <trkpt lat="42.47598" lon="2.20162">
        <ele>2147.72</ele>
        <time>2015-06-04T09:09:24Z</time>
      </trkpt>
      <trkpt lat="42.47597" lon="2.20166">
        <ele>2149.16</ele>
        <time>2015-06-04T09:09:28Z</time>
      </trkpt>
      <trkpt lat="42.47595" lon="2.20171">
        <ele>2151.09</ele>
        <time>2015-06-04T09:09:35Z</time>
      </trkpt>
      <trkpt lat="42.47593" lon="2.20182">
        <ele>2154.45</ele>
        <time>2015-06-04T09:09:46Z</time>
      </trkpt>
      <trkpt lat="42.47592" lon="2.20192">
        <ele>2155.89</ele>
        <time>2015-06-04T09:09:59Z</time>
      </trkpt>
      <trkpt lat="42.4759" lon="2.20201">
        <ele>2157.82</ele>
        <time>2015-06-04T09:10:11Z</time>
      </trkpt>
      <trkpt lat="42.47591" lon="2.2021">
        <ele>2158.78</ele>
        <time>2015-06-04T09:10:22Z</time>
      </trkpt>
      <trkpt lat="42.47592" lon="2.20219">
        <ele>2160.22</ele>
        <time>2015-06-04T09:10:34Z</time>
      </trkpt>
      <trkpt lat="42.47591" lon="2.20231">
        <ele>2161.66</ele>
        <time>2015-06-04T09:10:46Z</time>
      </trkpt>
      <trkpt lat="42.47589" lon="2.20239">
        <ele>2162.62</ele>
        <time>2015-06-04T09:10:59Z</time>
      </trkpt>
      <trkpt lat="42.47587" lon="2.20246">
        <ele>2164.55</ele>
        <time>2015-06-04T09:11:10Z</time>
      </trkpt>
      <trkpt lat="42.47586" lon="2.20254">
        <ele>2166.95</ele>
        <time>2015-06-04T09:11:26Z</time>
      </trkpt>
      <trkpt lat="42.47585" lon="2.20264">
        <ele>2168.39</ele>
        <time>2015-06-04T09:11:39Z</time>
      </trkpt>
      <trkpt lat="42.47585" lon="2.20271">
        <ele>2169.83</ele>
        <time>2015-06-04T09:11:52Z</time>
      </trkpt>
      <trkpt lat="42.47581" lon="2.2027">
        <ele>2171.27</ele>
        <time>2015-06-04T09:12:04Z</time>
      </trkpt>
      <trkpt lat="42.47578" lon="2.20266">
        <ele>2173.2</ele>
        <time>2015-06-04T09:12:19Z</time>
      </trkpt>
      <trkpt lat="42.47576" lon="2.20266">
        <ele>2174.16</ele>
        <time>2015-06-04T09:12:28Z</time>
      </trkpt>
      <trkpt lat="42.47576" lon="2.20271">
        <ele>2175.12</ele>
        <time>2015-06-04T09:12:39Z</time>
      </trkpt>
      <trkpt lat="42.47569" lon="2.20282">
        <ele>2175.12</ele>
        <time>2015-06-04T09:12:51Z</time>
      </trkpt>
      <trkpt lat="42.47568" lon="2.20284">
        <ele>2175.6</ele>
        <time>2015-06-04T09:12:55Z</time>
      </trkpt>
      <trkpt lat="42.47568" lon="2.20289">
        <ele>2176.08</ele>
        <time>2015-06-04T09:13:00Z</time>
      </trkpt>
      <trkpt lat="42.47564" lon="2.20299">
        <ele>2177.52</ele>
        <time>2015-06-04T09:13:12Z</time>
      </trkpt>
      <trkpt lat="42.47559" lon="2.20305">
        <ele>2178</ele>
        <time>2015-06-04T09:13:23Z</time>
      </trkpt>
      <trkpt lat="42.47555" lon="2.20311">
        <ele>2179.45</ele>
        <time>2015-06-04T09:13:35Z</time>
      </trkpt>
      <trkpt lat="42.47552" lon="2.20318">
        <ele>2180.41</ele>
        <time>2015-06-04T09:13:46Z</time>
      </trkpt>
      <trkpt lat="42.4755" lon="2.20325">
        <ele>2181.85</ele>
        <time>2015-06-04T09:13:58Z</time>
      </trkpt>
      <trkpt lat="42.47546" lon="2.20329">
        <ele>2183.29</ele>
        <time>2015-06-04T09:14:11Z</time>
      </trkpt>
      <trkpt lat="42.47545" lon="2.20335">
        <ele>2184.73</ele>
        <time>2015-06-04T09:14:26Z</time>
      </trkpt>
      <trkpt lat="42.47542" lon="2.20341">
        <ele>2186.66</ele>
        <time>2015-06-04T09:14:39Z</time>
      </trkpt>
      <trkpt lat="42.47542" lon="2.20348">
        <ele>2188.1</ele>
        <time>2015-06-04T09:14:53Z</time>
      </trkpt>
      <trkpt lat="42.47538" lon="2.20353">
        <ele>2189.54</ele>
        <time>2015-06-04T09:15:05Z</time>
      </trkpt>
      <trkpt lat="42.47535" lon="2.20357">
        <ele>2190.5</ele>
        <time>2015-06-04T09:15:18Z</time>
      </trkpt>
      <trkpt lat="42.47534" lon="2.20362">
        <ele>2191.94</ele>
        <time>2015-06-04T09:15:31Z</time>
      </trkpt>
      <trkpt lat="42.47527" lon="2.2036">
        <ele>2193.39</ele>
        <time>2015-06-04T09:15:44Z</time>
      </trkpt>
      <trkpt lat="42.47524" lon="2.20365">
        <ele>2194.83</ele>
        <time>2015-06-04T09:15:57Z</time>
      </trkpt>
      <trkpt lat="42.47524" lon="2.20371">
        <ele>2196.27</ele>
        <time>2015-06-04T09:16:13Z</time>
      </trkpt>
      <trkpt lat="42.4752" lon="2.20376">
        <ele>2198.19</ele>
        <time>2015-06-04T09:16:30Z</time>
      </trkpt>
      <trkpt lat="42.47516" lon="2.20381">
        <ele>2200.11</ele>
        <time>2015-06-04T09:16:45Z</time>
      </trkpt>
      <trkpt lat="42.47513" lon="2.20384">
        <ele>2201.08</ele>
        <time>2015-06-04T09:17:00Z</time>
      </trkpt>
      <trkpt lat="42.4751" lon="2.2039">
        <ele>2203</ele>
        <time>2015-06-04T09:17:13Z</time>
      </trkpt>
      <trkpt lat="42.47507" lon="2.20397">
        <ele>2203.48</ele>
        <time>2015-06-04T09:17:25Z</time>
      </trkpt>
      <trkpt lat="42.47505" lon="2.20403">
        <ele>2204.92</ele>
        <time>2015-06-04T09:17:39Z</time>
      </trkpt>
      <trkpt lat="42.47501" lon="2.2041">
        <ele>2205.88</ele>
        <time>2015-06-04T09:17:52Z</time>
      </trkpt>
      <trkpt lat="42.47497" lon="2.20415">
        <ele>2207.32</ele>
        <time>2015-06-04T09:18:08Z</time>
      </trkpt>
      <trkpt lat="42.47493" lon="2.20418">
        <ele>2209.25</ele>
        <time>2015-06-04T09:18:22Z</time>
      </trkpt>
      <trkpt lat="42.4749" lon="2.20421">
        <ele>2210.69</ele>
        <time>2015-06-04T09:18:36Z</time>
      </trkpt>
      <trkpt lat="42.47489" lon="2.20426">
        <ele>2212.13</ele>
        <time>2015-06-04T09:18:49Z</time>
      </trkpt>
      <trkpt lat="42.47487" lon="2.20432">
        <ele>2213.57</ele>
        <time>2015-06-04T09:19:02Z</time>
      </trkpt>
      <trkpt lat="42.4748" lon="2.20441">
        <ele>2215.01</ele>
        <time>2015-06-04T09:19:17Z</time>
      </trkpt>
      <trkpt lat="42.47477" lon="2.2045">
        <ele>2216.94</ele>
        <time>2015-06-04T09:19:31Z</time>
      </trkpt>
      <trkpt lat="42.47472" lon="2.20455">
        <ele>2217.9</ele>
        <time>2015-06-04T09:19:43Z</time>
      </trkpt>
      <trkpt lat="42.47468" lon="2.20455">
        <ele>2219.34</ele>
        <time>2015-06-04T09:19:58Z</time>
      </trkpt>
      <trkpt lat="42.47465" lon="2.2046">
        <ele>2221.26</ele>
        <time>2015-06-04T09:20:15Z</time>
      </trkpt>
      <trkpt lat="42.47461" lon="2.20467">
        <ele>2222.22</ele>
        <time>2015-06-04T09:20:27Z</time>
      </trkpt>
      <trkpt lat="42.47458" lon="2.20474">
        <ele>2223.67</ele>
        <time>2015-06-04T09:20:41Z</time>
      </trkpt>
      <trkpt lat="42.47453" lon="2.20476">
        <ele>2224.15</ele>
        <time>2015-06-04T09:20:54Z</time>
      </trkpt>
      <trkpt lat="42.47449" lon="2.20481">
        <ele>2225.59</ele>
        <time>2015-06-04T09:21:06Z</time>
      </trkpt>
      <trkpt lat="42.47448" lon="2.20487">
        <ele>2227.03</ele>
        <time>2015-06-04T09:21:19Z</time>
      </trkpt>
      <trkpt lat="42.47445" lon="2.20493">
        <ele>2227.51</ele>
        <time>2015-06-04T09:21:30Z</time>
      </trkpt>
      <trkpt lat="42.47443" lon="2.205">
        <ele>2228.95</ele>
        <time>2015-06-04T09:21:41Z</time>
      </trkpt>
      <trkpt lat="42.47441" lon="2.20504">
        <ele>2229.92</ele>
        <time>2015-06-04T09:21:53Z</time>
      </trkpt>
      <trkpt lat="42.47439" lon="2.20509">
        <ele>2230.4</ele>
        <time>2015-06-04T09:22:10Z</time>
      </trkpt>
      <trkpt lat="42.47438" lon="2.20509">
        <ele>2230.4</ele>
        <time>2015-06-04T09:22:12Z</time>
      </trkpt>
      <trkpt lat="42.47436" lon="2.20512">
        <ele>2231.36</ele>
        <time>2015-06-04T09:22:22Z</time>
      </trkpt>
      <trkpt lat="42.47439" lon="2.20517">
        <ele>2230.88</ele>
        <time>2015-06-04T09:22:31Z</time>
      </trkpt>
      <trkpt lat="42.47441" lon="2.20523">
        <ele>2232.8</ele>
        <time>2015-06-04T09:22:44Z</time>
      </trkpt>
      <trkpt lat="42.4744" lon="2.2053">
        <ele>2234.24</ele>
        <time>2015-06-04T09:22:56Z</time>
      </trkpt>
      <trkpt lat="42.47438" lon="2.20533">
        <ele>2235.2</ele>
        <time>2015-06-04T09:23:08Z</time>
      </trkpt>
      <trkpt lat="42.47433" lon="2.2054">
        <ele>2237.61</ele>
        <time>2015-06-04T09:23:24Z</time>
      </trkpt>
      <trkpt lat="42.4743" lon="2.20555">
        <ele>2239.53</ele>
        <time>2015-06-04T09:23:38Z</time>
      </trkpt>
      <trkpt lat="42.4743" lon="2.20561">
        <ele>2240.97</ele>
        <time>2015-06-04T09:23:52Z</time>
      </trkpt>
      <trkpt lat="42.47428" lon="2.20568">
        <ele>2241.93</ele>
        <time>2015-06-04T09:24:10Z</time>
      </trkpt>
      <trkpt lat="42.47421" lon="2.20572">
        <ele>2243.37</ele>
        <time>2015-06-04T09:24:25Z</time>
      </trkpt>
      <trkpt lat="42.47421" lon="2.20583">
        <ele>2245.3</ele>
        <time>2015-06-04T09:24:40Z</time>
      </trkpt>
      <trkpt lat="42.47423" lon="2.20593">
        <ele>2246.74</ele>
        <time>2015-06-04T09:24:54Z</time>
      </trkpt>
      <trkpt lat="42.47418" lon="2.20597">
        <ele>2248.18</ele>
        <time>2015-06-04T09:25:07Z</time>
      </trkpt>
      <trkpt lat="42.47413" lon="2.20602">
        <ele>2249.62</ele>
        <time>2015-06-04T09:25:21Z</time>
      </trkpt>
      <trkpt lat="42.47408" lon="2.20608">
        <ele>2251.06</ele>
        <time>2015-06-04T09:25:35Z</time>
      </trkpt>
      <trkpt lat="42.47406" lon="2.20615">
        <ele>2252.03</ele>
        <time>2015-06-04T09:25:49Z</time>
      </trkpt>
      <trkpt lat="42.47406" lon="2.20626">
        <ele>2253.95</ele>
        <time>2015-06-04T09:26:05Z</time>
      </trkpt>
      <trkpt lat="42.47408" lon="2.20637">
        <ele>2255.39</ele>
        <time>2015-06-04T09:26:21Z</time>
      </trkpt>
      <trkpt lat="42.47406" lon="2.20643">
        <ele>2256.83</ele>
        <time>2015-06-04T09:26:33Z</time>
      </trkpt>
      <trkpt lat="42.47404" lon="2.2065">
        <ele>2258.27</ele>
        <time>2015-06-04T09:26:52Z</time>
      </trkpt>
      <trkpt lat="42.474" lon="2.20654">
        <ele>2260.2</ele>
        <time>2015-06-04T09:27:07Z</time>
      </trkpt>
      <trkpt lat="42.47398" lon="2.20662">
        <ele>2261.64</ele>
        <time>2015-06-04T09:27:22Z</time>
      </trkpt>
      <trkpt lat="42.47396" lon="2.20668">
        <ele>2263.08</ele>
        <time>2015-06-04T09:27:37Z</time>
      </trkpt>
      <trkpt lat="42.47393" lon="2.20673">
        <ele>2264.52</ele>
        <time>2015-06-04T09:27:50Z</time>
      </trkpt>
      <trkpt lat="42.47392" lon="2.20681">
        <ele>2265.96</ele>
        <time>2015-06-04T09:28:06Z</time>
      </trkpt>
      <trkpt lat="42.4739" lon="2.20684">
        <ele>2267.41</ele>
        <time>2015-06-04T09:28:20Z</time>
      </trkpt>
      <trkpt lat="42.47388" lon="2.20691">
        <ele>2268.37</ele>
        <time>2015-06-04T09:28:34Z</time>
      </trkpt>
      <trkpt lat="42.47384" lon="2.20698">
        <ele>2270.29</ele>
        <time>2015-06-04T09:28:49Z</time>
      </trkpt>
      <trkpt lat="42.47378" lon="2.20705">
        <ele>2272.21</ele>
        <time>2015-06-04T09:29:05Z</time>
      </trkpt>
      <trkpt lat="42.47377" lon="2.20716">
        <ele>2274.14</ele>
        <time>2015-06-04T09:29:19Z</time>
      </trkpt>
      <trkpt lat="42.47371" lon="2.20723">
        <ele>2276.06</ele>
        <time>2015-06-04T09:29:36Z</time>
      </trkpt>
      <trkpt lat="42.47365" lon="2.20729">
        <ele>2277.98</ele>
        <time>2015-06-04T09:29:52Z</time>
      </trkpt>
      <trkpt lat="42.47361" lon="2.20737">
        <ele>2278.94</ele>
        <time>2015-06-04T09:30:07Z</time>
      </trkpt>
      <trkpt lat="42.47358" lon="2.20744">
        <ele>2280.38</ele>
        <time>2015-06-04T09:30:22Z</time>
      </trkpt>
      <trkpt lat="42.47353" lon="2.20751">
        <ele>2282.31</ele>
        <time>2015-06-04T09:30:40Z</time>
      </trkpt>
      <trkpt lat="42.47348" lon="2.20758">
        <ele>2284.23</ele>
        <time>2015-06-04T09:30:59Z</time>
      </trkpt>
      <trkpt lat="42.47342" lon="2.20763">
        <ele>2285.67</ele>
        <time>2015-06-04T09:31:12Z</time>
      </trkpt>
      <trkpt lat="42.47335" lon="2.20766">
        <ele>2287.11</ele>
        <time>2015-06-04T09:31:28Z</time>
      </trkpt>
      <trkpt lat="42.4733" lon="2.20772">
        <ele>2288.56</ele>
        <time>2015-06-04T09:31:41Z</time>
      </trkpt>
      <trkpt lat="42.47328" lon="2.20777">
        <ele>2290</ele>
        <time>2015-06-04T09:31:54Z</time>
      </trkpt>
      <trkpt lat="42.4733" lon="2.20786">
        <ele>2291.44</ele>
        <time>2015-06-04T09:32:06Z</time>
      </trkpt>
      <trkpt lat="42.47329" lon="2.2079">
        <ele>2292.4</ele>
        <time>2015-06-04T09:32:19Z</time>
      </trkpt>
      <trkpt lat="42.47327" lon="2.20794">
        <ele>2294.32</ele>
        <time>2015-06-04T09:32:31Z</time>
      </trkpt>
      <trkpt lat="42.47323" lon="2.20799">
        <ele>2296.25</ele>
        <time>2015-06-04T09:32:45Z</time>
      </trkpt>
      <trkpt lat="42.4732" lon="2.20807">
        <ele>2297.69</ele>
        <time>2015-06-04T09:32:58Z</time>
      </trkpt>
      <trkpt lat="42.47316" lon="2.20814">
        <ele>2299.13</ele>
        <time>2015-06-04T09:33:13Z</time>
      </trkpt>
      <trkpt lat="42.47312" lon="2.20821">
        <ele>2301.53</ele>
        <time>2015-06-04T09:33:29Z</time>
      </trkpt>
      <trkpt lat="42.47309" lon="2.20829">
        <ele>2303.46</ele>
        <time>2015-06-04T09:33:44Z</time>
      </trkpt>
      <trkpt lat="42.47307" lon="2.20832">
        <ele>2305.86</ele>
        <time>2015-06-04T09:33:56Z</time>
      </trkpt>
      <trkpt lat="42.47307" lon="2.20833">
        <ele>2304.42</ele>
        <time>2015-06-04T09:34:00Z</time>
      </trkpt>
      <trkpt lat="42.47307" lon="2.20834">
        <ele>2306.82</ele>
        <time>2015-06-04T09:34:01Z</time>
      </trkpt>
      <trkpt lat="42.47305" lon="2.20836">
        <ele>2307.3</ele>
        <time>2015-06-04T09:34:07Z</time>
      </trkpt>
      <trkpt lat="42.47301" lon="2.20841">
        <ele>2308.74</ele>
        <time>2015-06-04T09:34:24Z</time>
      </trkpt>
      <trkpt lat="42.47298" lon="2.20846">
        <ele>2309.7</ele>
        <time>2015-06-04T09:34:37Z</time>
      </trkpt>
      <trkpt lat="42.47294" lon="2.20852">
        <ele>2312.11</ele>
        <time>2015-06-04T09:34:51Z</time>
      </trkpt>
      <trkpt lat="42.47291" lon="2.20857">
        <ele>2314.51</ele>
        <time>2015-06-04T09:35:05Z</time>
      </trkpt>
      <trkpt lat="42.47284" lon="2.20863">
        <ele>2315.95</ele>
        <time>2015-06-04T09:35:21Z</time>
      </trkpt>
      <trkpt lat="42.47281" lon="2.20869">
        <ele>2317.4</ele>
        <time>2015-06-04T09:35:33Z</time>
      </trkpt>
      <trkpt lat="42.47278" lon="2.20875">
        <ele>2319.8</ele>
        <time>2015-06-04T09:35:47Z</time>
      </trkpt>
      <trkpt lat="42.47273" lon="2.2088">
        <ele>2321.24</ele>
        <time>2015-06-04T09:36:03Z</time>
      </trkpt>
      <trkpt lat="42.47266" lon="2.20883">
        <ele>2323.64</ele>
        <time>2015-06-04T09:36:18Z</time>
      </trkpt>
      <trkpt lat="42.4726" lon="2.20884">
        <ele>2325.09</ele>
        <time>2015-06-04T09:36:31Z</time>
      </trkpt>
      <trkpt lat="42.47255" lon="2.20887">
        <ele>2326.53</ele>
        <time>2015-06-04T09:36:45Z</time>
      </trkpt>
      <trkpt lat="42.47251" lon="2.20891">
        <ele>2327.49</ele>
        <time>2015-06-04T09:36:58Z</time>
      </trkpt>
      <trkpt lat="42.47249" lon="2.20895">
        <ele>2328.45</ele>
        <time>2015-06-04T09:37:16Z</time>
      </trkpt>
      <trkpt lat="42.47244" lon="2.20895">
        <ele>2330.37</ele>
        <time>2015-06-04T09:37:27Z</time>
      </trkpt>
      <trkpt lat="42.4724" lon="2.20902">
        <ele>2331.81</ele>
        <time>2015-06-04T09:37:40Z</time>
      </trkpt>
      <trkpt lat="42.47236" lon="2.20905">
        <ele>2333.26</ele>
        <time>2015-06-04T09:37:53Z</time>
      </trkpt>
      <trkpt lat="42.47234" lon="2.20909">
        <ele>2334.22</ele>
        <time>2015-06-04T09:38:03Z</time>
      </trkpt>
      <trkpt lat="42.47235" lon="2.20909">
        <ele>2334.22</ele>
        <time>2015-06-04T09:38:23Z</time>
      </trkpt>
      <trkpt lat="42.47231" lon="2.20911">
        <ele>2336.14</ele>
        <time>2015-06-04T09:38:36Z</time>
      </trkpt>
      <trkpt lat="42.47229" lon="2.20911">
        <ele>2335.66</ele>
        <time>2015-06-04T09:38:54Z</time>
      </trkpt>
      <trkpt lat="42.47232" lon="2.20919">
        <ele>2335.66</ele>
        <time>2015-06-04T09:39:06Z</time>
      </trkpt>
      <trkpt lat="42.47233" lon="2.2092">
        <ele>2335.18</ele>
        <time>2015-06-04T09:39:23Z</time>
      </trkpt>
      <trkpt lat="42.47233" lon="2.2092">
        <ele>2335.18</ele>
        <time>2015-06-04T09:39:41Z</time>
      </trkpt>
      <trkpt lat="42.47251" lon="2.20917">
        <ele>2334.7</ele>
        <time>2015-06-04T09:40:03Z</time>
      </trkpt>
      <trkpt lat="42.4725" lon="2.20914">
        <ele>2334.7</ele>
        <time>2015-06-04T09:40:26Z</time>
      </trkpt>
      <trkpt lat="42.47251" lon="2.20914">
        <ele>2334.7</ele>
        <time>2015-06-04T09:40:44Z</time>
      </trkpt>
      <trkpt lat="42.4725" lon="2.20917">
        <ele>2334.22</ele>
        <time>2015-06-04T09:41:04Z</time>
      </trkpt>
      <trkpt lat="42.47242" lon="2.20916">
        <ele>2334.22</ele>
        <time>2015-06-04T09:41:27Z</time>
      </trkpt>
      <trkpt lat="42.47239" lon="2.20915">
        <ele>2334.22</ele>
        <time>2015-06-04T09:41:49Z</time>
      </trkpt>
      <trkpt lat="42.47241" lon="2.2092">
        <ele>2333.74</ele>
        <time>2015-06-04T09:42:06Z</time>
      </trkpt>
      <trkpt lat="42.47241" lon="2.2092">
        <ele>2334.22</ele>
        <time>2015-06-04T09:42:23Z</time>
      </trkpt>
      <trkpt lat="42.47241" lon="2.20922">
        <ele>2333.74</ele>
        <time>2015-06-04T09:42:45Z</time>
      </trkpt>
      <trkpt lat="42.47243" lon="2.20919">
        <ele>2333.26</ele>
        <time>2015-06-04T09:43:04Z</time>
      </trkpt>
      <trkpt lat="42.47243" lon="2.20921">
        <ele>2333.26</ele>
        <time>2015-06-04T09:43:21Z</time>
      </trkpt>
      <trkpt lat="42.47236" lon="2.20919">
        <ele>2333.26</ele>
        <time>2015-06-04T09:43:37Z</time>
      </trkpt>
      <trkpt lat="42.47232" lon="2.20919">
        <ele>2333.74</ele>
        <time>2015-06-04T09:43:44Z</time>
      </trkpt>
      <trkpt lat="42.47225" lon="2.2092">
        <ele>2335.66</ele>
        <time>2015-06-04T09:43:56Z</time>
      </trkpt>
      <trkpt lat="42.47221" lon="2.20922">
        <ele>2337.58</ele>
        <time>2015-06-04T09:44:10Z</time>
      </trkpt>
      <trkpt lat="42.47215" lon="2.20924">
        <ele>2339.99</ele>
        <time>2015-06-04T09:44:23Z</time>
      </trkpt>
      <trkpt lat="42.4721" lon="2.20926">
        <ele>2341.43</ele>
        <time>2015-06-04T09:44:37Z</time>
      </trkpt>
      <trkpt lat="42.47207" lon="2.20929">
        <ele>2342.87</ele>
        <time>2015-06-04T09:44:51Z</time>
      </trkpt>
      <trkpt lat="42.47204" lon="2.20934">
        <ele>2344.31</ele>
        <time>2015-06-04T09:45:04Z</time>
      </trkpt>
      <trkpt lat="42.47207" lon="2.20945">
        <ele>2345.75</ele>
        <time>2015-06-04T09:45:17Z</time>
      </trkpt>
      <trkpt lat="42.47208" lon="2.20953">
        <ele>2346.23</ele>
        <time>2015-06-04T09:45:25Z</time>
      </trkpt>
      <trkpt lat="42.4721" lon="2.20968">
        <ele>2347.68</ele>
        <time>2015-06-04T09:45:39Z</time>
      </trkpt>
      <trkpt lat="42.4721" lon="2.20978">
        <ele>2349.12</ele>
        <time>2015-06-04T09:45:52Z</time>
      </trkpt>
      <trkpt lat="42.47208" lon="2.20989">
        <ele>2350.08</ele>
        <time>2015-06-04T09:46:06Z</time>
      </trkpt>
      <trkpt lat="42.47207" lon="2.20999">
        <ele>2352.48</ele>
        <time>2015-06-04T09:46:21Z</time>
      </trkpt>
      <trkpt lat="42.47207" lon="2.2101">
        <ele>2353.93</ele>
        <time>2015-06-04T09:46:35Z</time>
      </trkpt>
      <trkpt lat="42.47208" lon="2.21021">
        <ele>2354.89</ele>
        <time>2015-06-04T09:46:48Z</time>
      </trkpt>
      <trkpt lat="42.47208" lon="2.21024">
        <ele>2356.33</ele>
        <time>2015-06-04T09:46:53Z</time>
      </trkpt>
      <trkpt lat="42.47209" lon="2.21033">
        <ele>2357.29</ele>
        <time>2015-06-04T09:47:03Z</time>
      </trkpt>
      <trkpt lat="42.47212" lon="2.21047">
        <ele>2358.73</ele>
        <time>2015-06-04T09:47:19Z</time>
      </trkpt>
      <trkpt lat="42.47213" lon="2.21052">
        <ele>2359.69</ele>
        <time>2015-06-04T09:47:31Z</time>
      </trkpt>
      <trkpt lat="42.47213" lon="2.21059">
        <ele>2360.17</ele>
        <time>2015-06-04T09:47:44Z</time>
      </trkpt>
      <trkpt lat="42.47213" lon="2.21069">
        <ele>2361.62</ele>
        <time>2015-06-04T09:47:56Z</time>
      </trkpt>
      <trkpt lat="42.47215" lon="2.2108">
        <ele>2363.06</ele>
        <time>2015-06-04T09:48:08Z</time>
      </trkpt>
      <trkpt lat="42.47213" lon="2.21092">
        <ele>2364.98</ele>
        <time>2015-06-04T09:48:22Z</time>
      </trkpt>
      <trkpt lat="42.47211" lon="2.21103">
        <ele>2366.9</ele>
        <time>2015-06-04T09:48:36Z</time>
      </trkpt>
      <trkpt lat="42.47209" lon="2.21112">
        <ele>2368.35</ele>
        <time>2015-06-04T09:48:49Z</time>
      </trkpt>
      <trkpt lat="42.47208" lon="2.21123">
        <ele>2370.75</ele>
        <time>2015-06-04T09:49:05Z</time>
      </trkpt>
      <trkpt lat="42.47204" lon="2.21133">
        <ele>2372.67</ele>
        <time>2015-06-04T09:49:19Z</time>
      </trkpt>
      <trkpt lat="42.47201" lon="2.21143">
        <ele>2374.11</ele>
        <time>2015-06-04T09:49:33Z</time>
      </trkpt>
      <trkpt lat="42.47198" lon="2.21155">
        <ele>2375.55</ele>
        <time>2015-06-04T09:49:47Z</time>
      </trkpt>
      <trkpt lat="42.47196" lon="2.21162">
        <ele>2376.04</ele>
        <time>2015-06-04T09:49:55Z</time>
      </trkpt>
      <trkpt lat="42.47196" lon="2.21175">
        <ele>2377.96</ele>
        <time>2015-06-04T09:50:09Z</time>
      </trkpt>
      <trkpt lat="42.47197" lon="2.21179">
        <ele>2378.44</ele>
        <time>2015-06-04T09:50:13Z</time>
      </trkpt>
      <trkpt lat="42.47193" lon="2.21191">
        <ele>2380.36</ele>
        <time>2015-06-04T09:50:25Z</time>
      </trkpt>
      <trkpt lat="42.47192" lon="2.21193">
        <ele>2380.36</ele>
        <time>2015-06-04T09:50:27Z</time>
      </trkpt>
      <trkpt lat="42.4719" lon="2.21196">
        <ele>2380.36</ele>
        <time>2015-06-04T09:50:30Z</time>
      </trkpt>
      <trkpt lat="42.47188" lon="2.21206">
        <ele>2381.32</ele>
        <time>2015-06-04T09:50:42Z</time>
      </trkpt>
      <trkpt lat="42.47181" lon="2.21219">
        <ele>2383.25</ele>
        <time>2015-06-04T09:50:56Z</time>
      </trkpt>
      <trkpt lat="42.47178" lon="2.21225">
        <ele>2383.25</ele>
        <time>2015-06-04T09:51:02Z</time>
      </trkpt>
      <trkpt lat="42.47177" lon="2.21227">
        <ele>2383.25</ele>
        <time>2015-06-04T09:51:14Z</time>
      </trkpt>
      <trkpt lat="42.47176" lon="2.21228">
        <ele>2383.25</ele>
        <time>2015-06-04T09:51:34Z</time>
      </trkpt>
      <trkpt lat="42.47174" lon="2.21232">
        <ele>2383.25</ele>
        <time>2015-06-04T09:51:51Z</time>
      </trkpt>
      <trkpt lat="42.47172" lon="2.21237">
        <ele>2383.25</ele>
        <time>2015-06-04T09:51:55Z</time>
      </trkpt>
      <trkpt lat="42.47166" lon="2.2125">
        <ele>2384.69</ele>
        <time>2015-06-04T09:52:07Z</time>
      </trkpt>
      <trkpt lat="42.47165" lon="2.21252">
        <ele>2384.69</ele>
        <time>2015-06-04T09:52:09Z</time>
      </trkpt>
      <trkpt lat="42.47164" lon="2.21258">
        <ele>2384.21</ele>
        <time>2015-06-04T09:52:14Z</time>
      </trkpt>
      <trkpt lat="42.47159" lon="2.21274">
        <ele>2384.69</ele>
        <time>2015-06-04T09:52:29Z</time>
      </trkpt>
      <trkpt lat="42.47157" lon="2.21282">
        <ele>2383.25</ele>
        <time>2015-06-04T09:52:41Z</time>
      </trkpt>
      <trkpt lat="42.47159" lon="2.21285">
        <ele>2382.76</ele>
        <time>2015-06-04T09:53:00Z</time>
      </trkpt>
      <trkpt lat="42.47162" lon="2.21286">
        <ele>2382.76</ele>
        <time>2015-06-04T09:53:17Z</time>
      </trkpt>
      <trkpt lat="42.47172" lon="2.21283">
        <ele>2382.76</ele>
        <time>2015-06-04T09:53:27Z</time>
      </trkpt>
      <trkpt lat="42.47173" lon="2.21282">
        <ele>2382.76</ele>
        <time>2015-06-04T09:53:29Z</time>
      </trkpt>
      <trkpt lat="42.47185" lon="2.21283">
        <ele>2382.76</ele>
        <time>2015-06-04T09:53:41Z</time>
      </trkpt>
      <trkpt lat="42.47188" lon="2.21284">
        <ele>2383.73</ele>
        <time>2015-06-04T09:53:44Z</time>
      </trkpt>
      <trkpt lat="42.47191" lon="2.21285">
        <ele>2383.73</ele>
        <time>2015-06-04T09:53:48Z</time>
      </trkpt>
      <trkpt lat="42.47194" lon="2.21286">
        <ele>2383.73</ele>
        <time>2015-06-04T09:53:51Z</time>
      </trkpt>
      <trkpt lat="42.47206" lon="2.21294">
        <ele>2385.17</ele>
        <time>2015-06-04T09:54:06Z</time>
      </trkpt>
      <trkpt lat="42.47213" lon="2.21303">
        <ele>2386.13</ele>
        <time>2015-06-04T09:54:20Z</time>
      </trkpt>
      <trkpt lat="42.47214" lon="2.21303">
        <ele>2386.13</ele>
        <time>2015-06-04T09:54:35Z</time>
      </trkpt>
      <trkpt lat="42.47214" lon="2.21309">
        <ele>2383.25</ele>
        <time>2015-06-04T09:54:46Z</time>
      </trkpt>
      <trkpt lat="42.47214" lon="2.21309">
        <ele>2383.25</ele>
        <time>2015-06-04T09:54:47Z</time>
      </trkpt>
      <trkpt lat="42.47206" lon="2.21311">
        <ele>2381.32</ele>
        <time>2015-06-04T09:55:00Z</time>
      </trkpt>
      <trkpt lat="42.47207" lon="2.21311">
        <ele>2380.84</ele>
        <time>2015-06-04T09:55:02Z</time>
      </trkpt>
      <trkpt lat="42.47207" lon="2.21314">
        <ele>2379.88</ele>
        <time>2015-06-04T09:55:16Z</time>
      </trkpt>
      <trkpt lat="42.47204" lon="2.21316">
        <ele>2377.48</ele>
        <time>2015-06-04T09:55:32Z</time>
      </trkpt>
      <trkpt lat="42.472" lon="2.21318">
        <ele>2376.04</ele>
        <time>2015-06-04T09:55:46Z</time>
      </trkpt>
      <trkpt lat="42.47194" lon="2.21316">
        <ele>2376.04</ele>
        <time>2015-06-04T09:55:56Z</time>
      </trkpt>
      <trkpt lat="42.47186" lon="2.21319">
        <ele>2372.67</ele>
        <time>2015-06-04T09:56:09Z</time>
      </trkpt>
      <trkpt lat="42.4718" lon="2.21324">
        <ele>2370.27</ele>
        <time>2015-06-04T09:56:23Z</time>
      </trkpt>
      <trkpt lat="42.47175" lon="2.21328">
        <ele>2366.9</ele>
        <time>2015-06-04T09:56:35Z</time>
      </trkpt>
      <trkpt lat="42.47168" lon="2.21331">
        <ele>2364.02</ele>
        <time>2015-06-04T09:56:48Z</time>
      </trkpt>
      <trkpt lat="42.47162" lon="2.21333">
        <ele>2361.14</ele>
        <time>2015-06-04T09:56:59Z</time>
      </trkpt>
      <trkpt lat="42.47155" lon="2.21333">
        <ele>2359.69</ele>
        <time>2015-06-04T09:57:13Z</time>
      </trkpt>
      <trkpt lat="42.47151" lon="2.21335">
        <ele>2357.29</ele>
        <time>2015-06-04T09:57:20Z</time>
      </trkpt>
      <trkpt lat="42.47142" lon="2.21339">
        <ele>2355.37</ele>
        <time>2015-06-04T09:57:35Z</time>
      </trkpt>
      <trkpt lat="42.47138" lon="2.21341">
        <ele>2353.44</ele>
        <time>2015-06-04T09:57:46Z</time>
      </trkpt>
      <trkpt lat="42.47145" lon="2.21349">
        <ele>2350.08</ele>
        <time>2015-06-04T09:58:00Z</time>
      </trkpt>
      <trkpt lat="42.47155" lon="2.21354">
        <ele>2347.2</ele>
        <time>2015-06-04T09:58:14Z</time>
      </trkpt>
      <trkpt lat="42.47163" lon="2.21359">
        <ele>2344.31</ele>
        <time>2015-06-04T09:58:28Z</time>
      </trkpt>
      <trkpt lat="42.47171" lon="2.21366">
        <ele>2342.39</ele>
        <time>2015-06-04T09:58:42Z</time>
      </trkpt>
      <trkpt lat="42.47172" lon="2.21367">
        <ele>2341.43</ele>
        <time>2015-06-04T09:58:44Z</time>
      </trkpt>
      <trkpt lat="42.47178" lon="2.21376">
        <ele>2338.54</ele>
        <time>2015-06-04T09:58:55Z</time>
      </trkpt>
      <trkpt lat="42.47184" lon="2.21382">
        <ele>2335.66</ele>
        <time>2015-06-04T09:59:08Z</time>
      </trkpt>
      <trkpt lat="42.47185" lon="2.21392">
        <ele>2332.78</ele>
        <time>2015-06-04T09:59:20Z</time>
      </trkpt>
      <trkpt lat="42.47184" lon="2.21392">
        <ele>2332.3</ele>
        <time>2015-06-04T09:59:22Z</time>
      </trkpt>
      <trkpt lat="42.47172" lon="2.21393">
        <ele>2330.37</ele>
        <time>2015-06-04T09:59:36Z</time>
      </trkpt>
      <trkpt lat="42.47162" lon="2.21391">
        <ele>2328.93</ele>
        <time>2015-06-04T09:59:46Z</time>
      </trkpt>
      <trkpt lat="42.4715" lon="2.21394">
        <ele>2327.49</ele>
        <time>2015-06-04T09:59:58Z</time>
      </trkpt>
      <trkpt lat="42.47148" lon="2.21395">
        <ele>2327.49</ele>
        <time>2015-06-04T10:00:00Z</time>
      </trkpt>
      <trkpt lat="42.47133" lon="2.21399">
        <ele>2324.61</ele>
        <time>2015-06-04T10:00:16Z</time>
      </trkpt>
      <trkpt lat="42.47122" lon="2.21404">
        <ele>2322.68</ele>
        <time>2015-06-04T10:00:31Z</time>
      </trkpt>
      <trkpt lat="42.4712" lon="2.21405">
        <ele>2321.24</ele>
        <time>2015-06-04T10:00:33Z</time>
      </trkpt>
      <trkpt lat="42.4711" lon="2.21411">
        <ele>2320.28</ele>
        <time>2015-06-04T10:00:46Z</time>
      </trkpt>
      <trkpt lat="42.47098" lon="2.21421">
        <ele>2318.36</ele>
        <time>2015-06-04T10:01:01Z</time>
      </trkpt>
      <trkpt lat="42.47087" lon="2.21427">
        <ele>2316.91</ele>
        <time>2015-06-04T10:01:14Z</time>
      </trkpt>
      <trkpt lat="42.4708" lon="2.21432">
        <ele>2315.47</ele>
        <time>2015-06-04T10:01:23Z</time>
      </trkpt>
      <trkpt lat="42.47075" lon="2.21434">
        <ele>2314.99</ele>
        <time>2015-06-04T10:01:30Z</time>
      </trkpt>
      <trkpt lat="42.47069" lon="2.21437">
        <ele>2314.51</ele>
        <time>2015-06-04T10:01:36Z</time>
      </trkpt>
      <trkpt lat="42.47066" lon="2.21439">
        <ele>2314.03</ele>
        <time>2015-06-04T10:01:40Z</time>
      </trkpt>
      <trkpt lat="42.47058" lon="2.2144">
        <ele>2312.11</ele>
        <time>2015-06-04T10:01:54Z</time>
      </trkpt>
      <trkpt lat="42.47065" lon="2.21446">
        <ele>2310.19</ele>
        <time>2015-06-04T10:02:08Z</time>
      </trkpt>
      <trkpt lat="42.47066" lon="2.21446">
        <ele>2309.22</ele>
        <time>2015-06-04T10:02:10Z</time>
      </trkpt>
      <trkpt lat="42.47082" lon="2.21445">
        <ele>2307.3</ele>
        <time>2015-06-04T10:02:27Z</time>
      </trkpt>
      <trkpt lat="42.47093" lon="2.21444">
        <ele>2304.9</ele>
        <time>2015-06-04T10:02:40Z</time>
      </trkpt>
      <trkpt lat="42.47102" lon="2.21442">
        <ele>2302.98</ele>
        <time>2015-06-04T10:02:53Z</time>
      </trkpt>
      <trkpt lat="42.47113" lon="2.21442">
        <ele>2301.53</ele>
        <time>2015-06-04T10:03:07Z</time>
      </trkpt>
      <trkpt lat="42.47125" lon="2.21443">
        <ele>2299.61</ele>
        <time>2015-06-04T10:03:19Z</time>
      </trkpt>
      <trkpt lat="42.47127" lon="2.21444">
        <ele>2299.61</ele>
        <time>2015-06-04T10:03:21Z</time>
      </trkpt>
      <trkpt lat="42.4714" lon="2.21448">
        <ele>2297.69</ele>
        <time>2015-06-04T10:03:35Z</time>
      </trkpt>
      <trkpt lat="42.47151" lon="2.21456">
        <ele>2295.28</ele>
        <time>2015-06-04T10:03:47Z</time>
      </trkpt>
      <trkpt lat="42.47156" lon="2.2146">
        <ele>2294.8</ele>
        <time>2015-06-04T10:03:54Z</time>
      </trkpt>
      <trkpt lat="42.47165" lon="2.21472">
        <ele>2292.88</ele>
        <time>2015-06-04T10:04:07Z</time>
      </trkpt>
      <trkpt lat="42.47178" lon="2.21483">
        <ele>2291.44</ele>
        <time>2015-06-04T10:04:22Z</time>
      </trkpt>
      <trkpt lat="42.47179" lon="2.21483">
        <ele>2290.96</ele>
        <time>2015-06-04T10:04:24Z</time>
      </trkpt>
      <trkpt lat="42.4718" lon="2.21485">
        <ele>2290.96</ele>
        <time>2015-06-04T10:04:26Z</time>
      </trkpt>
      <trkpt lat="42.47189" lon="2.21495">
        <ele>2289.52</ele>
        <time>2015-06-04T10:04:38Z</time>
      </trkpt>
      <trkpt lat="42.47198" lon="2.21505">
        <ele>2287.59</ele>
        <time>2015-06-04T10:04:50Z</time>
      </trkpt>
      <trkpt lat="42.47205" lon="2.21518">
        <ele>2285.67</ele>
        <time>2015-06-04T10:05:05Z</time>
      </trkpt>
      <trkpt lat="42.47199" lon="2.21519">
        <ele>2283.27</ele>
        <time>2015-06-04T10:05:16Z</time>
      </trkpt>
      <trkpt lat="42.47192" lon="2.21521">
        <ele>2281.83</ele>
        <time>2015-06-04T10:05:28Z</time>
      </trkpt>
      <trkpt lat="42.47184" lon="2.21524">
        <ele>2278.46</ele>
        <time>2015-06-04T10:05:41Z</time>
      </trkpt>
      <trkpt lat="42.47176" lon="2.21527">
        <ele>2275.58</ele>
        <time>2015-06-04T10:05:54Z</time>
      </trkpt>
      <trkpt lat="42.47177" lon="2.21532">
        <ele>2273.66</ele>
        <time>2015-06-04T10:06:07Z</time>
      </trkpt>
      <trkpt lat="42.47176" lon="2.21535">
        <ele>2271.73</ele>
        <time>2015-06-04T10:06:21Z</time>
      </trkpt>
      <trkpt lat="42.47172" lon="2.21536">
        <ele>2268.85</ele>
        <time>2015-06-04T10:06:36Z</time>
      </trkpt>
      <trkpt lat="42.47167" lon="2.2154">
        <ele>2266.93</ele>
        <time>2015-06-04T10:06:49Z</time>
      </trkpt>
      <trkpt lat="42.47162" lon="2.21546">
        <ele>2264.52</ele>
        <time>2015-06-04T10:07:02Z</time>
      </trkpt>
      <trkpt lat="42.47157" lon="2.2155">
        <ele>2262.12</ele>
        <time>2015-06-04T10:07:16Z</time>
      </trkpt>
      <trkpt lat="42.47153" lon="2.21556">
        <ele>2259.24</ele>
        <time>2015-06-04T10:07:28Z</time>
      </trkpt>
      <trkpt lat="42.47147" lon="2.21558">
        <ele>2256.83</ele>
        <time>2015-06-04T10:07:41Z</time>
      </trkpt>
      <trkpt lat="42.47147" lon="2.21566">
        <ele>2255.39</ele>
        <time>2015-06-04T10:07:53Z</time>
      </trkpt>
      <trkpt lat="42.47143" lon="2.2157">
        <ele>2252.51</ele>
        <time>2015-06-04T10:08:06Z</time>
      </trkpt>
      <trkpt lat="42.47138" lon="2.21573">
        <ele>2251.06</ele>
        <time>2015-06-04T10:08:18Z</time>
      </trkpt>
      <trkpt lat="42.47135" lon="2.21576">
        <ele>2249.62</ele>
        <time>2015-06-04T10:08:33Z</time>
      </trkpt>
      <trkpt lat="42.4713" lon="2.21577">
        <ele>2247.7</ele>
        <time>2015-06-04T10:08:46Z</time>
      </trkpt>
      <trkpt lat="42.47128" lon="2.21577">
        <ele>2246.74</ele>
        <time>2015-06-04T10:08:49Z</time>
      </trkpt>
      <trkpt lat="42.47119" lon="2.21578">
        <ele>2244.82</ele>
        <time>2015-06-04T10:09:04Z</time>
      </trkpt>
      <trkpt lat="42.47112" lon="2.21579">
        <ele>2243.37</ele>
        <time>2015-06-04T10:09:15Z</time>
      </trkpt>
      <trkpt lat="42.4711" lon="2.21586">
        <ele>2240.49</ele>
        <time>2015-06-04T10:09:30Z</time>
      </trkpt>
      <trkpt lat="42.47111" lon="2.21595">
        <ele>2237.61</ele>
        <time>2015-06-04T10:09:46Z</time>
      </trkpt>
      <trkpt lat="42.47112" lon="2.21599">
        <ele>2236.16</ele>
        <time>2015-06-04T10:09:52Z</time>
      </trkpt>
      <trkpt lat="42.47115" lon="2.21605">
        <ele>2235.2</ele>
        <time>2015-06-04T10:09:59Z</time>
      </trkpt>
      <trkpt lat="42.47112" lon="2.21614">
        <ele>2230.88</ele>
        <time>2015-06-04T10:10:10Z</time>
      </trkpt>
      <trkpt lat="42.47106" lon="2.2162">
        <ele>2227.99</ele>
        <time>2015-06-04T10:10:24Z</time>
      </trkpt>
      <trkpt lat="42.47097" lon="2.21621">
        <ele>2225.11</ele>
        <time>2015-06-04T10:10:41Z</time>
      </trkpt>
      <trkpt lat="42.4709" lon="2.21625">
        <ele>2221.74</ele>
        <time>2015-06-04T10:10:55Z</time>
      </trkpt>
      <trkpt lat="42.47089" lon="2.21633">
        <ele>2219.82</ele>
        <time>2015-06-04T10:11:08Z</time>
      </trkpt>
      <trkpt lat="42.47092" lon="2.21643">
        <ele>2217.9</ele>
        <time>2015-06-04T10:11:22Z</time>
      </trkpt>
      <trkpt lat="42.47092" lon="2.2165">
        <ele>2215.5</ele>
        <time>2015-06-04T10:11:37Z</time>
      </trkpt>
      <trkpt lat="42.4709" lon="2.21659">
        <ele>2213.09</ele>
        <time>2015-06-04T10:11:48Z</time>
      </trkpt>
      <trkpt lat="42.47083" lon="2.21658">
        <ele>2210.21</ele>
        <time>2015-06-04T10:12:01Z</time>
      </trkpt>
      <trkpt lat="42.47082" lon="2.21657">
        <ele>2209.73</ele>
        <time>2015-06-04T10:12:03Z</time>
      </trkpt>
      <trkpt lat="42.4708" lon="2.21659">
        <ele>2207.32</ele>
        <time>2015-06-04T10:12:16Z</time>
      </trkpt>
      <trkpt lat="42.4708" lon="2.2167">
        <ele>2206.36</ele>
        <time>2015-06-04T10:12:28Z</time>
      </trkpt>
      <trkpt lat="42.4708" lon="2.21674">
        <ele>2205.88</ele>
        <time>2015-06-04T10:12:31Z</time>
      </trkpt>
      <trkpt lat="42.4707" lon="2.21671">
        <ele>2202.52</ele>
        <time>2015-06-04T10:12:45Z</time>
      </trkpt>
      <trkpt lat="42.47065" lon="2.21674">
        <ele>2201.08</ele>
        <time>2015-06-04T10:12:57Z</time>
      </trkpt>
      <trkpt lat="42.47066" lon="2.21683">
        <ele>2199.63</ele>
        <time>2015-06-04T10:13:08Z</time>
      </trkpt>
      <trkpt lat="42.4706" lon="2.21691">
        <ele>2196.27</ele>
        <time>2015-06-04T10:13:23Z</time>
      </trkpt>
      <trkpt lat="42.47053" lon="2.21694">
        <ele>2193.39</ele>
        <time>2015-06-04T10:13:37Z</time>
      </trkpt>
      <trkpt lat="42.47053" lon="2.21692">
        <ele>2193.39</ele>
        <time>2015-06-04T10:13:55Z</time>
      </trkpt>
      <trkpt lat="42.47056" lon="2.21689">
        <ele>2194.35</ele>
        <time>2015-06-04T10:14:29Z</time>
      </trkpt>
      <trkpt lat="42.47052" lon="2.21691">
        <ele>2192.9</ele>
        <time>2015-06-04T10:14:37Z</time>
      </trkpt>
      <trkpt lat="42.47046" lon="2.21698">
        <ele>2190.5</ele>
        <time>2015-06-04T10:14:50Z</time>
      </trkpt>
      <trkpt lat="42.47041" lon="2.21706">
        <ele>2187.62</ele>
        <time>2015-06-04T10:15:03Z</time>
      </trkpt>
      <trkpt lat="42.4704" lon="2.21714">
        <ele>2184.73</ele>
        <time>2015-06-04T10:15:16Z</time>
      </trkpt>
      <trkpt lat="42.47034" lon="2.21725">
        <ele>2182.33</ele>
        <time>2015-06-04T10:15:29Z</time>
      </trkpt>
      <trkpt lat="42.47031" lon="2.21735">
        <ele>2178.97</ele>
        <time>2015-06-04T10:15:44Z</time>
      </trkpt>
      <trkpt lat="42.47028" lon="2.21746">
        <ele>2175.6</ele>
        <time>2015-06-04T10:15:58Z</time>
      </trkpt>
      <trkpt lat="42.47024" lon="2.21754">
        <ele>2172.72</ele>
        <time>2015-06-04T10:16:12Z</time>
      </trkpt>
      <trkpt lat="42.4702" lon="2.21763">
        <ele>2169.35</ele>
        <time>2015-06-04T10:16:23Z</time>
      </trkpt>
      <trkpt lat="42.47014" lon="2.21772">
        <ele>2166.95</ele>
        <time>2015-06-04T10:16:36Z</time>
      </trkpt>
      <trkpt lat="42.47009" lon="2.2178">
        <ele>2164.06</ele>
        <time>2015-06-04T10:16:48Z</time>
      </trkpt>
      <trkpt lat="42.47009" lon="2.21787">
        <ele>2161.66</ele>
        <time>2015-06-04T10:17:01Z</time>
      </trkpt>
      <trkpt lat="42.47005" lon="2.21794">
        <ele>2158.3</ele>
        <time>2015-06-04T10:17:14Z</time>
      </trkpt>
      <trkpt lat="42.46999" lon="2.21802">
        <ele>2155.41</ele>
        <time>2015-06-04T10:17:28Z</time>
      </trkpt>
      <trkpt lat="42.46996" lon="2.2181">
        <ele>2153.49</ele>
        <time>2015-06-04T10:17:42Z</time>
      </trkpt>
      <trkpt lat="42.46992" lon="2.21812">
        <ele>2151.57</ele>
        <time>2015-06-04T10:17:56Z</time>
      </trkpt>
      <trkpt lat="42.46988" lon="2.2182">
        <ele>2149.16</ele>
        <time>2015-06-04T10:18:11Z</time>
      </trkpt>
      <trkpt lat="42.46985" lon="2.21832">
        <ele>2146.76</ele>
        <time>2015-06-04T10:18:24Z</time>
      </trkpt>
      <trkpt lat="42.46977" lon="2.21846">
        <ele>2143.88</ele>
        <time>2015-06-04T10:18:39Z</time>
      </trkpt>
      <trkpt lat="42.46975" lon="2.21852">
        <ele>2142.92</ele>
        <time>2015-06-04T10:18:45Z</time>
      </trkpt>
      <trkpt lat="42.46974" lon="2.21857">
        <ele>2142.44</ele>
        <time>2015-06-04T10:18:49Z</time>
      </trkpt>
      <trkpt lat="42.46975" lon="2.21874">
        <ele>2140.51</ele>
        <time>2015-06-04T10:19:03Z</time>
      </trkpt>
      <trkpt lat="42.46978" lon="2.2189">
        <ele>2139.07</ele>
        <time>2015-06-04T10:19:18Z</time>
      </trkpt>
      <trkpt lat="42.46977" lon="2.21902">
        <ele>2137.15</ele>
        <time>2015-06-04T10:19:34Z</time>
      </trkpt>
      <trkpt lat="42.46975" lon="2.21918">
        <ele>2134.26</ele>
        <time>2015-06-04T10:19:48Z</time>
      </trkpt>
      <trkpt lat="42.46979" lon="2.21925">
        <ele>2131.38</ele>
        <time>2015-06-04T10:20:03Z</time>
      </trkpt>
      <trkpt lat="42.46983" lon="2.21936">
        <ele>2128.5</ele>
        <time>2015-06-04T10:20:18Z</time>
      </trkpt>
      <trkpt lat="42.46981" lon="2.21949">
        <ele>2127.05</ele>
        <time>2015-06-04T10:20:31Z</time>
      </trkpt>
      <trkpt lat="42.46982" lon="2.21946">
        <ele>2126.57</ele>
        <time>2015-06-04T10:20:44Z</time>
      </trkpt>
      <trkpt lat="42.46981" lon="2.21956">
        <ele>2124.65</ele>
        <time>2015-06-04T10:20:58Z</time>
      </trkpt>
      <trkpt lat="42.46978" lon="2.21965">
        <ele>2122.73</ele>
        <time>2015-06-04T10:21:13Z</time>
      </trkpt>
      <trkpt lat="42.46985" lon="2.21969">
        <ele>2118.88</ele>
        <time>2015-06-04T10:21:26Z</time>
      </trkpt>
      <trkpt lat="42.46986" lon="2.21979">
        <ele>2116.48</ele>
        <time>2015-06-04T10:21:42Z</time>
      </trkpt>
      <trkpt lat="42.46986" lon="2.2199">
        <ele>2113.12</ele>
        <time>2015-06-04T10:21:56Z</time>
      </trkpt>
      <trkpt lat="42.46984" lon="2.21999">
        <ele>2110.71</ele>
        <time>2015-06-04T10:22:10Z</time>
      </trkpt>
      <trkpt lat="42.46982" lon="2.22007">
        <ele>2108.79</ele>
        <time>2015-06-04T10:22:25Z</time>
      </trkpt>
      <trkpt lat="42.46984" lon="2.22018">
        <ele>2106.39</ele>
        <time>2015-06-04T10:22:39Z</time>
      </trkpt>
      <trkpt lat="42.46977" lon="2.22027">
        <ele>2103.5</ele>
        <time>2015-06-04T10:22:53Z</time>
      </trkpt>
      <trkpt lat="42.46978" lon="2.22035">
        <ele>2102.06</ele>
        <time>2015-06-04T10:23:03Z</time>
      </trkpt>
      <trkpt lat="42.46977" lon="2.22044">
        <ele>2098.7</ele>
        <time>2015-06-04T10:23:17Z</time>
      </trkpt>
      <trkpt lat="42.46977" lon="2.22053">
        <ele>2095.33</ele>
        <time>2015-06-04T10:23:27Z</time>
      </trkpt>
      <trkpt lat="42.46976" lon="2.22065">
        <ele>2092.93</ele>
        <time>2015-06-04T10:23:42Z</time>
      </trkpt>
      <trkpt lat="42.46965" lon="2.22076">
        <ele>2090.52</ele>
        <time>2015-06-04T10:23:59Z</time>
      </trkpt>
      <trkpt lat="42.46965" lon="2.22082">
        <ele>2088.12</ele>
        <time>2015-06-04T10:24:14Z</time>
      </trkpt>
      <trkpt lat="42.46967" lon="2.22091">
        <ele>2085.24</ele>
        <time>2015-06-04T10:24:28Z</time>
      </trkpt>
      <trkpt lat="42.46963" lon="2.22097">
        <ele>2082.83</ele>
        <time>2015-06-04T10:24:41Z</time>
      </trkpt>
      <trkpt lat="42.46959" lon="2.22102">
        <ele>2080.91</ele>
        <time>2015-06-04T10:24:52Z</time>
      </trkpt>
      <trkpt lat="42.46955" lon="2.22105">
        <ele>2078.99</ele>
        <time>2015-06-04T10:25:07Z</time>
      </trkpt>
      <trkpt lat="42.46954" lon="2.22105">
        <ele>2077.55</ele>
        <time>2015-06-04T10:25:23Z</time>
      </trkpt>
      <trkpt lat="42.46954" lon="2.22111">
        <ele>2076.1</ele>
        <time>2015-06-04T10:25:44Z</time>
      </trkpt>
      <trkpt lat="42.4695" lon="2.22117">
        <ele>2073.7</ele>
        <time>2015-06-04T10:25:57Z</time>
      </trkpt>
      <trkpt lat="42.46949" lon="2.22123">
        <ele>2071.3</ele>
        <time>2015-06-04T10:26:09Z</time>
      </trkpt>
      <trkpt lat="42.46948" lon="2.22132">
        <ele>2068.41</ele>
        <time>2015-06-04T10:26:23Z</time>
      </trkpt>
      <trkpt lat="42.46943" lon="2.22136">
        <ele>2066.01</ele>
        <time>2015-06-04T10:26:37Z</time>
      </trkpt>
      <trkpt lat="42.46939" lon="2.2214">
        <ele>2064.57</ele>
        <time>2015-06-04T10:26:50Z</time>
      </trkpt>
      <trkpt lat="42.46939" lon="2.2215">
        <ele>2062.17</ele>
        <time>2015-06-04T10:27:06Z</time>
      </trkpt>
      <trkpt lat="42.46935" lon="2.22152">
        <ele>2060.72</ele>
        <time>2015-06-04T10:27:21Z</time>
      </trkpt>
      <trkpt lat="42.46935" lon="2.22155">
        <ele>2059.76</ele>
        <time>2015-06-04T10:27:38Z</time>
      </trkpt>
      <trkpt lat="42.46931" lon="2.22162">
        <ele>2057.36</ele>
        <time>2015-06-04T10:27:54Z</time>
      </trkpt>
      <trkpt lat="42.46927" lon="2.2217">
        <ele>2055.44</ele>
        <time>2015-06-04T10:28:08Z</time>
      </trkpt>
      <trkpt lat="42.46926" lon="2.2217">
        <ele>2054.47</ele>
        <time>2015-06-04T10:28:23Z</time>
      </trkpt>
      <trkpt lat="42.46924" lon="2.22168">
        <ele>2053.99</ele>
        <time>2015-06-04T10:28:43Z</time>
      </trkpt>
      <trkpt lat="42.4692" lon="2.22177">
        <ele>2052.07</ele>
        <time>2015-06-04T10:28:59Z</time>
      </trkpt>
      <trkpt lat="42.46916" lon="2.22182">
        <ele>2050.15</ele>
        <time>2015-06-04T10:29:12Z</time>
      </trkpt>
      <trkpt lat="42.46916" lon="2.2219">
        <ele>2048.23</ele>
        <time>2015-06-04T10:29:25Z</time>
      </trkpt>
      <trkpt lat="42.46914" lon="2.22193">
        <ele>2046.3</ele>
        <time>2015-06-04T10:29:41Z</time>
      </trkpt>
      <trkpt lat="42.46911" lon="2.222">
        <ele>2044.38</ele>
        <time>2015-06-04T10:29:55Z</time>
      </trkpt>
      <trkpt lat="42.46907" lon="2.22204">
        <ele>2042.46</ele>
        <time>2015-06-04T10:30:08Z</time>
      </trkpt>
      <trkpt lat="42.46907" lon="2.22208">
        <ele>2040.54</ele>
        <time>2015-06-04T10:30:20Z</time>
      </trkpt>
      <trkpt lat="42.46909" lon="2.2221">
        <ele>2040.54</ele>
        <time>2015-06-04T10:30:24Z</time>
      </trkpt>
      <trkpt lat="42.46922" lon="2.22221">
        <ele>2037.65</ele>
        <time>2015-06-04T10:30:40Z</time>
      </trkpt>
      <trkpt lat="42.46918" lon="2.22227">
        <ele>2037.17</ele>
        <time>2015-06-04T10:30:48Z</time>
      </trkpt>
      <trkpt lat="42.46905" lon="2.22225">
        <ele>2034.29</ele>
        <time>2015-06-04T10:31:03Z</time>
      </trkpt>
      <trkpt lat="42.46902" lon="2.22225">
        <ele>2033.33</ele>
        <time>2015-06-04T10:31:17Z</time>
      </trkpt>
      <trkpt lat="42.469" lon="2.22227">
        <ele>2033.33</ele>
        <time>2015-06-04T10:31:35Z</time>
      </trkpt>
      <trkpt lat="42.46897" lon="2.22228">
        <ele>2032.84</ele>
        <time>2015-06-04T10:31:50Z</time>
      </trkpt>
      <trkpt lat="42.4689" lon="2.22231">
        <ele>2031.88</ele>
        <time>2015-06-04T10:32:05Z</time>
      </trkpt>
      <trkpt lat="42.46879" lon="2.22233">
        <ele>2029.48</ele>
        <time>2015-06-04T10:32:24Z</time>
      </trkpt>
      <trkpt lat="42.46867" lon="2.22235">
        <ele>2026.6</ele>
        <time>2015-06-04T10:32:37Z</time>
      </trkpt>
      <trkpt lat="42.46861" lon="2.22235">
        <ele>2025.64</ele>
        <time>2015-06-04T10:32:45Z</time>
      </trkpt>
      <trkpt lat="42.46848" lon="2.22237">
        <ele>2023.71</ele>
        <time>2015-06-04T10:33:02Z</time>
      </trkpt>
      <trkpt lat="42.46838" lon="2.2224">
        <ele>2021.79</ele>
        <time>2015-06-04T10:33:14Z</time>
      </trkpt>
      <trkpt lat="42.46827" lon="2.22245">
        <ele>2019.87</ele>
        <time>2015-06-04T10:33:29Z</time>
      </trkpt>
      <trkpt lat="42.46815" lon="2.22248">
        <ele>2018.43</ele>
        <time>2015-06-04T10:33:44Z</time>
      </trkpt>
      <trkpt lat="42.46804" lon="2.22248">
        <ele>2016.98</ele>
        <time>2015-06-04T10:33:59Z</time>
      </trkpt>
      <trkpt lat="42.46805" lon="2.22247">
        <ele>2016.5</ele>
        <time>2015-06-04T10:34:17Z</time>
      </trkpt>
      <trkpt lat="42.46806" lon="2.22253">
        <ele>2016.02</ele>
        <time>2015-06-04T10:34:33Z</time>
      </trkpt>
      <trkpt lat="42.46811" lon="2.22257">
        <ele>2014.1</ele>
        <time>2015-06-04T10:34:47Z</time>
      </trkpt>
      <trkpt lat="42.46807" lon="2.22257">
        <ele>2014.1</ele>
        <time>2015-06-04T10:35:02Z</time>
      </trkpt>
      <trkpt lat="42.46803" lon="2.22252">
        <ele>2015.54</ele>
        <time>2015-06-04T10:35:13Z</time>
      </trkpt>
      <trkpt lat="42.46802" lon="2.22251">
        <ele>2016.02</ele>
        <time>2015-06-04T10:35:27Z</time>
      </trkpt>
      <trkpt lat="42.468" lon="2.22255">
        <ele>2016.02</ele>
        <time>2015-06-04T10:35:56Z</time>
      </trkpt>
      <trkpt lat="42.468" lon="2.22255">
        <ele>2015.54</ele>
        <time>2015-06-04T10:36:24Z</time>
      </trkpt>
      <trkpt lat="42.468" lon="2.22257">
        <ele>2015.54</ele>
        <time>2015-06-04T10:36:44Z</time>
      </trkpt>
      <trkpt lat="42.468" lon="2.2226">
        <ele>2016.02</ele>
        <time>2015-06-04T10:37:13Z</time>
      </trkpt>
      <trkpt lat="42.46802" lon="2.22265">
        <ele>2016.02</ele>
        <time>2015-06-04T10:37:48Z</time>
      </trkpt>
      <trkpt lat="42.46801" lon="2.22262">
        <ele>2016.02</ele>
        <time>2015-06-04T10:38:17Z</time>
      </trkpt>
      <trkpt lat="42.46802" lon="2.22257">
        <ele>2016.02</ele>
        <time>2015-06-04T10:38:54Z</time>
      </trkpt>
      <trkpt lat="42.46802" lon="2.22251">
        <ele>2016.02</ele>
        <time>2015-06-04T10:39:28Z</time>
      </trkpt>
      <trkpt lat="42.46805" lon="2.2225">
        <ele>2015.54</ele>
        <time>2015-06-04T10:40:01Z</time>
      </trkpt>
      <trkpt lat="42.46802" lon="2.22249">
        <ele>2015.54</ele>
        <time>2015-06-04T10:40:24Z</time>
      </trkpt>
      <trkpt lat="42.46802" lon="2.22254">
        <ele>2015.54</ele>
        <time>2015-06-04T10:40:53Z</time>
      </trkpt>
      <trkpt lat="42.46802" lon="2.22253">
        <ele>2015.06</ele>
        <time>2015-06-04T10:41:23Z</time>
      </trkpt>
      <trkpt lat="42.46802" lon="2.22252">
        <ele>2015.06</ele>
        <time>2015-06-04T10:41:59Z</time>
      </trkpt>
      <trkpt lat="42.46803" lon="2.22249">
        <ele>2015.06</ele>
        <time>2015-06-04T10:42:36Z</time>
      </trkpt>
      <trkpt lat="42.46805" lon="2.22244">
        <ele>2015.06</ele>
        <time>2015-06-04T10:43:07Z</time>
      </trkpt>
      <trkpt lat="42.46806" lon="2.22246">
        <ele>2015.06</ele>
        <time>2015-06-04T10:43:39Z</time>
      </trkpt>
      <trkpt lat="42.46805" lon="2.22247">
        <ele>2015.06</ele>
        <time>2015-06-04T10:44:14Z</time>
      </trkpt>
      <trkpt lat="42.46805" lon="2.22251">
        <ele>2014.58</ele>
        <time>2015-06-04T10:44:45Z</time>
      </trkpt>
      <trkpt lat="42.46805" lon="2.22248">
        <ele>2014.1</ele>
        <time>2015-06-04T10:45:24Z</time>
      </trkpt>
      <trkpt lat="42.46803" lon="2.22253">
        <ele>2013.62</ele>
        <time>2015-06-04T10:46:02Z</time>
      </trkpt>
      <trkpt lat="42.46804" lon="2.2225">
        <ele>2013.14</ele>
        <time>2015-06-04T10:46:44Z</time>
      </trkpt>
      <trkpt lat="42.46802" lon="2.22255">
        <ele>2013.14</ele>
        <time>2015-06-04T10:47:23Z</time>
      </trkpt>
      <trkpt lat="42.46803" lon="2.22253">
        <ele>2012.66</ele>
        <time>2015-06-04T10:47:53Z</time>
      </trkpt>
      <trkpt lat="42.46803" lon="2.22247">
        <ele>2012.66</ele>
        <time>2015-06-04T10:48:22Z</time>
      </trkpt>
      <trkpt lat="42.46803" lon="2.22248">
        <ele>2012.18</ele>
        <time>2015-06-04T10:48:53Z</time>
      </trkpt>
      <trkpt lat="42.46805" lon="2.2225">
        <ele>2012.18</ele>
        <time>2015-06-04T10:49:24Z</time>
      </trkpt>
      <trkpt lat="42.46805" lon="2.22245">
        <ele>2012.18</ele>
        <time>2015-06-04T10:50:02Z</time>
      </trkpt>
      <trkpt lat="42.46805" lon="2.22244">
        <ele>2011.7</ele>
        <time>2015-06-04T10:50:29Z</time>
      </trkpt>
      <trkpt lat="42.46805" lon="2.2225">
        <ele>2011.7</ele>
        <time>2015-06-04T10:51:02Z</time>
      </trkpt>
      <trkpt lat="42.46802" lon="2.22245">
        <ele>2011.22</ele>
        <time>2015-06-04T10:51:32Z</time>
      </trkpt>
      <trkpt lat="42.46805" lon="2.22244">
        <ele>2011.22</ele>
        <time>2015-06-04T10:51:58Z</time>
      </trkpt>
      <trkpt lat="42.46804" lon="2.22245">
        <ele>2010.73</ele>
        <time>2015-06-04T10:52:26Z</time>
      </trkpt>
      <trkpt lat="42.46802" lon="2.22245">
        <ele>2010.73</ele>
        <time>2015-06-04T10:52:55Z</time>
      </trkpt>
      <trkpt lat="42.46801" lon="2.2225">
        <ele>2010.73</ele>
        <time>2015-06-04T10:53:23Z</time>
      </trkpt>
      <trkpt lat="42.468" lon="2.22254">
        <ele>2010.73</ele>
        <time>2015-06-04T10:53:49Z</time>
      </trkpt>
      <trkpt lat="42.46802" lon="2.22253">
        <ele>2010.73</ele>
        <time>2015-06-04T10:54:22Z</time>
      </trkpt>
      <trkpt lat="42.46803" lon="2.22253">
        <ele>2010.73</ele>
        <time>2015-06-04T10:54:50Z</time>
      </trkpt>
      <trkpt lat="42.46804" lon="2.22258">
        <ele>2010.73</ele>
        <time>2015-06-04T10:55:19Z</time>
      </trkpt>
      <trkpt lat="42.46802" lon="2.22255">
        <ele>2010.25</ele>
        <time>2015-06-04T10:55:44Z</time>
      </trkpt>
      <trkpt lat="42.46802" lon="2.22252">
        <ele>2010.25</ele>
        <time>2015-06-04T10:56:06Z</time>
      </trkpt>
      <trkpt lat="42.46801" lon="2.22253">
        <ele>2010.25</ele>
        <time>2015-06-04T10:56:34Z</time>
      </trkpt>
      <trkpt lat="42.46803" lon="2.22252">
        <ele>2010.25</ele>
        <time>2015-06-04T10:56:53Z</time>
      </trkpt>
      <trkpt lat="42.46803" lon="2.22248">
        <ele>2010.25</ele>
        <time>2015-06-04T10:57:20Z</time>
      </trkpt>
      <trkpt lat="42.46804" lon="2.22246">
        <ele>2010.25</ele>
        <time>2015-06-04T10:57:45Z</time>
      </trkpt>
      <trkpt lat="42.46803" lon="2.22248">
        <ele>2010.25</ele>
        <time>2015-06-04T10:58:15Z</time>
      </trkpt>
      <trkpt lat="42.46802" lon="2.22248">
        <ele>2010.25</ele>
        <time>2015-06-04T10:58:32Z</time>
      </trkpt>
      <trkpt lat="42.46805" lon="2.22247">
        <ele>2010.25</ele>
        <time>2015-06-04T10:58:56Z</time>
      </trkpt>
      <trkpt lat="42.46804" lon="2.22251">
        <ele>2010.25</ele>
        <time>2015-06-04T10:59:18Z</time>
      </trkpt>
      <trkpt lat="42.46807" lon="2.2226">
        <ele>2008.81</ele>
        <time>2015-06-04T10:59:29Z</time>
      </trkpt>
      <trkpt lat="42.46812" lon="2.22263">
        <ele>2007.85</ele>
        <time>2015-06-04T10:59:36Z</time>
      </trkpt>
      <trkpt lat="42.46821" lon="2.22268">
        <ele>2005.93</ele>
        <time>2015-06-04T10:59:49Z</time>
      </trkpt>
      <trkpt lat="42.46831" lon="2.22273">
        <ele>2004.49</ele>
        <time>2015-06-04T11:00:03Z</time>
      </trkpt>
      <trkpt lat="42.4684" lon="2.22283">
        <ele>2002.56</ele>
        <time>2015-06-04T11:00:18Z</time>
      </trkpt>
      <trkpt lat="42.46846" lon="2.22291">
        <ele>2001.6</ele>
        <time>2015-06-04T11:00:27Z</time>
      </trkpt>
      <trkpt lat="42.46848" lon="2.22293">
        <ele>2001.12</ele>
        <time>2015-06-04T11:00:30Z</time>
      </trkpt>
      <trkpt lat="42.46857" lon="2.22312">
        <ele>1999.2</ele>
        <time>2015-06-04T11:00:47Z</time>
      </trkpt>
      <trkpt lat="42.46859" lon="2.22315">
        <ele>1997.76</ele>
        <time>2015-06-04T11:00:51Z</time>
      </trkpt>
      <trkpt lat="42.4686" lon="2.22318">
        <ele>1997.76</ele>
        <time>2015-06-04T11:00:54Z</time>
      </trkpt>
      <trkpt lat="42.46867" lon="2.22337">
        <ele>1995.35</ele>
        <time>2015-06-04T11:01:10Z</time>
      </trkpt>
      <trkpt lat="42.46868" lon="2.22338">
        <ele>1995.35</ele>
        <time>2015-06-04T11:01:11Z</time>
      </trkpt>
      <trkpt lat="42.4687" lon="2.22342">
        <ele>1994.87</ele>
        <time>2015-06-04T11:01:15Z</time>
      </trkpt>
      <trkpt lat="42.46878" lon="2.22357">
        <ele>1991.51</ele>
        <time>2015-06-04T11:01:31Z</time>
      </trkpt>
      <trkpt lat="42.4688" lon="2.22361">
        <ele>1990.55</ele>
        <time>2015-06-04T11:01:35Z</time>
      </trkpt>
      <trkpt lat="42.46884" lon="2.22365">
        <ele>1990.07</ele>
        <time>2015-06-04T11:01:40Z</time>
      </trkpt>
      <trkpt lat="42.46891" lon="2.22375">
        <ele>1988.62</ele>
        <time>2015-06-04T11:01:54Z</time>
      </trkpt>
      <trkpt lat="42.46896" lon="2.2239">
        <ele>1987.66</ele>
        <time>2015-06-04T11:02:05Z</time>
      </trkpt>
      <trkpt lat="42.46899" lon="2.22398">
        <ele>1988.62</ele>
        <time>2015-06-04T11:02:12Z</time>
      </trkpt>
      <trkpt lat="42.46906" lon="2.2241">
        <ele>1985.26</ele>
        <time>2015-06-04T11:02:27Z</time>
      </trkpt>
      <trkpt lat="42.46914" lon="2.22428">
        <ele>1982.86</ele>
        <time>2015-06-04T11:02:43Z</time>
      </trkpt>
      <trkpt lat="42.46914" lon="2.22437">
        <ele>1981.9</ele>
        <time>2015-06-04T11:02:52Z</time>
      </trkpt>
      <trkpt lat="42.46917" lon="2.22455">
        <ele>1979.49</ele>
        <time>2015-06-04T11:03:06Z</time>
      </trkpt>
      <trkpt lat="42.46917" lon="2.22465">
        <ele>1978.53</ele>
        <time>2015-06-04T11:03:18Z</time>
      </trkpt>
      <trkpt lat="42.46916" lon="2.22463">
        <ele>1978.53</ele>
        <time>2015-06-04T11:03:35Z</time>
      </trkpt>
      <trkpt lat="42.46916" lon="2.22463">
        <ele>1978.05</ele>
        <time>2015-06-04T11:03:53Z</time>
      </trkpt>
      <trkpt lat="42.46919" lon="2.22486">
        <ele>1975.65</ele>
        <time>2015-06-04T11:04:09Z</time>
      </trkpt>
      <trkpt lat="42.4692" lon="2.225">
        <ele>1974.2</ele>
        <time>2015-06-04T11:04:18Z</time>
      </trkpt>
      <trkpt lat="42.46916" lon="2.22509">
        <ele>1972.76</ele>
        <time>2015-06-04T11:04:24Z</time>
      </trkpt>
      <trkpt lat="42.46914" lon="2.2251">
        <ele>1972.28</ele>
        <time>2015-06-04T11:04:26Z</time>
      </trkpt>
      <trkpt lat="42.46912" lon="2.22508">
        <ele>1971.8</ele>
        <time>2015-06-04T11:04:29Z</time>
      </trkpt>
      <trkpt lat="42.46907" lon="2.22489">
        <ele>1969.4</ele>
        <time>2015-06-04T11:04:45Z</time>
      </trkpt>
      <trkpt lat="42.46899" lon="2.2248">
        <ele>1967.96</ele>
        <time>2015-06-04T11:04:56Z</time>
      </trkpt>
      <trkpt lat="42.46895" lon="2.22469">
        <ele>1966.99</ele>
        <time>2015-06-04T11:05:05Z</time>
      </trkpt>
      <trkpt lat="42.46887" lon="2.22456">
        <ele>1965.07</ele>
        <time>2015-06-04T11:05:18Z</time>
      </trkpt>
      <trkpt lat="42.46886" lon="2.22455">
        <ele>1965.07</ele>
        <time>2015-06-04T11:05:19Z</time>
      </trkpt>
      <trkpt lat="42.46878" lon="2.22445">
        <ele>1963.15</ele>
        <time>2015-06-04T11:05:31Z</time>
      </trkpt>
      <trkpt lat="42.46864" lon="2.22449">
        <ele>1960.75</ele>
        <time>2015-06-04T11:05:45Z</time>
      </trkpt>
      <trkpt lat="42.4685" lon="2.22466">
        <ele>1958.34</ele>
        <time>2015-06-04T11:06:01Z</time>
      </trkpt>
      <trkpt lat="42.46847" lon="2.22471">
        <ele>1957.86</ele>
        <time>2015-06-04T11:06:05Z</time>
      </trkpt>
      <trkpt lat="42.46844" lon="2.22473">
        <ele>1957.38</ele>
        <time>2015-06-04T11:06:08Z</time>
      </trkpt>
      <trkpt lat="42.46835" lon="2.22481">
        <ele>1955.46</ele>
        <time>2015-06-04T11:06:17Z</time>
      </trkpt>
      <trkpt lat="42.4682" lon="2.22482">
        <ele>1954.5</ele>
        <time>2015-06-04T11:06:33Z</time>
      </trkpt>
      <trkpt lat="42.46814" lon="2.22478">
        <ele>1953.54</ele>
        <time>2015-06-04T11:06:41Z</time>
      </trkpt>
      <trkpt lat="42.4681" lon="2.22472">
        <ele>1952.57</ele>
        <time>2015-06-04T11:06:47Z</time>
      </trkpt>
      <trkpt lat="42.46802" lon="2.22455">
        <ele>1950.17</ele>
        <time>2015-06-04T11:07:01Z</time>
      </trkpt>
      <trkpt lat="42.46795" lon="2.22439">
        <ele>1947.77</ele>
        <time>2015-06-04T11:07:17Z</time>
      </trkpt>
      <trkpt lat="42.46781" lon="2.2243">
        <ele>1944.4</ele>
        <time>2015-06-04T11:07:34Z</time>
      </trkpt>
      <trkpt lat="42.46771" lon="2.22426">
        <ele>1942.96</ele>
        <time>2015-06-04T11:07:46Z</time>
      </trkpt>
      <trkpt lat="42.46769" lon="2.22424">
        <ele>1942.96</ele>
        <time>2015-06-04T11:07:48Z</time>
      </trkpt>
      <trkpt lat="42.46757" lon="2.22414">
        <ele>1940.56</ele>
        <time>2015-06-04T11:08:02Z</time>
      </trkpt>
      <trkpt lat="42.46751" lon="2.22406">
        <ele>1939.6</ele>
        <time>2015-06-04T11:08:11Z</time>
      </trkpt>
      <trkpt lat="42.46745" lon="2.22395">
        <ele>1938.16</ele>
        <time>2015-06-04T11:08:23Z</time>
      </trkpt>
      <trkpt lat="42.46744" lon="2.22403">
        <ele>1936.23</ele>
        <time>2015-06-04T11:08:36Z</time>
      </trkpt>
      <trkpt lat="42.46748" lon="2.22417">
        <ele>1933.83</ele>
        <time>2015-06-04T11:08:50Z</time>
      </trkpt>
      <trkpt lat="42.46752" lon="2.22428">
        <ele>1933.35</ele>
        <time>2015-06-04T11:08:59Z</time>
      </trkpt>
      <trkpt lat="42.4676" lon="2.22439">
        <ele>1931.43</ele>
        <time>2015-06-04T11:09:12Z</time>
      </trkpt>
      <trkpt lat="42.46761" lon="2.22441">
        <ele>1931.43</ele>
        <time>2015-06-04T11:09:14Z</time>
      </trkpt>
      <trkpt lat="42.46768" lon="2.22457">
        <ele>1929.5</ele>
        <time>2015-06-04T11:09:29Z</time>
      </trkpt>
      <trkpt lat="42.46769" lon="2.22461">
        <ele>1929.02</ele>
        <time>2015-06-04T11:09:33Z</time>
      </trkpt>
      <trkpt lat="42.4677" lon="2.22463">
        <ele>1928.54</ele>
        <time>2015-06-04T11:09:35Z</time>
      </trkpt>
      <trkpt lat="42.46772" lon="2.22479">
        <ele>1925.66</ele>
        <time>2015-06-04T11:09:50Z</time>
      </trkpt>
      <trkpt lat="42.46773" lon="2.22494">
        <ele>1923.74</ele>
        <time>2015-06-04T11:10:05Z</time>
      </trkpt>
      <trkpt lat="42.46773" lon="2.22497">
        <ele>1923.25</ele>
        <time>2015-06-04T11:10:08Z</time>
      </trkpt>
      <trkpt lat="42.46774" lon="2.22518">
        <ele>1921.33</ele>
        <time>2015-06-04T11:10:25Z</time>
      </trkpt>
      <trkpt lat="42.46782" lon="2.22529">
        <ele>1919.41</ele>
        <time>2015-06-04T11:10:39Z</time>
      </trkpt>
      <trkpt lat="42.46795" lon="2.22534">
        <ele>1917.01</ele>
        <time>2015-06-04T11:10:55Z</time>
      </trkpt>
      <trkpt lat="42.46805" lon="2.22538">
        <ele>1915.56</ele>
        <time>2015-06-04T11:11:07Z</time>
      </trkpt>
      <trkpt lat="42.46815" lon="2.22545">
        <ele>1913.64</ele>
        <time>2015-06-04T11:11:22Z</time>
      </trkpt>
      <trkpt lat="42.46812" lon="2.22551">
        <ele>1910.28</ele>
        <time>2015-06-04T11:11:37Z</time>
      </trkpt>
      <trkpt lat="42.46806" lon="2.22555">
        <ele>1907.87</ele>
        <time>2015-06-04T11:11:52Z</time>
      </trkpt>
      <trkpt lat="42.468" lon="2.22556">
        <ele>1905.47</ele>
        <time>2015-06-04T11:12:06Z</time>
      </trkpt>
      <trkpt lat="42.46793" lon="2.22563">
        <ele>1902.59</ele>
        <time>2015-06-04T11:12:18Z</time>
      </trkpt>
      <trkpt lat="42.46785" lon="2.22567">
        <ele>1899.22</ele>
        <time>2015-06-04T11:12:30Z</time>
      </trkpt>
      <trkpt lat="42.46779" lon="2.22576">
        <ele>1896.82</ele>
        <time>2015-06-04T11:12:43Z</time>
      </trkpt>
      <trkpt lat="42.46778" lon="2.22581">
        <ele>1893.93</ele>
        <time>2015-06-04T11:12:51Z</time>
      </trkpt>
      <trkpt lat="42.46771" lon="2.22589">
        <ele>1891.05</ele>
        <time>2015-06-04T11:13:05Z</time>
      </trkpt>
      <trkpt lat="42.46767" lon="2.22593">
        <ele>1889.61</ele>
        <time>2015-06-04T11:13:13Z</time>
      </trkpt>
      <trkpt lat="42.4676" lon="2.22598">
        <ele>1886.24</ele>
        <time>2015-06-04T11:13:26Z</time>
      </trkpt>
      <trkpt lat="42.46756" lon="2.22602">
        <ele>1883.84</ele>
        <time>2015-06-04T11:13:40Z</time>
      </trkpt>
      <trkpt lat="42.46749" lon="2.22604">
        <ele>1881.92</ele>
        <time>2015-06-04T11:13:53Z</time>
      </trkpt>
      <trkpt lat="42.46747" lon="2.22605">
        <ele>1880.96</ele>
        <time>2015-06-04T11:13:56Z</time>
      </trkpt>
      <trkpt lat="42.46734" lon="2.22603">
        <ele>1879.03</ele>
        <time>2015-06-04T11:14:08Z</time>
      </trkpt>
      <trkpt lat="42.46732" lon="2.22601">
        <ele>1878.55</ele>
        <time>2015-06-04T11:14:11Z</time>
      </trkpt>
      <trkpt lat="42.4673" lon="2.226">
        <ele>1878.55</ele>
        <time>2015-06-04T11:14:13Z</time>
      </trkpt>
      <trkpt lat="42.46719" lon="2.22584">
        <ele>1876.15</ele>
        <time>2015-06-04T11:14:30Z</time>
      </trkpt>
      <trkpt lat="42.4671" lon="2.22568">
        <ele>1874.23</ele>
        <time>2015-06-04T11:14:47Z</time>
      </trkpt>
      <trkpt lat="42.46707" lon="2.22565">
        <ele>1873.75</ele>
        <time>2015-06-04T11:14:52Z</time>
      </trkpt>
      <trkpt lat="42.467" lon="2.22561">
        <ele>1872.3</ele>
        <time>2015-06-04T11:15:01Z</time>
      </trkpt>
      <trkpt lat="42.46692" lon="2.22547">
        <ele>1870.86</ele>
        <time>2015-06-04T11:15:13Z</time>
      </trkpt>
      <trkpt lat="42.46684" lon="2.22545">
        <ele>1868.94</ele>
        <time>2015-06-04T11:15:20Z</time>
      </trkpt>
      <trkpt lat="42.46679" lon="2.22546">
        <ele>1868.46</ele>
        <time>2015-06-04T11:15:25Z</time>
      </trkpt>
      <trkpt lat="42.46664" lon="2.22537">
        <ele>1866.06</ele>
        <time>2015-06-04T11:15:41Z</time>
      </trkpt>
      <trkpt lat="42.46664" lon="2.22536">
        <ele>1865.58</ele>
        <time>2015-06-04T11:15:42Z</time>
      </trkpt>
      <trkpt lat="42.46657" lon="2.22524">
        <ele>1863.17</ele>
        <time>2015-06-04T11:15:56Z</time>
      </trkpt>
      <trkpt lat="42.46655" lon="2.22514">
        <ele>1862.21</ele>
        <time>2015-06-04T11:16:11Z</time>
      </trkpt>
      <trkpt lat="42.46652" lon="2.22521">
        <ele>1861.25</ele>
        <time>2015-06-04T11:16:34Z</time>
      </trkpt>
      <trkpt lat="42.46653" lon="2.2252">
        <ele>1861.25</ele>
        <time>2015-06-04T11:16:47Z</time>
      </trkpt>
      <trkpt lat="42.46645" lon="2.22515">
        <ele>1860.29</ele>
        <time>2015-06-04T11:16:55Z</time>
      </trkpt>
      <trkpt lat="42.46636" lon="2.22508">
        <ele>1859.33</ele>
        <time>2015-06-04T11:17:06Z</time>
      </trkpt>
      <trkpt lat="42.46624" lon="2.225">
        <ele>1856.92</ele>
        <time>2015-06-04T11:17:21Z</time>
      </trkpt>
      <trkpt lat="42.46624" lon="2.22499">
        <ele>1856.92</ele>
        <time>2015-06-04T11:17:22Z</time>
      </trkpt>
      <trkpt lat="42.46615" lon="2.22494">
        <ele>1855</ele>
        <time>2015-06-04T11:17:36Z</time>
      </trkpt>
      <trkpt lat="42.4661" lon="2.22494">
        <ele>1854.52</ele>
        <time>2015-06-04T11:17:41Z</time>
      </trkpt>
      <trkpt lat="42.46608" lon="2.22493">
        <ele>1854.04</ele>
        <time>2015-06-04T11:17:43Z</time>
      </trkpt>
      <trkpt lat="42.46599" lon="2.22484">
        <ele>1852.12</ele>
        <time>2015-06-04T11:17:54Z</time>
      </trkpt>
      <trkpt lat="42.4659" lon="2.22475">
        <ele>1850.68</ele>
        <time>2015-06-04T11:18:06Z</time>
      </trkpt>
      <trkpt lat="42.46583" lon="2.22477">
        <ele>1848.75</ele>
        <time>2015-06-04T11:18:16Z</time>
      </trkpt>
      <trkpt lat="42.46583" lon="2.22479">
        <ele>1848.75</ele>
        <time>2015-06-04T11:18:17Z</time>
      </trkpt>
      <trkpt lat="42.46583" lon="2.22495">
        <ele>1846.83</ele>
        <time>2015-06-04T11:18:29Z</time>
      </trkpt>
      <trkpt lat="42.46577" lon="2.22509">
        <ele>1844.91</ele>
        <time>2015-06-04T11:18:43Z</time>
      </trkpt>
      <trkpt lat="42.46564" lon="2.22501">
        <ele>1843.95</ele>
        <time>2015-06-04T11:18:57Z</time>
      </trkpt>
      <trkpt lat="42.46552" lon="2.22493">
        <ele>1842.02</ele>
        <time>2015-06-04T11:19:12Z</time>
      </trkpt>
      <trkpt lat="42.46541" lon="2.22482">
        <ele>1840.1</ele>
        <time>2015-06-04T11:19:27Z</time>
      </trkpt>
      <trkpt lat="42.46529" lon="2.2247">
        <ele>1838.66</ele>
        <time>2015-06-04T11:19:43Z</time>
      </trkpt>
      <trkpt lat="42.46526" lon="2.22468">
        <ele>1838.66</ele>
        <time>2015-06-04T11:19:47Z</time>
      </trkpt>
      <trkpt lat="42.46514" lon="2.22454">
        <ele>1839.14</ele>
        <time>2015-06-04T11:20:03Z</time>
      </trkpt>
      <trkpt lat="42.4651" lon="2.22447">
        <ele>1838.18</ele>
        <time>2015-06-04T11:20:09Z</time>
      </trkpt>
      <trkpt lat="42.46502" lon="2.22438">
        <ele>1837.7</ele>
        <time>2015-06-04T11:20:22Z</time>
      </trkpt>
      <trkpt lat="42.46501" lon="2.22438">
        <ele>1837.7</ele>
        <time>2015-06-04T11:20:23Z</time>
      </trkpt>
      <trkpt lat="42.46496" lon="2.2242">
        <ele>1837.7</ele>
        <time>2015-06-04T11:20:40Z</time>
      </trkpt>
      <trkpt lat="42.46493" lon="2.22415">
        <ele>1837.22</ele>
        <time>2015-06-04T11:20:53Z</time>
      </trkpt>
      <trkpt lat="42.46485" lon="2.224">
        <ele>1836.74</ele>
        <time>2015-06-04T11:21:09Z</time>
      </trkpt>
      <trkpt lat="42.46484" lon="2.22398">
        <ele>1836.74</ele>
        <time>2015-06-04T11:21:10Z</time>
      </trkpt>
      <trkpt lat="42.46479" lon="2.22396">
        <ele>1836.74</ele>
        <time>2015-06-04T11:21:16Z</time>
      </trkpt>
      <trkpt lat="42.46473" lon="2.22393">
        <ele>1838.18</ele>
        <time>2015-06-04T11:21:23Z</time>
      </trkpt>
      <trkpt lat="42.4647" lon="2.22393">
        <ele>1838.66</ele>
        <time>2015-06-04T11:21:26Z</time>
      </trkpt>
      <trkpt lat="42.46468" lon="2.22392">
        <ele>1838.66</ele>
        <time>2015-06-04T11:21:29Z</time>
      </trkpt>
      <trkpt lat="42.46461" lon="2.22393">
        <ele>1839.14</ele>
        <time>2015-06-04T11:21:37Z</time>
      </trkpt>
      <trkpt lat="42.46459" lon="2.22394">
        <ele>1839.14</ele>
        <time>2015-06-04T11:21:39Z</time>
      </trkpt>
      <trkpt lat="42.46452" lon="2.22396">
        <ele>1840.1</ele>
        <time>2015-06-04T11:21:49Z</time>
      </trkpt>
      <trkpt lat="42.46442" lon="2.22398">
        <ele>1840.1</ele>
        <time>2015-06-04T11:22:02Z</time>
      </trkpt>
      <trkpt lat="42.46441" lon="2.22398">
        <ele>1840.58</ele>
        <time>2015-06-04T11:22:04Z</time>
      </trkpt>
      <trkpt lat="42.46433" lon="2.22388">
        <ele>1841.54</ele>
        <time>2015-06-04T11:22:19Z</time>
      </trkpt>
      <trkpt lat="42.46434" lon="2.22378">
        <ele>1841.54</ele>
        <time>2015-06-04T11:22:32Z</time>
      </trkpt>
      <trkpt lat="42.46435" lon="2.22374">
        <ele>1841.54</ele>
        <time>2015-06-04T11:22:49Z</time>
      </trkpt>
      <trkpt lat="42.46434" lon="2.22381">
        <ele>1841.54</ele>
        <time>2015-06-04T11:23:05Z</time>
      </trkpt>
      <trkpt lat="42.46438" lon="2.22384">
        <ele>1841.54</ele>
        <time>2015-06-04T11:23:20Z</time>
      </trkpt>
      <trkpt lat="42.46439" lon="2.22387">
        <ele>1841.54</ele>
        <time>2015-06-04T11:23:43Z</time>
      </trkpt>
      <trkpt lat="42.46434" lon="2.22382">
        <ele>1841.54</ele>
        <time>2015-06-04T11:23:55Z</time>
      </trkpt>
      <trkpt lat="42.46435" lon="2.22376">
        <ele>1841.54</ele>
        <time>2015-06-04T11:24:07Z</time>
      </trkpt>
      <trkpt lat="42.46437" lon="2.2238">
        <ele>1839.62</ele>
        <time>2015-06-04T11:24:19Z</time>
      </trkpt>
      <trkpt lat="42.46437" lon="2.2239">
        <ele>1839.62</ele>
        <time>2015-06-04T11:24:43Z</time>
      </trkpt>
      <trkpt lat="42.46436" lon="2.22394">
        <ele>1839.14</ele>
        <time>2015-06-04T11:25:04Z</time>
      </trkpt>
      <trkpt lat="42.46439" lon="2.22376">
        <ele>1841.06</ele>
        <time>2015-06-04T11:25:25Z</time>
      </trkpt>
      <trkpt lat="42.4644" lon="2.22383">
        <ele>1842.5</ele>
        <time>2015-06-04T11:25:45Z</time>
      </trkpt>
      <trkpt lat="42.46442" lon="2.2239">
        <ele>1842.98</ele>
        <time>2015-06-04T11:26:09Z</time>
      </trkpt>
      <trkpt lat="42.46439" lon="2.22391">
        <ele>1841.06</ele>
        <time>2015-06-04T11:26:25Z</time>
      </trkpt>
      <trkpt lat="42.46439" lon="2.22392">
        <ele>1842.98</ele>
        <time>2015-06-04T11:26:27Z</time>
      </trkpt>
      <trkpt lat="42.4644" lon="2.22396">
        <ele>1841.54</ele>
        <time>2015-06-04T11:26:50Z</time>
      </trkpt>
      <trkpt lat="42.4644" lon="2.22399">
        <ele>1841.06</ele>
        <time>2015-06-04T11:27:07Z</time>
      </trkpt>
      <trkpt lat="42.46442" lon="2.22401">
        <ele>1841.06</ele>
        <time>2015-06-04T11:27:38Z</time>
      </trkpt>
      <trkpt lat="42.46442" lon="2.224">
        <ele>1840.58</ele>
        <time>2015-06-04T11:28:00Z</time>
      </trkpt>
      <trkpt lat="42.4644" lon="2.22408">
        <ele>1840.58</ele>
        <time>2015-06-04T11:28:21Z</time>
      </trkpt>
      <trkpt lat="42.46437" lon="2.2241">
        <ele>1840.58</ele>
        <time>2015-06-04T11:28:40Z</time>
      </trkpt>
      <trkpt lat="42.46438" lon="2.22402">
        <ele>1840.58</ele>
        <time>2015-06-04T11:29:00Z</time>
      </trkpt>
      <trkpt lat="42.46439" lon="2.22395">
        <ele>1840.1</ele>
        <time>2015-06-04T11:29:24Z</time>
      </trkpt>
      <trkpt lat="42.46438" lon="2.22394">
        <ele>1840.1</ele>
        <time>2015-06-04T11:29:53Z</time>
      </trkpt>
      <trkpt lat="42.46439" lon="2.22383">
        <ele>1840.1</ele>
        <time>2015-06-04T11:30:13Z</time>
      </trkpt>
      <trkpt lat="42.46443" lon="2.22373">
        <ele>1838.66</ele>
        <time>2015-06-04T11:30:32Z</time>
      </trkpt>
      <trkpt lat="42.46433" lon="2.22357">
        <ele>1838.18</ele>
        <time>2015-06-04T11:30:55Z</time>
      </trkpt>
      <trkpt lat="42.46429" lon="2.22369">
        <ele>1837.7</ele>
        <time>2015-06-04T11:31:23Z</time>
      </trkpt>
      <trkpt lat="42.46432" lon="2.22375">
        <ele>1837.7</ele>
        <time>2015-06-04T11:31:46Z</time>
      </trkpt>
      <trkpt lat="42.46437" lon="2.22371">
        <ele>1837.22</ele>
        <time>2015-06-04T11:32:02Z</time>
      </trkpt>
      <trkpt lat="42.46451" lon="2.22382">
        <ele>1837.22</ele>
        <time>2015-06-04T11:32:25Z</time>
      </trkpt>
      <trkpt lat="42.46443" lon="2.22377">
        <ele>1837.22</ele>
        <time>2015-06-04T11:32:33Z</time>
      </trkpt>
      <trkpt lat="42.46347" lon="2.22464">
        <ele>1837.22</ele>
        <time>2015-06-04T11:35:18Z</time>
      </trkpt>
      <trkpt lat="42.46348" lon="2.22457">
        <ele>1837.22</ele>
        <time>2015-06-04T11:35:46Z</time>
      </trkpt>
      <trkpt lat="42.46339" lon="2.22443">
        <ele>1837.22</ele>
        <time>2015-06-04T11:36:03Z</time>
      </trkpt>
      <trkpt lat="42.46398" lon="2.22417">
        <ele>1837.22</ele>
        <time>2015-06-04T11:36:26Z</time>
      </trkpt>
      <trkpt lat="42.46396" lon="2.22417">
        <ele>1836.74</ele>
        <time>2015-06-04T11:36:49Z</time>
      </trkpt>
      <trkpt lat="42.46419" lon="2.2239">
        <ele>1837.7</ele>
        <time>2015-06-04T11:37:04Z</time>
      </trkpt>
      <trkpt lat="42.46428" lon="2.22385">
        <ele>1837.7</ele>
        <time>2015-06-04T11:37:23Z</time>
      </trkpt>
      <trkpt lat="42.46434" lon="2.22379">
        <ele>1837.22</ele>
        <time>2015-06-04T11:37:41Z</time>
      </trkpt>
      <trkpt lat="42.4643" lon="2.22379">
        <ele>1837.22</ele>
        <time>2015-06-04T11:38:03Z</time>
      </trkpt>
      <trkpt lat="42.4642" lon="2.22382">
        <ele>1837.22</ele>
        <time>2015-06-04T11:38:23Z</time>
      </trkpt>
      <trkpt lat="42.46429" lon="2.22372">
        <ele>1837.7</ele>
        <time>2015-06-04T11:38:45Z</time>
      </trkpt>
      <trkpt lat="42.4643" lon="2.22373">
        <ele>1837.7</ele>
        <time>2015-06-04T11:39:00Z</time>
      </trkpt>
      <trkpt lat="42.46441" lon="2.22375">
        <ele>1837.7</ele>
        <time>2015-06-04T11:39:19Z</time>
      </trkpt>
      <trkpt lat="42.46439" lon="2.2238">
        <ele>1837.7</ele>
        <time>2015-06-04T11:39:45Z</time>
      </trkpt>
      <trkpt lat="42.46439" lon="2.22379">
        <ele>1837.7</ele>
        <time>2015-06-04T11:40:10Z</time>
      </trkpt>
      <trkpt lat="42.4644" lon="2.2238">
        <ele>1837.7</ele>
        <time>2015-06-04T11:40:37Z</time>
      </trkpt>
      <trkpt lat="42.46434" lon="2.22376">
        <ele>1837.7</ele>
        <time>2015-06-04T11:41:01Z</time>
      </trkpt>
      <trkpt lat="42.46436" lon="2.2238">
        <ele>1837.7</ele>
        <time>2015-06-04T11:41:34Z</time>
      </trkpt>
      <trkpt lat="42.46434" lon="2.22378">
        <ele>1836.74</ele>
        <time>2015-06-04T11:41:53Z</time>
      </trkpt>
      <trkpt lat="42.46436" lon="2.22382">
        <ele>1836.74</ele>
        <time>2015-06-04T11:42:16Z</time>
      </trkpt>
      <trkpt lat="42.46435" lon="2.22377">
        <ele>1836.74</ele>
        <time>2015-06-04T11:42:37Z</time>
      </trkpt>
      <trkpt lat="42.46436" lon="2.22375">
        <ele>1836.74</ele>
        <time>2015-06-04T11:42:58Z</time>
      </trkpt>
      <trkpt lat="42.46425" lon="2.2238">
        <ele>1836.74</ele>
        <time>2015-06-04T11:43:12Z</time>
      </trkpt>
      <trkpt lat="42.46418" lon="2.22378">
        <ele>1836.26</ele>
        <time>2015-06-04T11:43:22Z</time>
      </trkpt>
      <trkpt lat="42.46417" lon="2.22376">
        <ele>1836.26</ele>
        <time>2015-06-04T11:43:41Z</time>
      </trkpt>
      <trkpt lat="42.46423" lon="2.22376">
        <ele>1836.26</ele>
        <time>2015-06-04T11:43:53Z</time>
      </trkpt>
      <trkpt lat="42.4643" lon="2.22384">
        <ele>1836.26</ele>
        <time>2015-06-04T11:44:06Z</time>
      </trkpt>
      <trkpt lat="42.46432" lon="2.22382">
        <ele>1837.22</ele>
        <time>2015-06-04T11:44:15Z</time>
      </trkpt>
      <trkpt lat="42.46436" lon="2.2238">
        <ele>1837.22</ele>
        <time>2015-06-04T11:44:27Z</time>
      </trkpt>
      <trkpt lat="42.46441" lon="2.22385">
        <ele>1837.22</ele>
        <time>2015-06-04T11:44:50Z</time>
      </trkpt>
      <trkpt lat="42.46441" lon="2.22384">
        <ele>1837.22</ele>
        <time>2015-06-04T11:45:21Z</time>
      </trkpt>
      <trkpt lat="42.46437" lon="2.22378">
        <ele>1837.22</ele>
        <time>2015-06-04T11:45:54Z</time>
      </trkpt>
      <trkpt lat="42.46439" lon="2.22392">
        <ele>1837.22</ele>
        <time>2015-06-04T11:46:27Z</time>
      </trkpt>
      <trkpt lat="42.46432" lon="2.22394">
        <ele>1837.22</ele>
        <time>2015-06-04T11:46:59Z</time>
      </trkpt>
      <trkpt lat="42.46439" lon="2.22381">
        <ele>1837.22</ele>
        <time>2015-06-04T11:47:22Z</time>
      </trkpt>
      <trkpt lat="42.46438" lon="2.22379">
        <ele>1837.22</ele>
        <time>2015-06-04T11:47:40Z</time>
      </trkpt>
      <trkpt lat="42.46439" lon="2.22383">
        <ele>1837.22</ele>
        <time>2015-06-04T11:48:15Z</time>
      </trkpt>
      <trkpt lat="42.46437" lon="2.22381">
        <ele>1837.22</ele>
        <time>2015-06-04T11:48:43Z</time>
      </trkpt>
      <trkpt lat="42.46438" lon="2.22383">
        <ele>1837.22</ele>
        <time>2015-06-04T11:49:01Z</time>
      </trkpt>
      <trkpt lat="42.4644" lon="2.22382">
        <ele>1836.74</ele>
        <time>2015-06-04T11:49:30Z</time>
      </trkpt>
      <trkpt lat="42.4644" lon="2.2238">
        <ele>1836.74</ele>
        <time>2015-06-04T11:49:58Z</time>
      </trkpt>
      <trkpt lat="42.4644" lon="2.22384">
        <ele>1836.74</ele>
        <time>2015-06-04T11:50:31Z</time>
      </trkpt>
      <trkpt lat="42.46439" lon="2.22384">
        <ele>1836.74</ele>
        <time>2015-06-04T11:51:00Z</time>
      </trkpt>
      <trkpt lat="42.46439" lon="2.22383">
        <ele>1836.74</ele>
        <time>2015-06-04T11:51:36Z</time>
      </trkpt>
      <trkpt lat="42.46439" lon="2.22383">
        <ele>1836.74</ele>
        <time>2015-06-04T11:52:08Z</time>
      </trkpt>
      <trkpt lat="42.46436" lon="2.22381">
        <ele>1836.26</ele>
        <time>2015-06-04T11:52:48Z</time>
      </trkpt>
      <trkpt lat="42.46432" lon="2.22376">
        <ele>1836.26</ele>
        <time>2015-06-04T11:53:13Z</time>
      </trkpt>
      <trkpt lat="42.46435" lon="2.22378">
        <ele>1836.74</ele>
        <time>2015-06-04T11:53:41Z</time>
      </trkpt>
      <trkpt lat="42.4644" lon="2.22381">
        <ele>1836.74</ele>
        <time>2015-06-04T11:54:07Z</time>
      </trkpt>
      <trkpt lat="42.46442" lon="2.22381">
        <ele>1836.74</ele>
        <time>2015-06-04T11:54:44Z</time>
      </trkpt>
      <trkpt lat="42.46439" lon="2.22379">
        <ele>1835.77</ele>
        <time>2015-06-04T11:55:05Z</time>
      </trkpt>
      <trkpt lat="42.46433" lon="2.22375">
        <ele>1835.77</ele>
        <time>2015-06-04T11:55:32Z</time>
      </trkpt>
      <trkpt lat="42.46436" lon="2.2238">
        <ele>1835.77</ele>
        <time>2015-06-04T11:55:52Z</time>
      </trkpt>
      <trkpt lat="42.46434" lon="2.22381">
        <ele>1835.77</ele>
        <time>2015-06-04T11:56:06Z</time>
      </trkpt>
      <trkpt lat="42.46433" lon="2.22382">
        <ele>1835.77</ele>
        <time>2015-06-04T11:56:08Z</time>
      </trkpt>
      <trkpt lat="42.46434" lon="2.22385">
        <ele>1835.77</ele>
        <time>2015-06-04T11:56:20Z</time>
      </trkpt>
      <trkpt lat="42.46434" lon="2.22386">
        <ele>1835.77</ele>
        <time>2015-06-04T11:56:42Z</time>
      </trkpt>
      <trkpt lat="42.46444" lon="2.22384">
        <ele>1835.29</ele>
        <time>2015-06-04T11:57:05Z</time>
      </trkpt>
      <trkpt lat="42.46448" lon="2.22398">
        <ele>1835.29</ele>
        <time>2015-06-04T11:57:23Z</time>
      </trkpt>
      <trkpt lat="42.46448" lon="2.224">
        <ele>1834.81</ele>
        <time>2015-06-04T11:57:38Z</time>
      </trkpt>
      <trkpt lat="42.46443" lon="2.22394">
        <ele>1834.81</ele>
        <time>2015-06-04T11:57:55Z</time>
      </trkpt>
      <trkpt lat="42.46435" lon="2.22389">
        <ele>1834.81</ele>
        <time>2015-06-04T11:58:07Z</time>
      </trkpt>
      <trkpt lat="42.46435" lon="2.22388">
        <ele>1834.81</ele>
        <time>2015-06-04T11:58:27Z</time>
      </trkpt>
      <trkpt lat="42.46435" lon="2.22394">
        <ele>1835.77</ele>
        <time>2015-06-04T11:58:43Z</time>
      </trkpt>
      <trkpt lat="42.46439" lon="2.22395">
        <ele>1835.77</ele>
        <time>2015-06-04T11:58:45Z</time>
      </trkpt>
      <trkpt lat="42.46445" lon="2.22398">
        <ele>1834.81</ele>
        <time>2015-06-04T11:58:49Z</time>
      </trkpt>
      <trkpt lat="42.46445" lon="2.22404">
        <ele>1834.81</ele>
        <time>2015-06-04T11:58:54Z</time>
      </trkpt>
      <trkpt lat="42.46448" lon="2.22411">
        <ele>1834.33</ele>
        <time>2015-06-04T11:58:59Z</time>
      </trkpt>
      <trkpt lat="42.46451" lon="2.22415">
        <ele>1834.33</ele>
        <time>2015-06-04T11:59:03Z</time>
      </trkpt>
      <trkpt lat="42.46454" lon="2.22416">
        <ele>1834.33</ele>
        <time>2015-06-04T11:59:06Z</time>
      </trkpt>
      <trkpt lat="42.46459" lon="2.22425">
        <ele>1834.33</ele>
        <time>2015-06-04T11:59:15Z</time>
      </trkpt>
      <trkpt lat="42.46463" lon="2.22435">
        <ele>1833.37</ele>
        <time>2015-06-04T11:59:25Z</time>
      </trkpt>
      <trkpt lat="42.46468" lon="2.2244">
        <ele>1831.93</ele>
        <time>2015-06-04T11:59:34Z</time>
      </trkpt>
      <trkpt lat="42.46467" lon="2.22444">
        <ele>1831.45</ele>
        <time>2015-06-04T11:59:37Z</time>
      </trkpt>
      <trkpt lat="42.46472" lon="2.22453">
        <ele>1830.97</ele>
        <time>2015-06-04T11:59:49Z</time>
      </trkpt>
      <trkpt lat="42.46473" lon="2.22457">
        <ele>1829.53</ele>
        <time>2015-06-04T11:59:52Z</time>
      </trkpt>
      <trkpt lat="42.46475" lon="2.2246">
        <ele>1829.53</ele>
        <time>2015-06-04T11:59:55Z</time>
      </trkpt>
      <trkpt lat="42.4648" lon="2.22473">
        <ele>1829.53</ele>
        <time>2015-06-04T12:00:09Z</time>
      </trkpt>
      <trkpt lat="42.46484" lon="2.22476">
        <ele>1829.53</ele>
        <time>2015-06-04T12:00:15Z</time>
      </trkpt>
      <trkpt lat="42.46487" lon="2.22478">
        <ele>1829.05</ele>
        <time>2015-06-04T12:00:27Z</time>
      </trkpt>
      <trkpt lat="42.46494" lon="2.2248">
        <ele>1827.6</ele>
        <time>2015-06-04T12:00:41Z</time>
      </trkpt>
      <trkpt lat="42.46486" lon="2.22477">
        <ele>1827.6</ele>
        <time>2015-06-04T12:00:59Z</time>
      </trkpt>
      <trkpt lat="42.46487" lon="2.22471">
        <ele>1827.6</ele>
        <time>2015-06-04T12:01:14Z</time>
      </trkpt>
      <trkpt lat="42.46489" lon="2.22471">
        <ele>1827.6</ele>
        <time>2015-06-04T12:01:35Z</time>
      </trkpt>
      <trkpt lat="42.46491" lon="2.22474">
        <ele>1827.12</ele>
        <time>2015-06-04T12:01:53Z</time>
      </trkpt>
      <trkpt lat="42.46491" lon="2.22473">
        <ele>1826.16</ele>
        <time>2015-06-04T12:02:20Z</time>
      </trkpt>
      <trkpt lat="42.4649" lon="2.22475">
        <ele>1826.16</ele>
        <time>2015-06-04T12:02:53Z</time>
      </trkpt>
      <trkpt lat="42.4649" lon="2.22475">
        <ele>1826.16</ele>
        <time>2015-06-04T12:03:20Z</time>
      </trkpt>
      <trkpt lat="42.4649" lon="2.22477">
        <ele>1826.16</ele>
        <time>2015-06-04T12:03:43Z</time>
      </trkpt>
      <trkpt lat="42.46489" lon="2.22479">
        <ele>1827.12</ele>
        <time>2015-06-04T12:03:46Z</time>
      </trkpt>
      <trkpt lat="42.46481" lon="2.22483">
        <ele>1828.56</ele>
        <time>2015-06-04T12:03:58Z</time>
      </trkpt>
      <trkpt lat="42.46475" lon="2.22481">
        <ele>1829.05</ele>
        <time>2015-06-04T12:04:05Z</time>
      </trkpt>
      <trkpt lat="42.46469" lon="2.22467">
        <ele>1829.53</ele>
        <time>2015-06-04T12:04:18Z</time>
      </trkpt>
      <trkpt lat="42.46467" lon="2.22465">
        <ele>1829.53</ele>
        <time>2015-06-04T12:04:20Z</time>
      </trkpt>
      <trkpt lat="42.46465" lon="2.22464">
        <ele>1829.53</ele>
        <time>2015-06-04T12:04:23Z</time>
      </trkpt>
      <trkpt lat="42.46459" lon="2.22452">
        <ele>1830.01</ele>
        <time>2015-06-04T12:04:37Z</time>
      </trkpt>
      <trkpt lat="42.46458" lon="2.22446">
        <ele>1830.49</ele>
        <time>2015-06-04T12:04:41Z</time>
      </trkpt>
      <trkpt lat="42.46457" lon="2.22437">
        <ele>1831.45</ele>
        <time>2015-06-04T12:04:51Z</time>
      </trkpt>
      <trkpt lat="42.46447" lon="2.22424">
        <ele>1832.89</ele>
        <time>2015-06-04T12:05:07Z</time>
      </trkpt>
      <trkpt lat="42.46446" lon="2.22424">
        <ele>1832.89</ele>
        <time>2015-06-04T12:05:08Z</time>
      </trkpt>
      <trkpt lat="42.46443" lon="2.22422">
        <ele>1832.89</ele>
        <time>2015-06-04T12:05:11Z</time>
      </trkpt>
      <trkpt lat="42.46439" lon="2.22407">
        <ele>1833.37</ele>
        <time>2015-06-04T12:05:24Z</time>
      </trkpt>
      <trkpt lat="42.46436" lon="2.2239">
        <ele>1833.37</ele>
        <time>2015-06-04T12:05:38Z</time>
      </trkpt>
      <trkpt lat="42.46434" lon="2.22387">
        <ele>1833.37</ele>
        <time>2015-06-04T12:05:43Z</time>
      </trkpt>
      <trkpt lat="42.46435" lon="2.22379">
        <ele>1833.85</ele>
        <time>2015-06-04T12:05:56Z</time>
      </trkpt>
      <trkpt lat="42.46436" lon="2.2238">
        <ele>1833.85</ele>
        <time>2015-06-04T12:06:12Z</time>
      </trkpt>
      <trkpt lat="42.46434" lon="2.22381">
        <ele>1833.85</ele>
        <time>2015-06-04T12:06:28Z</time>
      </trkpt>
      <trkpt lat="42.46433" lon="2.22379">
        <ele>1833.85</ele>
        <time>2015-06-04T12:06:46Z</time>
      </trkpt>
      <trkpt lat="42.46434" lon="2.22377">
        <ele>1833.85</ele>
        <time>2015-06-04T12:07:01Z</time>
      </trkpt>
      <trkpt lat="42.46436" lon="2.22375">
        <ele>1833.85</ele>
        <time>2015-06-04T12:07:16Z</time>
      </trkpt>
      <trkpt lat="42.46433" lon="2.22374">
        <ele>1834.33</ele>
        <time>2015-06-04T12:07:29Z</time>
      </trkpt>
      <trkpt lat="42.46423" lon="2.22377">
        <ele>1834.33</ele>
        <time>2015-06-04T12:07:39Z</time>
      </trkpt>
      <trkpt lat="42.46412" lon="2.22372">
        <ele>1834.33</ele>
        <time>2015-06-04T12:07:53Z</time>
      </trkpt>
      <trkpt lat="42.46405" lon="2.22368">
        <ele>1835.29</ele>
        <time>2015-06-04T12:08:06Z</time>
      </trkpt>
      <trkpt lat="42.46396" lon="2.22364">
        <ele>1835.29</ele>
        <time>2015-06-04T12:08:20Z</time>
      </trkpt>
      <trkpt lat="42.46395" lon="2.22365">
        <ele>1835.29</ele>
        <time>2015-06-04T12:08:22Z</time>
      </trkpt>
      <trkpt lat="42.46382" lon="2.22367">
        <ele>1835.77</ele>
        <time>2015-06-04T12:08:36Z</time>
      </trkpt>
      <trkpt lat="42.46371" lon="2.22364">
        <ele>1835.77</ele>
        <time>2015-06-04T12:08:49Z</time>
      </trkpt>
      <trkpt lat="42.46359" lon="2.22365">
        <ele>1836.74</ele>
        <time>2015-06-04T12:09:02Z</time>
      </trkpt>
      <trkpt lat="42.46358" lon="2.22365">
        <ele>1836.74</ele>
        <time>2015-06-04T12:09:03Z</time>
      </trkpt>
      <trkpt lat="42.46349" lon="2.22362">
        <ele>1837.7</ele>
        <time>2015-06-04T12:09:16Z</time>
      </trkpt>
      <trkpt lat="42.46347" lon="2.22362">
        <ele>1838.18</ele>
        <time>2015-06-04T12:09:19Z</time>
      </trkpt>
      <trkpt lat="42.4634" lon="2.22355">
        <ele>1839.14</ele>
        <time>2015-06-04T12:09:31Z</time>
      </trkpt>
      <trkpt lat="42.46336" lon="2.22357">
        <ele>1839.14</ele>
        <time>2015-06-04T12:09:37Z</time>
      </trkpt>
      <trkpt lat="42.46329" lon="2.22372">
        <ele>1839.62</ele>
        <time>2015-06-04T12:09:51Z</time>
      </trkpt>
      <trkpt lat="42.4633" lon="2.22375">
        <ele>1839.62</ele>
        <time>2015-06-04T12:09:54Z</time>
      </trkpt>
      <trkpt lat="42.46329" lon="2.22383">
        <ele>1838.66</ele>
        <time>2015-06-04T12:10:03Z</time>
      </trkpt>
      <trkpt lat="42.46323" lon="2.22388">
        <ele>1838.18</ele>
        <time>2015-06-04T12:10:15Z</time>
      </trkpt>
      <trkpt lat="42.46315" lon="2.22394">
        <ele>1841.54</ele>
        <time>2015-06-04T12:10:28Z</time>
      </trkpt>
      <trkpt lat="42.46313" lon="2.22403">
        <ele>1842.98</ele>
        <time>2015-06-04T12:10:39Z</time>
      </trkpt>
      <trkpt lat="42.4631" lon="2.22409">
        <ele>1844.91</ele>
        <time>2015-06-04T12:10:51Z</time>
      </trkpt>
      <trkpt lat="42.4631" lon="2.22416">
        <ele>1845.87</ele>
        <time>2015-06-04T12:11:03Z</time>
      </trkpt>
      <trkpt lat="42.46307" lon="2.22425">
        <ele>1848.27</ele>
        <time>2015-06-04T12:11:18Z</time>
      </trkpt>
      <trkpt lat="42.46302" lon="2.22434">
        <ele>1849.23</ele>
        <time>2015-06-04T12:11:31Z</time>
      </trkpt>
      <trkpt lat="42.46301" lon="2.22435">
        <ele>1849.71</ele>
        <time>2015-06-04T12:11:32Z</time>
      </trkpt>
      <trkpt lat="42.46299" lon="2.22439">
        <ele>1850.19</ele>
        <time>2015-06-04T12:11:37Z</time>
      </trkpt>
      <trkpt lat="42.46294" lon="2.22446">
        <ele>1851.64</ele>
        <time>2015-06-04T12:11:47Z</time>
      </trkpt>
      <trkpt lat="42.46287" lon="2.22456">
        <ele>1853.08</ele>
        <time>2015-06-04T12:12:00Z</time>
      </trkpt>
      <trkpt lat="42.46286" lon="2.22458">
        <ele>1853.56</ele>
        <time>2015-06-04T12:12:01Z</time>
      </trkpt>
      <trkpt lat="42.46284" lon="2.22468">
        <ele>1855</ele>
        <time>2015-06-04T12:12:13Z</time>
      </trkpt>
      <trkpt lat="42.46282" lon="2.22474">
        <ele>1855.96</ele>
        <time>2015-06-04T12:12:22Z</time>
      </trkpt>
      <trkpt lat="42.46278" lon="2.22483">
        <ele>1857.89</ele>
        <time>2015-06-04T12:12:34Z</time>
      </trkpt>
      <trkpt lat="42.46278" lon="2.22494">
        <ele>1859.33</ele>
        <time>2015-06-04T12:12:45Z</time>
      </trkpt>
      <trkpt lat="42.46276" lon="2.22502">
        <ele>1861.25</ele>
        <time>2015-06-04T12:12:57Z</time>
      </trkpt>
      <trkpt lat="42.46279" lon="2.22512">
        <ele>1863.17</ele>
        <time>2015-06-04T12:13:12Z</time>
      </trkpt>
      <trkpt lat="42.4628" lon="2.22526">
        <ele>1865.09</ele>
        <time>2015-06-04T12:13:29Z</time>
      </trkpt>
      <trkpt lat="42.46276" lon="2.22537">
        <ele>1866.54</ele>
        <time>2015-06-04T12:13:41Z</time>
      </trkpt>
      <trkpt lat="42.46274" lon="2.22544">
        <ele>1867.5</ele>
        <time>2015-06-04T12:13:53Z</time>
      </trkpt>
      <trkpt lat="42.46271" lon="2.22553">
        <ele>1868.94</ele>
        <time>2015-06-04T12:14:05Z</time>
      </trkpt>
      <trkpt lat="42.46271" lon="2.22564">
        <ele>1871.34</ele>
        <time>2015-06-04T12:14:19Z</time>
      </trkpt>
      <trkpt lat="42.46266" lon="2.22572">
        <ele>1872.79</ele>
        <time>2015-06-04T12:14:33Z</time>
      </trkpt>
      <trkpt lat="42.46262" lon="2.22583">
        <ele>1874.71</ele>
        <time>2015-06-04T12:14:46Z</time>
      </trkpt>
      <trkpt lat="42.46264" lon="2.22594">
        <ele>1876.63</ele>
        <time>2015-06-04T12:15:01Z</time>
      </trkpt>
      <trkpt lat="42.46261" lon="2.22601">
        <ele>1878.07</ele>
        <time>2015-06-04T12:15:12Z</time>
      </trkpt>
      <trkpt lat="42.46261" lon="2.2261">
        <ele>1879.51</ele>
        <time>2015-06-04T12:15:26Z</time>
      </trkpt>
      <trkpt lat="42.46263" lon="2.22617">
        <ele>1880.48</ele>
        <time>2015-06-04T12:15:34Z</time>
      </trkpt>
      <trkpt lat="42.46259" lon="2.22624">
        <ele>1881.92</ele>
        <time>2015-06-04T12:15:47Z</time>
      </trkpt>
      <trkpt lat="42.46259" lon="2.22631">
        <ele>1882.88</ele>
        <time>2015-06-04T12:15:57Z</time>
      </trkpt>
      <trkpt lat="42.46257" lon="2.22639">
        <ele>1885.28</ele>
        <time>2015-06-04T12:16:11Z</time>
      </trkpt>
      <trkpt lat="42.46251" lon="2.22648">
        <ele>1886.72</ele>
        <time>2015-06-04T12:16:26Z</time>
      </trkpt>
      <trkpt lat="42.4625" lon="2.22656">
        <ele>1888.65</ele>
        <time>2015-06-04T12:16:37Z</time>
      </trkpt>
      <trkpt lat="42.46246" lon="2.22666">
        <ele>1890.09</ele>
        <time>2015-06-04T12:16:50Z</time>
      </trkpt>
      <trkpt lat="42.46242" lon="2.22674">
        <ele>1892.01</ele>
        <time>2015-06-04T12:17:04Z</time>
      </trkpt>
      <trkpt lat="42.46242" lon="2.22684">
        <ele>1893.45</ele>
        <time>2015-06-04T12:17:17Z</time>
      </trkpt>
      <trkpt lat="42.46242" lon="2.22684">
        <ele>1893.45</ele>
        <time>2015-06-04T12:17:18Z</time>
      </trkpt>
      <trkpt lat="42.46242" lon="2.227">
        <ele>1892.97</ele>
        <time>2015-06-04T12:17:29Z</time>
      </trkpt>
      <trkpt lat="42.4624" lon="2.22711">
        <ele>1894.42</ele>
        <time>2015-06-04T12:17:41Z</time>
      </trkpt>
      <trkpt lat="42.46239" lon="2.22721">
        <ele>1895.86</ele>
        <time>2015-06-04T12:17:54Z</time>
      </trkpt>
      <trkpt lat="42.46234" lon="2.22729">
        <ele>1897.3</ele>
        <time>2015-06-04T12:18:07Z</time>
      </trkpt>
      <trkpt lat="42.46233" lon="2.22737">
        <ele>1898.74</ele>
        <time>2015-06-04T12:18:19Z</time>
      </trkpt>
      <trkpt lat="42.46233" lon="2.22745">
        <ele>1900.18</ele>
        <time>2015-06-04T12:18:29Z</time>
      </trkpt>
      <trkpt lat="42.46231" lon="2.22754">
        <ele>1901.63</ele>
        <time>2015-06-04T12:18:40Z</time>
      </trkpt>
      <trkpt lat="42.46235" lon="2.22766">
        <ele>1902.11</ele>
        <time>2015-06-04T12:18:53Z</time>
      </trkpt>
      <trkpt lat="42.46243" lon="2.22782">
        <ele>1903.07</ele>
        <time>2015-06-04T12:19:07Z</time>
      </trkpt>
      <trkpt lat="42.46248" lon="2.22799">
        <ele>1903.55</ele>
        <time>2015-06-04T12:19:18Z</time>
      </trkpt>
      <trkpt lat="42.46247" lon="2.22808">
        <ele>1904.51</ele>
        <time>2015-06-04T12:19:29Z</time>
      </trkpt>
      <trkpt lat="42.46239" lon="2.2282">
        <ele>1907.39</ele>
        <time>2015-06-04T12:19:45Z</time>
      </trkpt>
      <trkpt lat="42.46243" lon="2.22831">
        <ele>1908.83</ele>
        <time>2015-06-04T12:19:59Z</time>
      </trkpt>
      <trkpt lat="42.46245" lon="2.22842">
        <ele>1910.28</ele>
        <time>2015-06-04T12:20:09Z</time>
      </trkpt>
      <trkpt lat="42.46244" lon="2.22854">
        <ele>1911.72</ele>
        <time>2015-06-04T12:20:20Z</time>
      </trkpt>
      <trkpt lat="42.46248" lon="2.22864">
        <ele>1912.68</ele>
        <time>2015-06-04T12:20:31Z</time>
      </trkpt>
      <trkpt lat="42.46245" lon="2.22875">
        <ele>1913.16</ele>
        <time>2015-06-04T12:20:41Z</time>
      </trkpt>
      <trkpt lat="42.46241" lon="2.22886">
        <ele>1914.6</ele>
        <time>2015-06-04T12:20:54Z</time>
      </trkpt>
      <trkpt lat="42.46236" lon="2.22892">
        <ele>1916.04</ele>
        <time>2015-06-04T12:21:10Z</time>
      </trkpt>
      <trkpt lat="42.46226" lon="2.22897">
        <ele>1917.01</ele>
        <time>2015-06-04T12:21:24Z</time>
      </trkpt>
      <trkpt lat="42.4622" lon="2.22901">
        <ele>1918.45</ele>
        <time>2015-06-04T12:21:38Z</time>
      </trkpt>
      <trkpt lat="42.46209" lon="2.22907">
        <ele>1920.85</ele>
        <time>2015-06-04T12:21:55Z</time>
      </trkpt>
      <trkpt lat="42.46204" lon="2.22912">
        <ele>1922.29</ele>
        <time>2015-06-04T12:22:08Z</time>
      </trkpt>
      <trkpt lat="42.46197" lon="2.22916">
        <ele>1923.25</ele>
        <time>2015-06-04T12:22:20Z</time>
      </trkpt>
      <trkpt lat="42.46188" lon="2.22919">
        <ele>1924.22</ele>
        <time>2015-06-04T12:22:34Z</time>
      </trkpt>
      <trkpt lat="42.46183" lon="2.22927">
        <ele>1925.66</ele>
        <time>2015-06-04T12:22:49Z</time>
      </trkpt>
      <trkpt lat="42.46173" lon="2.22935">
        <ele>1927.58</ele>
        <time>2015-06-04T12:23:03Z</time>
      </trkpt>
      <trkpt lat="42.46163" lon="2.22944">
        <ele>1927.58</ele>
        <time>2015-06-04T12:23:16Z</time>
      </trkpt>
      <trkpt lat="42.4616" lon="2.22946">
        <ele>1927.58</ele>
        <time>2015-06-04T12:23:20Z</time>
      </trkpt>
      <trkpt lat="42.46159" lon="2.22949">
        <ele>1928.06</ele>
        <time>2015-06-04T12:23:22Z</time>
      </trkpt>
      <trkpt lat="42.46148" lon="2.22959">
        <ele>1929.02</ele>
        <time>2015-06-04T12:23:37Z</time>
      </trkpt>
      <trkpt lat="42.46137" lon="2.22965">
        <ele>1930.46</ele>
        <time>2015-06-04T12:23:50Z</time>
      </trkpt>
      <trkpt lat="42.46132" lon="2.22971">
        <ele>1931.43</ele>
        <time>2015-06-04T12:24:02Z</time>
      </trkpt>
      <trkpt lat="42.46132" lon="2.22974">
        <ele>1931.91</ele>
        <time>2015-06-04T12:24:13Z</time>
      </trkpt>
      <trkpt lat="42.46125" lon="2.22975">
        <ele>1931.91</ele>
        <time>2015-06-04T12:24:28Z</time>
      </trkpt>
      <trkpt lat="42.4612" lon="2.22975">
        <ele>1932.39</ele>
        <time>2015-06-04T12:24:33Z</time>
      </trkpt>
      <trkpt lat="42.4611" lon="2.22981">
        <ele>1932.87</ele>
        <time>2015-06-04T12:24:42Z</time>
      </trkpt>
      <trkpt lat="42.46108" lon="2.2298">
        <ele>1932.87</ele>
        <time>2015-06-04T12:24:44Z</time>
      </trkpt>
      <trkpt lat="42.46093" lon="2.22978">
        <ele>1932.87</ele>
        <time>2015-06-04T12:24:57Z</time>
      </trkpt>
      <trkpt lat="42.46091" lon="2.22978">
        <ele>1933.35</ele>
        <time>2015-06-04T12:24:59Z</time>
      </trkpt>
      <trkpt lat="42.46087" lon="2.22979">
        <ele>1933.83</ele>
        <time>2015-06-04T12:25:03Z</time>
      </trkpt>
      <trkpt lat="42.46072" lon="2.22977">
        <ele>1933.83</ele>
        <time>2015-06-04T12:25:18Z</time>
      </trkpt>
      <trkpt lat="42.46057" lon="2.22975">
        <ele>1934.79</ele>
        <time>2015-06-04T12:25:33Z</time>
      </trkpt>
      <trkpt lat="42.46045" lon="2.2298">
        <ele>1935.75</ele>
        <time>2015-06-04T12:25:46Z</time>
      </trkpt>
      <trkpt lat="42.46041" lon="2.22982">
        <ele>1936.23</ele>
        <time>2015-06-04T12:25:50Z</time>
      </trkpt>
      <trkpt lat="42.46038" lon="2.22985">
        <ele>1936.23</ele>
        <time>2015-06-04T12:25:53Z</time>
      </trkpt>
      <trkpt lat="42.46034" lon="2.22988">
        <ele>1936.71</ele>
        <time>2015-06-04T12:25:57Z</time>
      </trkpt>
      <trkpt lat="42.46023" lon="2.2299">
        <ele>1937.19</ele>
        <time>2015-06-04T12:26:08Z</time>
      </trkpt>
      <trkpt lat="42.46021" lon="2.22992">
        <ele>1937.67</ele>
        <time>2015-06-04T12:26:11Z</time>
      </trkpt>
      <trkpt lat="42.46013" lon="2.22997">
        <ele>1938.16</ele>
        <time>2015-06-04T12:26:21Z</time>
      </trkpt>
      <trkpt lat="42.46005" lon="2.23007">
        <ele>1939.6</ele>
        <time>2015-06-04T12:26:35Z</time>
      </trkpt>
      <trkpt lat="42.45996" lon="2.23014">
        <ele>1941.04</ele>
        <time>2015-06-04T12:26:46Z</time>
      </trkpt>
      <trkpt lat="42.45995" lon="2.23017">
        <ele>1941.52</ele>
        <time>2015-06-04T12:26:49Z</time>
      </trkpt>
      <trkpt lat="42.4599" lon="2.23023">
        <ele>1942</ele>
        <time>2015-06-04T12:26:58Z</time>
      </trkpt>
      <trkpt lat="42.45989" lon="2.23025">
        <ele>1942</ele>
        <time>2015-06-04T12:27:00Z</time>
      </trkpt>
      <trkpt lat="42.45983" lon="2.23035">
        <ele>1942.96</ele>
        <time>2015-06-04T12:27:12Z</time>
      </trkpt>
      <trkpt lat="42.45981" lon="2.23046">
        <ele>1943.92</ele>
        <time>2015-06-04T12:27:24Z</time>
      </trkpt>
      <trkpt lat="42.45982" lon="2.23049">
        <ele>1944.4</ele>
        <time>2015-06-04T12:27:27Z</time>
      </trkpt>
      <trkpt lat="42.45977" lon="2.23057">
        <ele>1945.85</ele>
        <time>2015-06-04T12:27:37Z</time>
      </trkpt>
      <trkpt lat="42.45974" lon="2.23061">
        <ele>1945.85</ele>
        <time>2015-06-04T12:27:42Z</time>
      </trkpt>
      <trkpt lat="42.45965" lon="2.23072">
        <ele>1946.81</ele>
        <time>2015-06-04T12:27:55Z</time>
      </trkpt>
      <trkpt lat="42.45956" lon="2.23081">
        <ele>1947.29</ele>
        <time>2015-06-04T12:28:08Z</time>
      </trkpt>
      <trkpt lat="42.45951" lon="2.23096">
        <ele>1947.29</ele>
        <time>2015-06-04T12:28:23Z</time>
      </trkpt>
      <trkpt lat="42.45946" lon="2.23106">
        <ele>1947.77</ele>
        <time>2015-06-04T12:28:35Z</time>
      </trkpt>
      <trkpt lat="42.45946" lon="2.23111">
        <ele>1948.73</ele>
        <time>2015-06-04T12:28:40Z</time>
      </trkpt>
      <trkpt lat="42.4595" lon="2.23121">
        <ele>1948.73</ele>
        <time>2015-06-04T12:28:54Z</time>
      </trkpt>
      <trkpt lat="42.45946" lon="2.23124">
        <ele>1949.69</ele>
        <time>2015-06-04T12:29:12Z</time>
      </trkpt>
      <trkpt lat="42.45938" lon="2.23131">
        <ele>1950.17</ele>
        <time>2015-06-04T12:29:26Z</time>
      </trkpt>
      <trkpt lat="42.45938" lon="2.23139">
        <ele>1948.73</ele>
        <time>2015-06-04T12:29:36Z</time>
      </trkpt>
      <trkpt lat="42.45938" lon="2.23144">
        <ele>1948.25</ele>
        <time>2015-06-04T12:29:53Z</time>
      </trkpt>
      <trkpt lat="42.45937" lon="2.23147">
        <ele>1947.77</ele>
        <time>2015-06-04T12:30:10Z</time>
      </trkpt>
      <trkpt lat="42.45935" lon="2.23148">
        <ele>1947.77</ele>
        <time>2015-06-04T12:30:25Z</time>
      </trkpt>
      <trkpt lat="42.45939" lon="2.23144">
        <ele>1947.77</ele>
        <time>2015-06-04T12:30:42Z</time>
      </trkpt>
      <trkpt lat="42.45943" lon="2.23143">
        <ele>1947.77</ele>
        <time>2015-06-04T12:30:50Z</time>
      </trkpt>
      <trkpt lat="42.45949" lon="2.2314">
        <ele>1947.77</ele>
        <time>2015-06-04T12:31:01Z</time>
      </trkpt>
      <trkpt lat="42.45954" lon="2.2314">
        <ele>1947.77</ele>
        <time>2015-06-04T12:31:17Z</time>
      </trkpt>
      <trkpt lat="42.4596" lon="2.23137">
        <ele>1947.77</ele>
        <time>2015-06-04T12:31:29Z</time>
      </trkpt>
      <trkpt lat="42.45959" lon="2.23136">
        <ele>1947.77</ele>
        <time>2015-06-04T12:31:30Z</time>
      </trkpt>
      <trkpt lat="42.4596" lon="2.2313">
        <ele>1946.81</ele>
        <time>2015-06-04T12:31:40Z</time>
      </trkpt>
      <trkpt lat="42.45965" lon="2.23135">
        <ele>1946.81</ele>
        <time>2015-06-04T12:31:52Z</time>
      </trkpt>
      <trkpt lat="42.45967" lon="2.2314">
        <ele>1948.73</ele>
        <time>2015-06-04T12:32:07Z</time>
      </trkpt>
      <trkpt lat="42.45975" lon="2.23139">
        <ele>1948.73</ele>
        <time>2015-06-04T12:32:24Z</time>
      </trkpt>
      <trkpt lat="42.45975" lon="2.23141">
        <ele>1947.29</ele>
        <time>2015-06-04T12:32:28Z</time>
      </trkpt>
      <trkpt lat="42.45975" lon="2.23146">
        <ele>1946.81</ele>
        <time>2015-06-04T12:32:40Z</time>
      </trkpt>
      <trkpt lat="42.4597" lon="2.2315">
        <ele>1946.33</ele>
        <time>2015-06-04T12:32:54Z</time>
      </trkpt>
      <trkpt lat="42.45966" lon="2.23156">
        <ele>1948.25</ele>
        <time>2015-06-04T12:33:07Z</time>
      </trkpt>
      <trkpt lat="42.45958" lon="2.23166">
        <ele>1949.69</ele>
        <time>2015-06-04T12:33:20Z</time>
      </trkpt>
      <trkpt lat="42.45954" lon="2.23166">
        <ele>1950.65</ele>
        <time>2015-06-04T12:33:34Z</time>
      </trkpt>
      <trkpt lat="42.45958" lon="2.23177">
        <ele>1950.65</ele>
        <time>2015-06-04T12:33:48Z</time>
      </trkpt>
      <trkpt lat="42.45953" lon="2.23184">
        <ele>1950.65</ele>
        <time>2015-06-04T12:33:54Z</time>
      </trkpt>
      <trkpt lat="42.45945" lon="2.23195">
        <ele>1951.13</ele>
        <time>2015-06-04T12:34:07Z</time>
      </trkpt>
      <trkpt lat="42.45941" lon="2.23203">
        <ele>1952.57</ele>
        <time>2015-06-04T12:34:20Z</time>
      </trkpt>
      <trkpt lat="42.45935" lon="2.2321">
        <ele>1953.06</ele>
        <time>2015-06-04T12:34:33Z</time>
      </trkpt>
      <trkpt lat="42.45929" lon="2.23213">
        <ele>1953.54</ele>
        <time>2015-06-04T12:34:45Z</time>
      </trkpt>
      <trkpt lat="42.45918" lon="2.23213">
        <ele>1954.5</ele>
        <time>2015-06-04T12:34:57Z</time>
      </trkpt>
      <trkpt lat="42.45909" lon="2.23213">
        <ele>1955.46</ele>
        <time>2015-06-04T12:35:09Z</time>
      </trkpt>
      <trkpt lat="42.45905" lon="2.23221">
        <ele>1957.38</ele>
        <time>2015-06-04T12:35:23Z</time>
      </trkpt>
      <trkpt lat="42.45898" lon="2.23225">
        <ele>1957.86</ele>
        <time>2015-06-04T12:35:36Z</time>
      </trkpt>
      <trkpt lat="42.45893" lon="2.23228">
        <ele>1958.82</ele>
        <time>2015-06-04T12:35:50Z</time>
      </trkpt>
      <trkpt lat="42.45886" lon="2.23232">
        <ele>1959.78</ele>
        <time>2015-06-04T12:36:05Z</time>
      </trkpt>
      <trkpt lat="42.45876" lon="2.23237">
        <ele>1960.75</ele>
        <time>2015-06-04T12:36:21Z</time>
      </trkpt>
      <trkpt lat="42.45864" lon="2.23238">
        <ele>1962.19</ele>
        <time>2015-06-04T12:36:35Z</time>
      </trkpt>
      <trkpt lat="42.45859" lon="2.23239">
        <ele>1962.67</ele>
        <time>2015-06-04T12:36:45Z</time>
      </trkpt>
      <trkpt lat="42.45848" lon="2.23241">
        <ele>1964.11</ele>
        <time>2015-06-04T12:36:58Z</time>
      </trkpt>
      <trkpt lat="42.45841" lon="2.23242">
        <ele>1964.59</ele>
        <time>2015-06-04T12:37:09Z</time>
      </trkpt>
      <trkpt lat="42.45841" lon="2.23242">
        <ele>1965.07</ele>
        <time>2015-06-04T12:37:10Z</time>
      </trkpt>
      <trkpt lat="42.4583" lon="2.23242">
        <ele>1966.51</ele>
        <time>2015-06-04T12:37:24Z</time>
      </trkpt>
      <trkpt lat="42.45821" lon="2.2324">
        <ele>1967.48</ele>
        <time>2015-06-04T12:37:35Z</time>
      </trkpt>
      <trkpt lat="42.45813" lon="2.23245">
        <ele>1968.44</ele>
        <time>2015-06-04T12:37:48Z</time>
      </trkpt>
      <trkpt lat="42.45808" lon="2.23249">
        <ele>1970.84</ele>
        <time>2015-06-04T12:38:02Z</time>
      </trkpt>
      <trkpt lat="42.45804" lon="2.23255">
        <ele>1972.76</ele>
        <time>2015-06-04T12:38:16Z</time>
      </trkpt>
      <trkpt lat="42.45801" lon="2.23261">
        <ele>1974.69</ele>
        <time>2015-06-04T12:38:30Z</time>
      </trkpt>
      <trkpt lat="42.45797" lon="2.23267">
        <ele>1976.61</ele>
        <time>2015-06-04T12:38:45Z</time>
      </trkpt>
      <trkpt lat="42.45792" lon="2.23272">
        <ele>1978.53</ele>
        <time>2015-06-04T12:38:58Z</time>
      </trkpt>
      <trkpt lat="42.45787" lon="2.2328">
        <ele>1979.97</ele>
        <time>2015-06-04T12:39:13Z</time>
      </trkpt>
      <trkpt lat="42.45782" lon="2.23285">
        <ele>1981.9</ele>
        <time>2015-06-04T12:39:29Z</time>
      </trkpt>
      <trkpt lat="42.45777" lon="2.2329">
        <ele>1983.34</ele>
        <time>2015-06-04T12:39:44Z</time>
      </trkpt>
      <trkpt lat="42.45771" lon="2.23291">
        <ele>1985.74</ele>
        <time>2015-06-04T12:39:57Z</time>
      </trkpt>
      <trkpt lat="42.45766" lon="2.23296">
        <ele>1987.18</ele>
        <time>2015-06-04T12:40:11Z</time>
      </trkpt>
      <trkpt lat="42.45758" lon="2.23298">
        <ele>1989.1</ele>
        <time>2015-06-04T12:40:25Z</time>
      </trkpt>
      <trkpt lat="42.45752" lon="2.23305">
        <ele>1991.03</ele>
        <time>2015-06-04T12:40:39Z</time>
      </trkpt>
      <trkpt lat="42.45742" lon="2.23305">
        <ele>1991.51</ele>
        <time>2015-06-04T12:40:53Z</time>
      </trkpt>
      <trkpt lat="42.45731" lon="2.23302">
        <ele>1991.51</ele>
        <time>2015-06-04T12:41:06Z</time>
      </trkpt>
      <trkpt lat="42.45724" lon="2.23304">
        <ele>1991.03</ele>
        <time>2015-06-04T12:41:21Z</time>
      </trkpt>
      <trkpt lat="42.45715" lon="2.23306">
        <ele>1990.07</ele>
        <time>2015-06-04T12:41:35Z</time>
      </trkpt>
      <trkpt lat="42.45713" lon="2.23308">
        <ele>1990.07</ele>
        <time>2015-06-04T12:41:48Z</time>
      </trkpt>
      <trkpt lat="42.45713" lon="2.23313">
        <ele>1991.51</ele>
        <time>2015-06-04T12:42:00Z</time>
      </trkpt>
      <trkpt lat="42.45712" lon="2.23317">
        <ele>1991.99</ele>
        <time>2015-06-04T12:42:10Z</time>
      </trkpt>
      <trkpt lat="42.45709" lon="2.23321">
        <ele>1993.43</ele>
        <time>2015-06-04T12:42:23Z</time>
      </trkpt>
      <trkpt lat="42.45706" lon="2.23323">
        <ele>1994.87</ele>
        <time>2015-06-04T12:42:36Z</time>
      </trkpt>
      <trkpt lat="42.45707" lon="2.2333">
        <ele>1995.35</ele>
        <time>2015-06-04T12:42:52Z</time>
      </trkpt>
      <trkpt lat="42.45706" lon="2.23333">
        <ele>1995.83</ele>
        <time>2015-06-04T12:43:05Z</time>
      </trkpt>
      <trkpt lat="42.45704" lon="2.23337">
        <ele>1996.32</ele>
        <time>2015-06-04T12:43:22Z</time>
      </trkpt>
      <trkpt lat="42.45698" lon="2.23342">
        <ele>1996.8</ele>
        <time>2015-06-04T12:43:36Z</time>
      </trkpt>
      <trkpt lat="42.45688" lon="2.23341">
        <ele>1994.87</ele>
        <time>2015-06-04T12:43:54Z</time>
      </trkpt>
      <trkpt lat="42.45681" lon="2.23337">
        <ele>1992.95</ele>
        <time>2015-06-04T12:44:07Z</time>
      </trkpt>
      <trkpt lat="42.45676" lon="2.23336">
        <ele>1992.47</ele>
        <time>2015-06-04T12:44:21Z</time>
      </trkpt>
      <trkpt lat="42.45674" lon="2.23333">
        <ele>1991.51</ele>
        <time>2015-06-04T12:44:33Z</time>
      </trkpt>
      <trkpt lat="42.4567" lon="2.23336">
        <ele>1991.51</ele>
        <time>2015-06-04T12:44:45Z</time>
      </trkpt>
      <trkpt lat="42.45664" lon="2.23338">
        <ele>1991.51</ele>
        <time>2015-06-04T12:44:59Z</time>
      </trkpt>
      <trkpt lat="42.45662" lon="2.23337">
        <ele>1991.99</ele>
        <time>2015-06-04T12:45:04Z</time>
      </trkpt>
      <trkpt lat="42.45658" lon="2.23338">
        <ele>1993.91</ele>
        <time>2015-06-04T12:45:10Z</time>
      </trkpt>
      <trkpt lat="42.45655" lon="2.23339">
        <ele>1995.35</ele>
        <time>2015-06-04T12:45:18Z</time>
      </trkpt>
      <trkpt lat="42.45652" lon="2.23344">
        <ele>1994.87</ele>
        <time>2015-06-04T12:45:27Z</time>
      </trkpt>
      <trkpt lat="42.45649" lon="2.23352">
        <ele>1996.32</ele>
        <time>2015-06-04T12:45:39Z</time>
      </trkpt>
      <trkpt lat="42.45647" lon="2.23361">
        <ele>1997.28</ele>
        <time>2015-06-04T12:45:53Z</time>
      </trkpt>
      <trkpt lat="42.45643" lon="2.2337">
        <ele>1999.2</ele>
        <time>2015-06-04T12:46:07Z</time>
      </trkpt>
      <trkpt lat="42.45639" lon="2.23373">
        <ele>1999.2</ele>
        <time>2015-06-04T12:46:18Z</time>
      </trkpt>
      <trkpt lat="42.45634" lon="2.23373">
        <ele>1999.68</ele>
        <time>2015-06-04T12:46:30Z</time>
      </trkpt>
      <trkpt lat="42.4563" lon="2.23377">
        <ele>2001.12</ele>
        <time>2015-06-04T12:46:41Z</time>
      </trkpt>
      <trkpt lat="42.45623" lon="2.23383">
        <ele>2002.56</ele>
        <time>2015-06-04T12:46:53Z</time>
      </trkpt>
      <trkpt lat="42.45613" lon="2.23382">
        <ele>2002.56</ele>
        <time>2015-06-04T12:47:05Z</time>
      </trkpt>
      <trkpt lat="42.45605" lon="2.23384">
        <ele>2004.49</ele>
        <time>2015-06-04T12:47:17Z</time>
      </trkpt>
      <trkpt lat="42.45596" lon="2.23383">
        <ele>2004.97</ele>
        <time>2015-06-04T12:47:28Z</time>
      </trkpt>
      <trkpt lat="42.45589" lon="2.23383">
        <ele>2006.41</ele>
        <time>2015-06-04T12:47:38Z</time>
      </trkpt>
      <trkpt lat="42.45582" lon="2.23381">
        <ele>2007.85</ele>
        <time>2015-06-04T12:47:50Z</time>
      </trkpt>
      <trkpt lat="42.45574" lon="2.23375">
        <ele>2009.29</ele>
        <time>2015-06-04T12:48:03Z</time>
      </trkpt>
      <trkpt lat="42.45567" lon="2.23373">
        <ele>2010.25</ele>
        <time>2015-06-04T12:48:15Z</time>
      </trkpt>
      <trkpt lat="42.45561" lon="2.23373">
        <ele>2011.7</ele>
        <time>2015-06-04T12:48:26Z</time>
      </trkpt>
      <trkpt lat="42.45553" lon="2.23376">
        <ele>2013.14</ele>
        <time>2015-06-04T12:48:39Z</time>
      </trkpt>
      <trkpt lat="42.45547" lon="2.23381">
        <ele>2014.58</ele>
        <time>2015-06-04T12:48:50Z</time>
      </trkpt>
      <trkpt lat="42.4554" lon="2.23384">
        <ele>2017.46</ele>
        <time>2015-06-04T12:49:03Z</time>
      </trkpt>
      <trkpt lat="42.45534" lon="2.23382">
        <ele>2018.91</ele>
        <time>2015-06-04T12:49:17Z</time>
      </trkpt>
      <trkpt lat="42.4553" lon="2.23386">
        <ele>2020.35</ele>
        <time>2015-06-04T12:49:30Z</time>
      </trkpt>
      <trkpt lat="42.45524" lon="2.23388">
        <ele>2021.79</ele>
        <time>2015-06-04T12:49:43Z</time>
      </trkpt>
      <trkpt lat="42.4552" lon="2.23395">
        <ele>2023.23</ele>
        <time>2015-06-04T12:49:55Z</time>
      </trkpt>
      <trkpt lat="42.45515" lon="2.23402">
        <ele>2025.15</ele>
        <time>2015-06-04T12:50:10Z</time>
      </trkpt>
      <trkpt lat="42.4551" lon="2.23406">
        <ele>2026.12</ele>
        <time>2015-06-04T12:50:25Z</time>
      </trkpt>
      <trkpt lat="42.45506" lon="2.23411">
        <ele>2028.04</ele>
        <time>2015-06-04T12:50:38Z</time>
      </trkpt>
      <trkpt lat="42.45503" lon="2.23418">
        <ele>2029</ele>
        <time>2015-06-04T12:50:49Z</time>
      </trkpt>
      <trkpt lat="42.45498" lon="2.23422">
        <ele>2030.44</ele>
        <time>2015-06-04T12:51:00Z</time>
      </trkpt>
      <trkpt lat="42.45493" lon="2.23429">
        <ele>2032.36</ele>
        <time>2015-06-04T12:51:13Z</time>
      </trkpt>
      <trkpt lat="42.4549" lon="2.23436">
        <ele>2033.81</ele>
        <time>2015-06-04T12:51:26Z</time>
      </trkpt>
      <trkpt lat="42.45492" lon="2.23438">
        <ele>2035.73</ele>
        <time>2015-06-04T12:51:40Z</time>
      </trkpt>
      <trkpt lat="42.45491" lon="2.23443">
        <ele>2037.65</ele>
        <time>2015-06-04T12:51:52Z</time>
      </trkpt>
      <trkpt lat="42.45487" lon="2.23447">
        <ele>2039.57</ele>
        <time>2015-06-04T12:52:04Z</time>
      </trkpt>
      <trkpt lat="42.45482" lon="2.23452">
        <ele>2040.54</ele>
        <time>2015-06-04T12:52:16Z</time>
      </trkpt>
      <trkpt lat="42.45478" lon="2.2346">
        <ele>2042.94</ele>
        <time>2015-06-04T12:52:31Z</time>
      </trkpt>
      <trkpt lat="42.45474" lon="2.23469">
        <ele>2044.86</ele>
        <time>2015-06-04T12:52:46Z</time>
      </trkpt>
      <trkpt lat="42.45468" lon="2.23475">
        <ele>2045.34</ele>
        <time>2015-06-04T12:52:59Z</time>
      </trkpt>
      <trkpt lat="42.45465" lon="2.23478">
        <ele>2046.3</ele>
        <time>2015-06-04T12:53:14Z</time>
      </trkpt>
      <trkpt lat="42.4546" lon="2.23486">
        <ele>2046.78</ele>
        <time>2015-06-04T12:53:28Z</time>
      </trkpt>
      <trkpt lat="42.45456" lon="2.23494">
        <ele>2047.75</ele>
        <time>2015-06-04T12:53:39Z</time>
      </trkpt>
      <trkpt lat="42.45452" lon="2.23502">
        <ele>2049.67</ele>
        <time>2015-06-04T12:53:53Z</time>
      </trkpt>
      <trkpt lat="42.45446" lon="2.23508">
        <ele>2050.15</ele>
        <time>2015-06-04T12:54:05Z</time>
      </trkpt>
      <trkpt lat="42.45441" lon="2.23518">
        <ele>2051.59</ele>
        <time>2015-06-04T12:54:20Z</time>
      </trkpt>
      <trkpt lat="42.45431" lon="2.23518">
        <ele>2053.03</ele>
        <time>2015-06-04T12:54:33Z</time>
      </trkpt>
      <trkpt lat="42.4543" lon="2.23517">
        <ele>2053.51</ele>
        <time>2015-06-04T12:54:34Z</time>
      </trkpt>
      <trkpt lat="42.45426" lon="2.2352">
        <ele>2054.47</ele>
        <time>2015-06-04T12:54:46Z</time>
      </trkpt>
      <trkpt lat="42.45427" lon="2.23529">
        <ele>2055.92</ele>
        <time>2015-06-04T12:54:58Z</time>
      </trkpt>
      <trkpt lat="42.45423" lon="2.23537">
        <ele>2056.88</ele>
        <time>2015-06-04T12:55:10Z</time>
      </trkpt>
      <trkpt lat="42.45415" lon="2.23543">
        <ele>2058.8</ele>
        <time>2015-06-04T12:55:25Z</time>
      </trkpt>
      <trkpt lat="42.45412" lon="2.23551">
        <ele>2059.28</ele>
        <time>2015-06-04T12:55:36Z</time>
      </trkpt>
      <trkpt lat="42.45408" lon="2.23554">
        <ele>2059.76</ele>
        <time>2015-06-04T12:55:45Z</time>
      </trkpt>
      <trkpt lat="42.45407" lon="2.23554">
        <ele>2059.76</ele>
        <time>2015-06-04T12:55:46Z</time>
      </trkpt>
      <trkpt lat="42.454" lon="2.23562">
        <ele>2061.2</ele>
        <time>2015-06-04T12:56:00Z</time>
      </trkpt>
      <trkpt lat="42.45395" lon="2.23568">
        <ele>2062.17</ele>
        <time>2015-06-04T12:56:12Z</time>
      </trkpt>
      <trkpt lat="42.45388" lon="2.2357">
        <ele>2063.61</ele>
        <time>2015-06-04T12:56:22Z</time>
      </trkpt>
      <trkpt lat="42.4538" lon="2.23577">
        <ele>2065.05</ele>
        <time>2015-06-04T12:56:37Z</time>
      </trkpt>
      <trkpt lat="42.45373" lon="2.23582">
        <ele>2066.97</ele>
        <time>2015-06-04T12:56:51Z</time>
      </trkpt>
      <trkpt lat="42.45366" lon="2.23584">
        <ele>2066.97</ele>
        <time>2015-06-04T12:57:04Z</time>
      </trkpt>
      <trkpt lat="42.45364" lon="2.23587">
        <ele>2066.97</ele>
        <time>2015-06-04T12:57:17Z</time>
      </trkpt>
      <trkpt lat="42.45364" lon="2.23586">
        <ele>2067.45</ele>
        <time>2015-06-04T12:57:41Z</time>
      </trkpt>
      <trkpt lat="42.45364" lon="2.23587">
        <ele>2067.45</ele>
        <time>2015-06-04T12:58:00Z</time>
      </trkpt>
      <trkpt lat="42.45361" lon="2.23585">
        <ele>2067.45</ele>
        <time>2015-06-04T12:58:14Z</time>
      </trkpt>
      <trkpt lat="42.4536" lon="2.23588">
        <ele>2067.45</ele>
        <time>2015-06-04T12:58:34Z</time>
      </trkpt>
      <trkpt lat="42.4536" lon="2.23588">
        <ele>2067.45</ele>
        <time>2015-06-04T12:58:57Z</time>
      </trkpt>
      <trkpt lat="42.45357" lon="2.23586">
        <ele>2068.41</ele>
        <time>2015-06-04T12:59:27Z</time>
      </trkpt>
      <trkpt lat="42.45359" lon="2.23591">
        <ele>2068.41</ele>
        <time>2015-06-04T12:59:45Z</time>
      </trkpt>
      <trkpt lat="42.45359" lon="2.2359">
        <ele>2068.41</ele>
        <time>2015-06-04T13:00:00Z</time>
      </trkpt>
      <trkpt lat="42.45356" lon="2.23596">
        <ele>2068.89</ele>
        <time>2015-06-04T13:00:15Z</time>
      </trkpt>
      <trkpt lat="42.45353" lon="2.23601">
        <ele>2070.82</ele>
        <time>2015-06-04T13:00:26Z</time>
      </trkpt>
      <trkpt lat="42.45348" lon="2.23608">
        <ele>2072.26</ele>
        <time>2015-06-04T13:00:39Z</time>
      </trkpt>
      <trkpt lat="42.45343" lon="2.23617">
        <ele>2075.14</ele>
        <time>2015-06-04T13:00:54Z</time>
      </trkpt>
      <trkpt lat="42.45339" lon="2.23622">
        <ele>2077.07</ele>
        <time>2015-06-04T13:01:08Z</time>
      </trkpt>
      <trkpt lat="42.45331" lon="2.2363">
        <ele>2077.07</ele>
        <time>2015-06-04T13:01:20Z</time>
      </trkpt>
      <trkpt lat="42.45322" lon="2.2364">
        <ele>2078.51</ele>
        <time>2015-06-04T13:01:34Z</time>
      </trkpt>
      <trkpt lat="42.45317" lon="2.23646">
        <ele>2079.95</ele>
        <time>2015-06-04T13:01:46Z</time>
      </trkpt>
      <trkpt lat="42.45314" lon="2.23658">
        <ele>2080.91</ele>
        <time>2015-06-04T13:01:59Z</time>
      </trkpt>
      <trkpt lat="42.4531" lon="2.23666">
        <ele>2082.83</ele>
        <time>2015-06-04T13:02:11Z</time>
      </trkpt>
      <trkpt lat="42.45303" lon="2.23673">
        <ele>2083.79</ele>
        <time>2015-06-04T13:02:23Z</time>
      </trkpt>
      <trkpt lat="42.45298" lon="2.23681">
        <ele>2084.76</ele>
        <time>2015-06-04T13:02:34Z</time>
      </trkpt>
      <trkpt lat="42.45298" lon="2.23688">
        <ele>2085.72</ele>
        <time>2015-06-04T13:02:45Z</time>
      </trkpt>
      <trkpt lat="42.45296" lon="2.23699">
        <ele>2087.64</ele>
        <time>2015-06-04T13:02:59Z</time>
      </trkpt>
      <trkpt lat="42.45293" lon="2.23707">
        <ele>2089.08</ele>
        <time>2015-06-04T13:03:12Z</time>
      </trkpt>
      <trkpt lat="42.45288" lon="2.23713">
        <ele>2091</ele>
        <time>2015-06-04T13:03:24Z</time>
      </trkpt>
      <trkpt lat="42.45281" lon="2.2372">
        <ele>2091.97</ele>
        <time>2015-06-04T13:03:37Z</time>
      </trkpt>
      <trkpt lat="42.45274" lon="2.23725">
        <ele>2093.41</ele>
        <time>2015-06-04T13:03:50Z</time>
      </trkpt>
      <trkpt lat="42.45273" lon="2.23725">
        <ele>2093.41</ele>
        <time>2015-06-04T13:03:51Z</time>
      </trkpt>
      <trkpt lat="42.45265" lon="2.23732">
        <ele>2094.85</ele>
        <time>2015-06-04T13:04:05Z</time>
      </trkpt>
      <trkpt lat="42.45258" lon="2.23739">
        <ele>2095.81</ele>
        <time>2015-06-04T13:04:17Z</time>
      </trkpt>
      <trkpt lat="42.45247" lon="2.23741">
        <ele>2097.25</ele>
        <time>2015-06-04T13:04:31Z</time>
      </trkpt>
      <trkpt lat="42.45239" lon="2.23739">
        <ele>2098.7</ele>
        <time>2015-06-04T13:04:43Z</time>
      </trkpt>
      <trkpt lat="42.45233" lon="2.23741">
        <ele>2100.14</ele>
        <time>2015-06-04T13:04:55Z</time>
      </trkpt>
      <trkpt lat="42.45227" lon="2.23744">
        <ele>2101.58</ele>
        <time>2015-06-04T13:05:07Z</time>
      </trkpt>
      <trkpt lat="42.45218" lon="2.23746">
        <ele>2103.02</ele>
        <time>2015-06-04T13:05:19Z</time>
      </trkpt>
      <trkpt lat="42.45214" lon="2.23751">
        <ele>2104.94</ele>
        <time>2015-06-04T13:05:33Z</time>
      </trkpt>
      <trkpt lat="42.45207" lon="2.23752">
        <ele>2106.87</ele>
        <time>2015-06-04T13:05:47Z</time>
      </trkpt>
      <trkpt lat="42.45202" lon="2.23757">
        <ele>2108.31</ele>
        <time>2015-06-04T13:05:59Z</time>
      </trkpt>
      <trkpt lat="42.45196" lon="2.23764">
        <ele>2109.75</ele>
        <time>2015-06-04T13:06:12Z</time>
      </trkpt>
      <trkpt lat="42.4519" lon="2.2377">
        <ele>2111.67</ele>
        <time>2015-06-04T13:06:24Z</time>
      </trkpt>
      <trkpt lat="42.45184" lon="2.23778">
        <ele>2113.12</ele>
        <time>2015-06-04T13:06:37Z</time>
      </trkpt>
      <trkpt lat="42.45177" lon="2.23782">
        <ele>2113.12</ele>
        <time>2015-06-04T13:06:50Z</time>
      </trkpt>
      <trkpt lat="42.45172" lon="2.23785">
        <ele>2115.04</ele>
        <time>2015-06-04T13:07:03Z</time>
      </trkpt>
      <trkpt lat="42.45165" lon="2.23791">
        <ele>2116</ele>
        <time>2015-06-04T13:07:15Z</time>
      </trkpt>
      <trkpt lat="42.45158" lon="2.23796">
        <ele>2116.96</ele>
        <time>2015-06-04T13:07:28Z</time>
      </trkpt>
      <trkpt lat="42.45151" lon="2.23802">
        <ele>2118.4</ele>
        <time>2015-06-04T13:07:43Z</time>
      </trkpt>
      <trkpt lat="42.45149" lon="2.23808">
        <ele>2120.81</ele>
        <time>2015-06-04T13:07:55Z</time>
      </trkpt>
      <trkpt lat="42.45148" lon="2.23814">
        <ele>2122.25</ele>
        <time>2015-06-04T13:08:08Z</time>
      </trkpt>
      <trkpt lat="42.45147" lon="2.23817">
        <ele>2123.69</ele>
        <time>2015-06-04T13:08:22Z</time>
      </trkpt>
      <trkpt lat="42.45144" lon="2.23823">
        <ele>2126.09</ele>
        <time>2015-06-04T13:08:35Z</time>
      </trkpt>
      <trkpt lat="42.45142" lon="2.23826">
        <ele>2127.05</ele>
        <time>2015-06-04T13:08:52Z</time>
      </trkpt>
      <trkpt lat="42.45138" lon="2.23825">
        <ele>2128.02</ele>
        <time>2015-06-04T13:09:16Z</time>
      </trkpt>
      <trkpt lat="42.4514" lon="2.23832">
        <ele>2128.98</ele>
        <time>2015-06-04T13:09:31Z</time>
      </trkpt>
      <trkpt lat="42.45146" lon="2.23835">
        <ele>2131.38</ele>
        <time>2015-06-04T13:09:45Z</time>
      </trkpt>
      <trkpt lat="42.45149" lon="2.23837">
        <ele>2133.3</ele>
        <time>2015-06-04T13:09:57Z</time>
      </trkpt>
      <trkpt lat="42.45146" lon="2.23843">
        <ele>2135.23</ele>
        <time>2015-06-04T13:10:12Z</time>
      </trkpt>
      <trkpt lat="42.45144" lon="2.23846">
        <ele>2137.63</ele>
        <time>2015-06-04T13:10:28Z</time>
      </trkpt>
      <trkpt lat="42.45148" lon="2.23844">
        <ele>2139.55</ele>
        <time>2015-06-04T13:10:41Z</time>
      </trkpt>
      <trkpt lat="42.45148" lon="2.2385">
        <ele>2140.99</ele>
        <time>2015-06-04T13:10:54Z</time>
      </trkpt>
      <trkpt lat="42.45143" lon="2.23858">
        <ele>2141.95</ele>
        <time>2015-06-04T13:11:06Z</time>
      </trkpt>
      <trkpt lat="42.45137" lon="2.23863">
        <ele>2142.44</ele>
        <time>2015-06-04T13:11:19Z</time>
      </trkpt>
      <trkpt lat="42.45132" lon="2.23872">
        <ele>2142.92</ele>
        <time>2015-06-04T13:11:32Z</time>
      </trkpt>
      <trkpt lat="42.4513" lon="2.23869">
        <ele>2143.4</ele>
        <time>2015-06-04T13:11:48Z</time>
      </trkpt>
      <trkpt lat="42.45126" lon="2.23872">
        <ele>2143.88</ele>
        <time>2015-06-04T13:12:01Z</time>
      </trkpt>
      <trkpt lat="42.45116" lon="2.23872">
        <ele>2145.8</ele>
        <time>2015-06-04T13:12:15Z</time>
      </trkpt>
      <trkpt lat="42.45111" lon="2.23869">
        <ele>2147.24</ele>
        <time>2015-06-04T13:12:26Z</time>
      </trkpt>
      <trkpt lat="42.45103" lon="2.23865">
        <ele>2147.72</ele>
        <time>2015-06-04T13:12:40Z</time>
      </trkpt>
      <trkpt lat="42.45096" lon="2.23864">
        <ele>2148.2</ele>
        <time>2015-06-04T13:12:54Z</time>
      </trkpt>
      <trkpt lat="42.45089" lon="2.23863">
        <ele>2149.65</ele>
        <time>2015-06-04T13:13:06Z</time>
      </trkpt>
      <trkpt lat="42.45081" lon="2.23865">
        <ele>2150.13</ele>
        <time>2015-06-04T13:13:19Z</time>
      </trkpt>
      <trkpt lat="42.45076" lon="2.23865">
        <ele>2151.57</ele>
        <time>2015-06-04T13:13:33Z</time>
      </trkpt>
      <trkpt lat="42.45071" lon="2.23867">
        <ele>2152.05</ele>
        <time>2015-06-04T13:13:46Z</time>
      </trkpt>
      <trkpt lat="42.45067" lon="2.2387">
        <ele>2153.97</ele>
        <time>2015-06-04T13:14:00Z</time>
      </trkpt>
      <trkpt lat="42.45062" lon="2.23873">
        <ele>2155.89</ele>
        <time>2015-06-04T13:14:13Z</time>
      </trkpt>
      <trkpt lat="42.45065" lon="2.23876">
        <ele>2157.34</ele>
        <time>2015-06-04T13:14:24Z</time>
      </trkpt>
      <trkpt lat="42.4507" lon="2.23878">
        <ele>2158.78</ele>
        <time>2015-06-04T13:14:35Z</time>
      </trkpt>
      <trkpt lat="42.45074" lon="2.2388">
        <ele>2161.18</ele>
        <time>2015-06-04T13:14:51Z</time>
      </trkpt>
      <trkpt lat="42.45068" lon="2.23886">
        <ele>2162.62</ele>
        <time>2015-06-04T13:15:05Z</time>
      </trkpt>
      <trkpt lat="42.45063" lon="2.2389">
        <ele>2164.06</ele>
        <time>2015-06-04T13:15:18Z</time>
      </trkpt>
      <trkpt lat="42.4506" lon="2.23895">
        <ele>2165.51</ele>
        <time>2015-06-04T13:15:34Z</time>
      </trkpt>
      <trkpt lat="42.45059" lon="2.23896">
        <ele>2165.51</ele>
        <time>2015-06-04T13:15:52Z</time>
      </trkpt>
      <trkpt lat="42.4506" lon="2.23894">
        <ele>2165.51</ele>
        <time>2015-06-04T13:16:10Z</time>
      </trkpt>
      <trkpt lat="42.45059" lon="2.23895">
        <ele>2165.99</ele>
        <time>2015-06-04T13:16:40Z</time>
      </trkpt>
      <trkpt lat="42.45055" lon="2.239">
        <ele>2166.47</ele>
        <time>2015-06-04T13:16:47Z</time>
      </trkpt>
      <trkpt lat="42.45054" lon="2.23903">
        <ele>2166.47</ele>
        <time>2015-06-04T13:16:49Z</time>
      </trkpt>
      <trkpt lat="42.45051" lon="2.23909">
        <ele>2167.43</ele>
        <time>2015-06-04T13:16:55Z</time>
      </trkpt>
      <trkpt lat="42.45049" lon="2.23918">
        <ele>2168.87</ele>
        <time>2015-06-04T13:17:04Z</time>
      </trkpt>
      <trkpt lat="42.45041" lon="2.2393">
        <ele>2169.35</ele>
        <time>2015-06-04T13:17:18Z</time>
      </trkpt>
      <trkpt lat="42.4504" lon="2.2393">
        <ele>2170.31</ele>
        <time>2015-06-04T13:17:19Z</time>
      </trkpt>
      <trkpt lat="42.45038" lon="2.23934">
        <ele>2169.83</ele>
        <time>2015-06-04T13:17:23Z</time>
      </trkpt>
      <trkpt lat="42.4503" lon="2.2394">
        <ele>2171.27</ele>
        <time>2015-06-04T13:17:34Z</time>
      </trkpt>
      <trkpt lat="42.45023" lon="2.23946">
        <ele>2171.76</ele>
        <time>2015-06-04T13:17:45Z</time>
      </trkpt>
      <trkpt lat="42.45019" lon="2.23952">
        <ele>2174.16</ele>
        <time>2015-06-04T13:17:56Z</time>
      </trkpt>
      <trkpt lat="42.45016" lon="2.23956">
        <ele>2174.64</ele>
        <time>2015-06-04T13:18:02Z</time>
      </trkpt>
      <trkpt lat="42.45008" lon="2.23966">
        <ele>2175.6</ele>
        <time>2015-06-04T13:18:15Z</time>
      </trkpt>
      <trkpt lat="42.45002" lon="2.23967">
        <ele>2177.04</ele>
        <time>2015-06-04T13:18:23Z</time>
      </trkpt>
      <trkpt lat="42.44995" lon="2.23972">
        <ele>2178.48</ele>
        <time>2015-06-04T13:18:36Z</time>
      </trkpt>
      <trkpt lat="42.44989" lon="2.23979">
        <ele>2179.93</ele>
        <time>2015-06-04T13:18:48Z</time>
      </trkpt>
      <trkpt lat="42.44984" lon="2.23987">
        <ele>2181.37</ele>
        <time>2015-06-04T13:19:00Z</time>
      </trkpt>
      <trkpt lat="42.44977" lon="2.23984">
        <ele>2182.81</ele>
        <time>2015-06-04T13:19:14Z</time>
      </trkpt>
      <trkpt lat="42.44969" lon="2.23984">
        <ele>2184.73</ele>
        <time>2015-06-04T13:19:26Z</time>
      </trkpt>
      <trkpt lat="42.44966" lon="2.23987">
        <ele>2187.14</ele>
        <time>2015-06-04T13:19:37Z</time>
      </trkpt>
      <trkpt lat="42.44959" lon="2.23993">
        <ele>2188.58</ele>
        <time>2015-06-04T13:19:51Z</time>
      </trkpt>
      <trkpt lat="42.44951" lon="2.23997">
        <ele>2190.02</ele>
        <time>2015-06-04T13:20:04Z</time>
      </trkpt>
      <trkpt lat="42.44945" lon="2.24001">
        <ele>2191.46</ele>
        <time>2015-06-04T13:20:18Z</time>
      </trkpt>
      <trkpt lat="42.44938" lon="2.24001">
        <ele>2193.87</ele>
        <time>2015-06-04T13:20:31Z</time>
      </trkpt>
      <trkpt lat="42.44934" lon="2.24002">
        <ele>2195.31</ele>
        <time>2015-06-04T13:20:43Z</time>
      </trkpt>
      <trkpt lat="42.44934" lon="2.24002">
        <ele>2196.27</ele>
        <time>2015-06-04T13:21:02Z</time>
      </trkpt>
      <trkpt lat="42.44932" lon="2.24006">
        <ele>2197.71</ele>
        <time>2015-06-04T13:21:23Z</time>
      </trkpt>
      <trkpt lat="42.44927" lon="2.24011">
        <ele>2198.67</ele>
        <time>2015-06-04T13:21:33Z</time>
      </trkpt>
      <trkpt lat="42.44928" lon="2.24021">
        <ele>2199.63</ele>
        <time>2015-06-04T13:21:44Z</time>
      </trkpt>
      <trkpt lat="42.44925" lon="2.24031">
        <ele>2202.04</ele>
        <time>2015-06-04T13:21:56Z</time>
      </trkpt>
      <trkpt lat="42.44924" lon="2.24039">
        <ele>2202.52</ele>
        <time>2015-06-04T13:22:05Z</time>
      </trkpt>
      <trkpt lat="42.44923" lon="2.24052">
        <ele>2203.48</ele>
        <time>2015-06-04T13:22:18Z</time>
      </trkpt>
      <trkpt lat="42.44923" lon="2.24053">
        <ele>2203.48</ele>
        <time>2015-06-04T13:22:19Z</time>
      </trkpt>
      <trkpt lat="42.44925" lon="2.24067">
        <ele>2204.44</ele>
        <time>2015-06-04T13:22:32Z</time>
      </trkpt>
      <trkpt lat="42.44921" lon="2.24072">
        <ele>2206.36</ele>
        <time>2015-06-04T13:22:43Z</time>
      </trkpt>
      <trkpt lat="42.44918" lon="2.24074">
        <ele>2207.32</ele>
        <time>2015-06-04T13:22:57Z</time>
      </trkpt>
      <trkpt lat="42.44914" lon="2.24076">
        <ele>2209.25</ele>
        <time>2015-06-04T13:23:10Z</time>
      </trkpt>
      <trkpt lat="42.44911" lon="2.24084">
        <ele>2211.17</ele>
        <time>2015-06-04T13:23:22Z</time>
      </trkpt>
      <trkpt lat="42.44908" lon="2.24093">
        <ele>2213.09</ele>
        <time>2015-06-04T13:23:36Z</time>
      </trkpt>
      <trkpt lat="42.44906" lon="2.24101">
        <ele>2214.53</ele>
        <time>2015-06-04T13:23:48Z</time>
      </trkpt>
      <trkpt lat="42.44904" lon="2.24107">
        <ele>2215.01</ele>
        <time>2015-06-04T13:23:55Z</time>
      </trkpt>
      <trkpt lat="42.44898" lon="2.24116">
        <ele>2216.46</ele>
        <time>2015-06-04T13:24:09Z</time>
      </trkpt>
      <trkpt lat="42.44893" lon="2.24123">
        <ele>2219.34</ele>
        <time>2015-06-04T13:24:22Z</time>
      </trkpt>
      <trkpt lat="42.44891" lon="2.24131">
        <ele>2221.26</ele>
        <time>2015-06-04T13:24:36Z</time>
      </trkpt>
      <trkpt lat="42.44887" lon="2.24136">
        <ele>2222.71</ele>
        <time>2015-06-04T13:24:49Z</time>
      </trkpt>
      <trkpt lat="42.44884" lon="2.24143">
        <ele>2225.59</ele>
        <time>2015-06-04T13:25:02Z</time>
      </trkpt>
      <trkpt lat="42.44878" lon="2.24147">
        <ele>2227.03</ele>
        <time>2015-06-04T13:25:15Z</time>
      </trkpt>
      <trkpt lat="42.44875" lon="2.24156">
        <ele>2228.47</ele>
        <time>2015-06-04T13:25:28Z</time>
      </trkpt>
      <trkpt lat="42.44867" lon="2.24159">
        <ele>2228.95</ele>
        <time>2015-06-04T13:25:42Z</time>
      </trkpt>
      <trkpt lat="42.44861" lon="2.24167">
        <ele>2230.4</ele>
        <time>2015-06-04T13:25:57Z</time>
      </trkpt>
      <trkpt lat="42.44859" lon="2.24174">
        <ele>2232.32</ele>
        <time>2015-06-04T13:26:11Z</time>
      </trkpt>
      <trkpt lat="42.4485" lon="2.24175">
        <ele>2233.28</ele>
        <time>2015-06-04T13:26:23Z</time>
      </trkpt>
      <trkpt lat="42.44841" lon="2.24175">
        <ele>2235.68</ele>
        <time>2015-06-04T13:26:40Z</time>
      </trkpt>
      <trkpt lat="42.44836" lon="2.24174">
        <ele>2238.09</ele>
        <time>2015-06-04T13:26:54Z</time>
      </trkpt>
      <trkpt lat="42.44832" lon="2.24176">
        <ele>2239.05</ele>
        <time>2015-06-04T13:27:06Z</time>
      </trkpt>
      <trkpt lat="42.44827" lon="2.24176">
        <ele>2240.97</ele>
        <time>2015-06-04T13:27:17Z</time>
      </trkpt>
      <trkpt lat="42.4482" lon="2.24176">
        <ele>2242.41</ele>
        <time>2015-06-04T13:27:35Z</time>
      </trkpt>
      <trkpt lat="42.44815" lon="2.24172">
        <ele>2243.37</ele>
        <time>2015-06-04T13:27:48Z</time>
      </trkpt>
      <trkpt lat="42.44811" lon="2.24173">
        <ele>2243.85</ele>
        <time>2015-06-04T13:27:58Z</time>
      </trkpt>
      <trkpt lat="42.44812" lon="2.24175">
        <ele>2245.3</ele>
        <time>2015-06-04T13:28:13Z</time>
      </trkpt>
      <trkpt lat="42.44808" lon="2.24176">
        <ele>2245.78</ele>
        <time>2015-06-04T13:28:25Z</time>
      </trkpt>
      <trkpt lat="42.44804" lon="2.24177">
        <ele>2245.78</ele>
        <time>2015-06-04T13:28:34Z</time>
      </trkpt>
      <trkpt lat="42.44797" lon="2.24178">
        <ele>2247.22</ele>
        <time>2015-06-04T13:28:46Z</time>
      </trkpt>
      <trkpt lat="42.44792" lon="2.24177">
        <ele>2247.7</ele>
        <time>2015-06-04T13:28:58Z</time>
      </trkpt>
      <trkpt lat="42.44788" lon="2.24178">
        <ele>2247.7</ele>
        <time>2015-06-04T13:29:10Z</time>
      </trkpt>
      <trkpt lat="42.44783" lon="2.24178">
        <ele>2247.7</ele>
        <time>2015-06-04T13:29:22Z</time>
      </trkpt>
      <trkpt lat="42.4478" lon="2.24178">
        <ele>2248.66</ele>
        <time>2015-06-04T13:29:35Z</time>
      </trkpt>
      <trkpt lat="42.44773" lon="2.24171">
        <ele>2249.14</ele>
        <time>2015-06-04T13:29:49Z</time>
      </trkpt>
      <trkpt lat="42.4477" lon="2.24171">
        <ele>2250.58</ele>
        <time>2015-06-04T13:30:01Z</time>
      </trkpt>
      <trkpt lat="42.44765" lon="2.24172">
        <ele>2251.06</ele>
        <time>2015-06-04T13:30:15Z</time>
      </trkpt>
      <trkpt lat="42.44762" lon="2.2417">
        <ele>2251.06</ele>
        <time>2015-06-04T13:30:28Z</time>
      </trkpt>
      <trkpt lat="42.44758" lon="2.24173">
        <ele>2251.06</ele>
        <time>2015-06-04T13:30:40Z</time>
      </trkpt>
      <trkpt lat="42.44756" lon="2.24172">
        <ele>2251.06</ele>
        <time>2015-06-04T13:30:52Z</time>
      </trkpt>
      <trkpt lat="42.44753" lon="2.24173">
        <ele>2251.54</ele>
        <time>2015-06-04T13:31:04Z</time>
      </trkpt>
      <trkpt lat="42.4475" lon="2.24171">
        <ele>2252.51</ele>
        <time>2015-06-04T13:31:24Z</time>
      </trkpt>
      <trkpt lat="42.44752" lon="2.24171">
        <ele>2251.54</ele>
        <time>2015-06-04T13:31:46Z</time>
      </trkpt>
      <trkpt lat="42.44745" lon="2.24172">
        <ele>2252.99</ele>
        <time>2015-06-04T13:31:59Z</time>
      </trkpt>
      <trkpt lat="42.44741" lon="2.24168">
        <ele>2253.47</ele>
        <time>2015-06-04T13:32:13Z</time>
      </trkpt>
      <trkpt lat="42.44742" lon="2.24164">
        <ele>2253.47</ele>
        <time>2015-06-04T13:32:29Z</time>
      </trkpt>
      <trkpt lat="42.44744" lon="2.24165">
        <ele>2253.95</ele>
        <time>2015-06-04T13:32:45Z</time>
      </trkpt>
      <trkpt lat="42.44742" lon="2.24163">
        <ele>2253.95</ele>
        <time>2015-06-04T13:33:09Z</time>
      </trkpt>
      <trkpt lat="42.44741" lon="2.24165">
        <ele>2253.95</ele>
        <time>2015-06-04T13:33:30Z</time>
      </trkpt>
      <trkpt lat="42.44743" lon="2.24161">
        <ele>2252.99</ele>
        <time>2015-06-04T13:33:43Z</time>
      </trkpt>
      <trkpt lat="42.44743" lon="2.24157">
        <ele>2251.54</ele>
        <time>2015-06-04T13:33:56Z</time>
      </trkpt>
      <trkpt lat="42.44737" lon="2.24155">
        <ele>2250.1</ele>
        <time>2015-06-04T13:34:11Z</time>
      </trkpt>
      <trkpt lat="42.44732" lon="2.24155">
        <ele>2249.14</ele>
        <time>2015-06-04T13:34:25Z</time>
      </trkpt>
      <trkpt lat="42.44723" lon="2.24153">
        <ele>2247.22</ele>
        <time>2015-06-04T13:34:39Z</time>
      </trkpt>
      <trkpt lat="42.44716" lon="2.24148">
        <ele>2245.78</ele>
        <time>2015-06-04T13:34:53Z</time>
      </trkpt>
      <trkpt lat="42.44712" lon="2.24144">
        <ele>2244.82</ele>
        <time>2015-06-04T13:35:09Z</time>
      </trkpt>
      <trkpt lat="42.4471" lon="2.24138">
        <ele>2243.37</ele>
        <time>2015-06-04T13:35:23Z</time>
      </trkpt>
      <trkpt lat="42.44705" lon="2.24132">
        <ele>2241.93</ele>
        <time>2015-06-04T13:35:39Z</time>
      </trkpt>
      <trkpt lat="42.44703" lon="2.24126">
        <ele>2240.49</ele>
        <time>2015-06-04T13:35:50Z</time>
      </trkpt>
      <trkpt lat="42.44702" lon="2.2412">
        <ele>2238.09</ele>
        <time>2015-06-04T13:36:07Z</time>
      </trkpt>
      <trkpt lat="42.447" lon="2.24117">
        <ele>2237.61</ele>
        <time>2015-06-04T13:36:21Z</time>
      </trkpt>
      <trkpt lat="42.44698" lon="2.24117">
        <ele>2239.05</ele>
        <time>2015-06-04T13:36:47Z</time>
      </trkpt>
      <trkpt lat="42.44701" lon="2.24115">
        <ele>2237.61</ele>
        <time>2015-06-04T13:36:52Z</time>
      </trkpt>
      <trkpt lat="42.44696" lon="2.24116">
        <ele>2237.13</ele>
        <time>2015-06-04T13:37:06Z</time>
      </trkpt>
      <trkpt lat="42.44688" lon="2.24112">
        <ele>2235.68</ele>
        <time>2015-06-04T13:37:19Z</time>
      </trkpt>
      <trkpt lat="42.44687" lon="2.2411">
        <ele>2235.68</ele>
        <time>2015-06-04T13:37:23Z</time>
      </trkpt>
      <trkpt lat="42.44683" lon="2.24109">
        <ele>2234.72</ele>
        <time>2015-06-04T13:37:27Z</time>
      </trkpt>
      <trkpt lat="42.44678" lon="2.24104">
        <ele>2235.2</ele>
        <time>2015-06-04T13:37:42Z</time>
      </trkpt>
      <trkpt lat="42.44675" lon="2.24108">
        <ele>2235.2</ele>
        <time>2015-06-04T13:37:59Z</time>
      </trkpt>
      <trkpt lat="42.44674" lon="2.24107">
        <ele>2236.64</ele>
        <time>2015-06-04T13:38:02Z</time>
      </trkpt>
      <trkpt lat="42.44672" lon="2.24105">
        <ele>2236.64</ele>
        <time>2015-06-04T13:38:24Z</time>
      </trkpt>
      <trkpt lat="42.44675" lon="2.24103">
        <ele>2237.61</ele>
        <time>2015-06-04T13:38:43Z</time>
      </trkpt>
      <trkpt lat="42.44676" lon="2.24103">
        <ele>2236.16</ele>
        <time>2015-06-04T13:39:08Z</time>
      </trkpt>
      <trkpt lat="42.44676" lon="2.24102">
        <ele>2236.64</ele>
        <time>2015-06-04T13:39:26Z</time>
      </trkpt>
      <trkpt lat="42.44678" lon="2.24102">
        <ele>2236.64</ele>
        <time>2015-06-04T13:39:43Z</time>
      </trkpt>
      <trkpt lat="42.44675" lon="2.24103">
        <ele>2236.64</ele>
        <time>2015-06-04T13:40:02Z</time>
      </trkpt>
      <trkpt lat="42.44671" lon="2.24103">
        <ele>2238.09</ele>
        <time>2015-06-04T13:40:24Z</time>
      </trkpt>
      <trkpt lat="42.44671" lon="2.241">
        <ele>2238.09</ele>
        <time>2015-06-04T13:40:38Z</time>
      </trkpt>
      <trkpt lat="42.44672" lon="2.24096">
        <ele>2238.09</ele>
        <time>2015-06-04T13:40:53Z</time>
      </trkpt>
      <trkpt lat="42.44676" lon="2.24093">
        <ele>2236.64</ele>
        <time>2015-06-04T13:40:59Z</time>
      </trkpt>
      <trkpt lat="42.44682" lon="2.24084">
        <ele>2236.64</ele>
        <time>2015-06-04T13:41:13Z</time>
      </trkpt>
      <trkpt lat="42.44685" lon="2.24078">
        <ele>2236.16</ele>
        <time>2015-06-04T13:41:25Z</time>
      </trkpt>
      <trkpt lat="42.44686" lon="2.24077">
        <ele>2236.16</ele>
        <time>2015-06-04T13:41:42Z</time>
      </trkpt>
      <trkpt lat="42.44693" lon="2.24069">
        <ele>2233.76</ele>
        <time>2015-06-04T13:41:58Z</time>
      </trkpt>
      <trkpt lat="42.44696" lon="2.24066">
        <ele>2233.28</ele>
        <time>2015-06-04T13:42:15Z</time>
      </trkpt>
      <trkpt lat="42.44691" lon="2.2407">
        <ele>2234.72</ele>
        <time>2015-06-04T13:42:30Z</time>
      </trkpt>
      <trkpt lat="42.44695" lon="2.2407">
        <ele>2234.72</ele>
        <time>2015-06-04T13:42:43Z</time>
      </trkpt>
      <trkpt lat="42.44698" lon="2.24066">
        <ele>2233.76</ele>
        <time>2015-06-04T13:43:01Z</time>
      </trkpt>
      <trkpt lat="42.44703" lon="2.24057">
        <ele>2233.28</ele>
        <time>2015-06-04T13:43:16Z</time>
      </trkpt>
      <trkpt lat="42.44713" lon="2.24052">
        <ele>2230.4</ele>
        <time>2015-06-04T13:43:30Z</time>
      </trkpt>
      <trkpt lat="42.44721" lon="2.24049">
        <ele>2229.43</ele>
        <time>2015-06-04T13:43:42Z</time>
      </trkpt>
      <trkpt lat="42.44733" lon="2.2405">
        <ele>2227.51</ele>
        <time>2015-06-04T13:43:56Z</time>
      </trkpt>
      <trkpt lat="42.44745" lon="2.24048">
        <ele>2226.55</ele>
        <time>2015-06-04T13:44:11Z</time>
      </trkpt>
      <trkpt lat="42.44748" lon="2.24046">
        <ele>2226.55</ele>
        <time>2015-06-04T13:44:15Z</time>
      </trkpt>
      <trkpt lat="42.44752" lon="2.24045">
        <ele>2225.59</ele>
        <time>2015-06-04T13:44:19Z</time>
      </trkpt>
      <trkpt lat="42.44762" lon="2.24037">
        <ele>2223.67</ele>
        <time>2015-06-04T13:44:34Z</time>
      </trkpt>
      <trkpt lat="42.44772" lon="2.2403">
        <ele>2221.74</ele>
        <time>2015-06-04T13:44:49Z</time>
      </trkpt>
      <trkpt lat="42.44773" lon="2.2403">
        <ele>2221.26</ele>
        <time>2015-06-04T13:44:51Z</time>
      </trkpt>
      <trkpt lat="42.44784" lon="2.24028">
        <ele>2220.3</ele>
        <time>2015-06-04T13:45:07Z</time>
      </trkpt>
      <trkpt lat="42.44787" lon="2.24022">
        <ele>2218.86</ele>
        <time>2015-06-04T13:45:22Z</time>
      </trkpt>
      <trkpt lat="42.44785" lon="2.24025">
        <ele>2218.86</ele>
        <time>2015-06-04T13:45:49Z</time>
      </trkpt>
      <trkpt lat="42.44788" lon="2.24022">
        <ele>2218.86</ele>
        <time>2015-06-04T13:46:16Z</time>
      </trkpt>
      <trkpt lat="42.44792" lon="2.24018">
        <ele>2218.38</ele>
        <time>2015-06-04T13:46:35Z</time>
      </trkpt>
      <trkpt lat="42.44798" lon="2.24012">
        <ele>2215.98</ele>
        <time>2015-06-04T13:46:50Z</time>
      </trkpt>
      <trkpt lat="42.44803" lon="2.24006">
        <ele>2214.53</ele>
        <time>2015-06-04T13:47:04Z</time>
      </trkpt>
      <trkpt lat="42.44812" lon="2.24004">
        <ele>2212.61</ele>
        <time>2015-06-04T13:47:17Z</time>
      </trkpt>
      <trkpt lat="42.44819" lon="2.24004">
        <ele>2210.69</ele>
        <time>2015-06-04T13:47:29Z</time>
      </trkpt>
      <trkpt lat="42.44829" lon="2.24">
        <ele>2208.77</ele>
        <time>2015-06-04T13:47:42Z</time>
      </trkpt>
      <trkpt lat="42.44837" lon="2.24002">
        <ele>2207.32</ele>
        <time>2015-06-04T13:47:55Z</time>
      </trkpt>
      <trkpt lat="42.4484" lon="2.24001">
        <ele>2206.84</ele>
        <time>2015-06-04T13:48:10Z</time>
      </trkpt>
      <trkpt lat="42.4484" lon="2.23998">
        <ele>2206.36</ele>
        <time>2015-06-04T13:48:34Z</time>
      </trkpt>
      <trkpt lat="42.44842" lon="2.23984">
        <ele>2206.84</ele>
        <time>2015-06-04T13:48:49Z</time>
      </trkpt>
      <trkpt lat="42.44851" lon="2.23974">
        <ele>2205.4</ele>
        <time>2015-06-04T13:49:01Z</time>
      </trkpt>
      <trkpt lat="42.44854" lon="2.2397">
        <ele>2204.44</ele>
        <time>2015-06-04T13:49:08Z</time>
      </trkpt>
      <trkpt lat="42.44863" lon="2.23963">
        <ele>2201.56</ele>
        <time>2015-06-04T13:49:19Z</time>
      </trkpt>
      <trkpt lat="42.44864" lon="2.23952">
        <ele>2200.59</ele>
        <time>2015-06-04T13:49:30Z</time>
      </trkpt>
      <trkpt lat="42.44876" lon="2.23941">
        <ele>2197.23</ele>
        <time>2015-06-04T13:49:45Z</time>
      </trkpt>
      <trkpt lat="42.4488" lon="2.23944">
        <ele>2195.79</ele>
        <time>2015-06-04T13:49:58Z</time>
      </trkpt>
      <trkpt lat="42.4488" lon="2.23944">
        <ele>2195.79</ele>
        <time>2015-06-04T13:50:17Z</time>
      </trkpt>
      <trkpt lat="42.44879" lon="2.23939">
        <ele>2195.79</ele>
        <time>2015-06-04T13:50:23Z</time>
      </trkpt>
      <trkpt lat="42.44883" lon="2.23925">
        <ele>2194.83</ele>
        <time>2015-06-04T13:50:35Z</time>
      </trkpt>
      <trkpt lat="42.4489" lon="2.23918">
        <ele>2192.9</ele>
        <time>2015-06-04T13:50:48Z</time>
      </trkpt>
      <trkpt lat="42.44895" lon="2.23914">
        <ele>2192.42</ele>
        <time>2015-06-04T13:51:02Z</time>
      </trkpt>
      <trkpt lat="42.44899" lon="2.2391">
        <ele>2190.98</ele>
        <time>2015-06-04T13:51:16Z</time>
      </trkpt>
      <trkpt lat="42.44903" lon="2.23901">
        <ele>2189.06</ele>
        <time>2015-06-04T13:51:29Z</time>
      </trkpt>
      <trkpt lat="42.44908" lon="2.23895">
        <ele>2189.06</ele>
        <time>2015-06-04T13:51:42Z</time>
      </trkpt>
      <trkpt lat="42.44913" lon="2.23893">
        <ele>2188.58</ele>
        <time>2015-06-04T13:51:58Z</time>
      </trkpt>
      <trkpt lat="42.44919" lon="2.23888">
        <ele>2188.1</ele>
        <time>2015-06-04T13:52:10Z</time>
      </trkpt>
      <trkpt lat="42.44926" lon="2.23881">
        <ele>2187.14</ele>
        <time>2015-06-04T13:52:25Z</time>
      </trkpt>
      <trkpt lat="42.44935" lon="2.2388">
        <ele>2186.18</ele>
        <time>2015-06-04T13:52:38Z</time>
      </trkpt>
      <trkpt lat="42.44945" lon="2.23873">
        <ele>2184.25</ele>
        <time>2015-06-04T13:52:53Z</time>
      </trkpt>
      <trkpt lat="42.44948" lon="2.23871">
        <ele>2184.25</ele>
        <time>2015-06-04T13:53:05Z</time>
      </trkpt>
      <trkpt lat="42.4495" lon="2.23869">
        <ele>2183.77</ele>
        <time>2015-06-04T13:53:09Z</time>
      </trkpt>
      <trkpt lat="42.44954" lon="2.23868">
        <ele>2183.29</ele>
        <time>2015-06-04T13:53:13Z</time>
      </trkpt>
      <trkpt lat="42.44965" lon="2.2386">
        <ele>2182.33</ele>
        <time>2015-06-04T13:53:30Z</time>
      </trkpt>
      <trkpt lat="42.44974" lon="2.23861">
        <ele>2180.41</ele>
        <time>2015-06-04T13:53:43Z</time>
      </trkpt>
      <trkpt lat="42.44985" lon="2.23852">
        <ele>2179.93</ele>
        <time>2015-06-04T13:53:58Z</time>
      </trkpt>
      <trkpt lat="42.4499" lon="2.23852">
        <ele>2179.45</ele>
        <time>2015-06-04T13:54:11Z</time>
      </trkpt>
      <trkpt lat="42.44992" lon="2.23855">
        <ele>2178.97</ele>
        <time>2015-06-04T13:54:28Z</time>
      </trkpt>
      <trkpt lat="42.44993" lon="2.23859">
        <ele>2178.97</ele>
        <time>2015-06-04T13:54:39Z</time>
      </trkpt>
      <trkpt lat="42.44992" lon="2.23865">
        <ele>2178.48</ele>
        <time>2015-06-04T13:54:55Z</time>
      </trkpt>
      <trkpt lat="42.44989" lon="2.23868">
        <ele>2179.45</ele>
        <time>2015-06-04T13:55:02Z</time>
      </trkpt>
      <trkpt lat="42.44984" lon="2.23877">
        <ele>2179.45</ele>
        <time>2015-06-04T13:55:16Z</time>
      </trkpt>
      <trkpt lat="42.44981" lon="2.2388">
        <ele>2179.45</ele>
        <time>2015-06-04T13:55:30Z</time>
      </trkpt>
      <trkpt lat="42.44978" lon="2.23886">
        <ele>2178.48</ele>
        <time>2015-06-04T13:55:46Z</time>
      </trkpt>
      <trkpt lat="42.44982" lon="2.23885">
        <ele>2178.48</ele>
        <time>2015-06-04T13:56:00Z</time>
      </trkpt>
      <trkpt lat="42.44987" lon="2.23885">
        <ele>2179.93</ele>
        <time>2015-06-04T13:56:13Z</time>
      </trkpt>
      <trkpt lat="42.44992" lon="2.23886">
        <ele>2180.41</ele>
        <time>2015-06-04T13:56:25Z</time>
      </trkpt>
      <trkpt lat="42.44994" lon="2.23882">
        <ele>2180.41</ele>
        <time>2015-06-04T13:56:32Z</time>
      </trkpt>
      <trkpt lat="42.44997" lon="2.2388">
        <ele>2178.97</ele>
        <time>2015-06-04T13:56:36Z</time>
      </trkpt>
      <trkpt lat="42.45004" lon="2.23881">
        <ele>2178</ele>
        <time>2015-06-04T13:56:47Z</time>
      </trkpt>
      <trkpt lat="42.45006" lon="2.23872">
        <ele>2176.56</ele>
        <time>2015-06-04T13:57:01Z</time>
      </trkpt>
      <trkpt lat="42.45013" lon="2.23871">
        <ele>2175.12</ele>
        <time>2015-06-04T13:57:15Z</time>
      </trkpt>
      <trkpt lat="42.45019" lon="2.23868">
        <ele>2173.2</ele>
        <time>2015-06-04T13:57:26Z</time>
      </trkpt>
      <trkpt lat="42.45024" lon="2.23863">
        <ele>2170.79</ele>
        <time>2015-06-04T13:57:40Z</time>
      </trkpt>
      <trkpt lat="42.45032" lon="2.23861">
        <ele>2169.83</ele>
        <time>2015-06-04T13:57:55Z</time>
      </trkpt>
      <trkpt lat="42.45037" lon="2.23857">
        <ele>2167.43</ele>
        <time>2015-06-04T13:58:10Z</time>
      </trkpt>
      <trkpt lat="42.45044" lon="2.23852">
        <ele>2165.51</ele>
        <time>2015-06-04T13:58:23Z</time>
      </trkpt>
      <trkpt lat="42.45052" lon="2.23845">
        <ele>2163.1</ele>
        <time>2015-06-04T13:58:37Z</time>
      </trkpt>
      <trkpt lat="42.4506" lon="2.23835">
        <ele>2161.66</ele>
        <time>2015-06-04T13:58:50Z</time>
      </trkpt>
      <trkpt lat="42.45064" lon="2.23828">
        <ele>2159.26</ele>
        <time>2015-06-04T13:58:59Z</time>
      </trkpt>
      <trkpt lat="42.45073" lon="2.23826">
        <ele>2158.3</ele>
        <time>2015-06-04T13:59:08Z</time>
      </trkpt>
      <trkpt lat="42.4508" lon="2.2383">
        <ele>2157.82</ele>
        <time>2015-06-04T13:59:20Z</time>
      </trkpt>
      <trkpt lat="42.45086" lon="2.23824">
        <ele>2155.41</ele>
        <time>2015-06-04T13:59:34Z</time>
      </trkpt>
      <trkpt lat="42.45092" lon="2.23821">
        <ele>2154.93</ele>
        <time>2015-06-04T13:59:46Z</time>
      </trkpt>
      <trkpt lat="42.45096" lon="2.23822">
        <ele>2153.97</ele>
        <time>2015-06-04T13:59:57Z</time>
      </trkpt>
      <trkpt lat="42.45102" lon="2.23823">
        <ele>2152.53</ele>
        <time>2015-06-04T14:00:11Z</time>
      </trkpt>
      <trkpt lat="42.45107" lon="2.23819">
        <ele>2150.61</ele>
        <time>2015-06-04T14:00:25Z</time>
      </trkpt>
      <trkpt lat="42.45113" lon="2.23819">
        <ele>2148.2</ele>
        <time>2015-06-04T14:00:38Z</time>
      </trkpt>
      <trkpt lat="42.45119" lon="2.2382">
        <ele>2145.32</ele>
        <time>2015-06-04T14:00:52Z</time>
      </trkpt>
      <trkpt lat="42.45123" lon="2.23815">
        <ele>2142.92</ele>
        <time>2015-06-04T14:01:06Z</time>
      </trkpt>
      <trkpt lat="42.4513" lon="2.23811">
        <ele>2141.95</ele>
        <time>2015-06-04T14:01:20Z</time>
      </trkpt>
      <trkpt lat="42.45137" lon="2.23803">
        <ele>2139.07</ele>
        <time>2015-06-04T14:01:33Z</time>
      </trkpt>
      <trkpt lat="42.45142" lon="2.23797">
        <ele>2137.63</ele>
        <time>2015-06-04T14:01:49Z</time>
      </trkpt>
      <trkpt lat="42.45148" lon="2.23798">
        <ele>2137.63</ele>
        <time>2015-06-04T14:02:01Z</time>
      </trkpt>
      <trkpt lat="42.45152" lon="2.23793">
        <ele>2137.15</ele>
        <time>2015-06-04T14:02:14Z</time>
      </trkpt>
      <trkpt lat="42.45159" lon="2.23788">
        <ele>2135.71</ele>
        <time>2015-06-04T14:02:28Z</time>
      </trkpt>
      <trkpt lat="42.45167" lon="2.23782">
        <ele>2134.74</ele>
        <time>2015-06-04T14:02:41Z</time>
      </trkpt>
      <trkpt lat="42.45172" lon="2.2377">
        <ele>2132.82</ele>
        <time>2015-06-04T14:02:55Z</time>
      </trkpt>
      <trkpt lat="42.45175" lon="2.23766">
        <ele>2132.34</ele>
        <time>2015-06-04T14:02:59Z</time>
      </trkpt>
      <trkpt lat="42.45182" lon="2.23763">
        <ele>2131.86</ele>
        <time>2015-06-04T14:03:07Z</time>
      </trkpt>
      <trkpt lat="42.45186" lon="2.23758">
        <ele>2131.86</ele>
        <time>2015-06-04T14:03:14Z</time>
      </trkpt>
      <trkpt lat="42.45196" lon="2.23744">
        <ele>2128.98</ele>
        <time>2015-06-04T14:03:30Z</time>
      </trkpt>
      <trkpt lat="42.45207" lon="2.23746">
        <ele>2127.05</ele>
        <time>2015-06-04T14:03:43Z</time>
      </trkpt>
      <trkpt lat="42.45214" lon="2.23737">
        <ele>2124.17</ele>
        <time>2015-06-04T14:03:55Z</time>
      </trkpt>
      <trkpt lat="42.45222" lon="2.23731">
        <ele>2122.73</ele>
        <time>2015-06-04T14:04:08Z</time>
      </trkpt>
      <trkpt lat="42.45228" lon="2.23733">
        <ele>2121.29</ele>
        <time>2015-06-04T14:04:21Z</time>
      </trkpt>
      <trkpt lat="42.45236" lon="2.23731">
        <ele>2119.84</ele>
        <time>2015-06-04T14:04:34Z</time>
      </trkpt>
      <trkpt lat="42.45247" lon="2.23728">
        <ele>2117.92</ele>
        <time>2015-06-04T14:04:48Z</time>
      </trkpt>
      <trkpt lat="42.45258" lon="2.23721">
        <ele>2116</ele>
        <time>2015-06-04T14:05:02Z</time>
      </trkpt>
      <trkpt lat="42.45259" lon="2.23722">
        <ele>2116</ele>
        <time>2015-06-04T14:05:03Z</time>
      </trkpt>
      <trkpt lat="42.45271" lon="2.23718">
        <ele>2114.56</ele>
        <time>2015-06-04T14:05:16Z</time>
      </trkpt>
      <trkpt lat="42.45273" lon="2.23718">
        <ele>2114.08</ele>
        <time>2015-06-04T14:05:20Z</time>
      </trkpt>
      <trkpt lat="42.45284" lon="2.23708">
        <ele>2112.15</ele>
        <time>2015-06-04T14:05:36Z</time>
      </trkpt>
      <trkpt lat="42.45285" lon="2.23707">
        <ele>2112.15</ele>
        <time>2015-06-04T14:05:38Z</time>
      </trkpt>
      <trkpt lat="42.45289" lon="2.23697">
        <ele>2109.75</ele>
        <time>2015-06-04T14:05:52Z</time>
      </trkpt>
      <trkpt lat="42.45289" lon="2.2369">
        <ele>2108.31</ele>
        <time>2015-06-04T14:06:03Z</time>
      </trkpt>
      <trkpt lat="42.45291" lon="2.2368">
        <ele>2106.39</ele>
        <time>2015-06-04T14:06:16Z</time>
      </trkpt>
      <trkpt lat="42.45297" lon="2.23671">
        <ele>2105.42</ele>
        <time>2015-06-04T14:06:28Z</time>
      </trkpt>
      <trkpt lat="42.45307" lon="2.23659">
        <ele>2104.94</ele>
        <time>2015-06-04T14:06:42Z</time>
      </trkpt>
      <trkpt lat="42.45313" lon="2.23646">
        <ele>2102.54</ele>
        <time>2015-06-04T14:06:55Z</time>
      </trkpt>
      <trkpt lat="42.45319" lon="2.23639">
        <ele>2101.1</ele>
        <time>2015-06-04T14:07:06Z</time>
      </trkpt>
      <trkpt lat="42.45324" lon="2.23631">
        <ele>2099.66</ele>
        <time>2015-06-04T14:07:19Z</time>
      </trkpt>
      <trkpt lat="42.45325" lon="2.2363">
        <ele>2099.18</ele>
        <time>2015-06-04T14:07:20Z</time>
      </trkpt>
      <trkpt lat="42.45332" lon="2.23621">
        <ele>2098.7</ele>
        <time>2015-06-04T14:07:33Z</time>
      </trkpt>
      <trkpt lat="42.45338" lon="2.23614">
        <ele>2098.21</ele>
        <time>2015-06-04T14:07:42Z</time>
      </trkpt>
      <trkpt lat="42.45343" lon="2.23601">
        <ele>2095.81</ele>
        <time>2015-06-04T14:07:56Z</time>
      </trkpt>
      <trkpt lat="42.4535" lon="2.2359">
        <ele>2093.41</ele>
        <time>2015-06-04T14:08:10Z</time>
      </trkpt>
      <trkpt lat="42.45355" lon="2.23585">
        <ele>2092.45</ele>
        <time>2015-06-04T14:08:19Z</time>
      </trkpt>
      <trkpt lat="42.4536" lon="2.23577">
        <ele>2091.49</ele>
        <time>2015-06-04T14:08:32Z</time>
      </trkpt>
      <trkpt lat="42.45368" lon="2.23574">
        <ele>2091</ele>
        <time>2015-06-04T14:08:44Z</time>
      </trkpt>
      <trkpt lat="42.45374" lon="2.23568">
        <ele>2090.04</ele>
        <time>2015-06-04T14:08:56Z</time>
      </trkpt>
      <trkpt lat="42.45381" lon="2.23562">
        <ele>2088.12</ele>
        <time>2015-06-04T14:09:09Z</time>
      </trkpt>
      <trkpt lat="42.45388" lon="2.23555">
        <ele>2086.68</ele>
        <time>2015-06-04T14:09:23Z</time>
      </trkpt>
      <trkpt lat="42.45395" lon="2.23555">
        <ele>2085.24</ele>
        <time>2015-06-04T14:09:35Z</time>
      </trkpt>
      <trkpt lat="42.45402" lon="2.2355">
        <ele>2083.79</ele>
        <time>2015-06-04T14:09:48Z</time>
      </trkpt>
      <trkpt lat="42.45403" lon="2.23545">
        <ele>2082.83</ele>
        <time>2015-06-04T14:10:01Z</time>
      </trkpt>
      <trkpt lat="42.45413" lon="2.23537">
        <ele>2082.35</ele>
        <time>2015-06-04T14:10:15Z</time>
      </trkpt>
      <trkpt lat="42.45414" lon="2.23535">
        <ele>2081.39</ele>
        <time>2015-06-04T14:10:17Z</time>
      </trkpt>
      <trkpt lat="42.45418" lon="2.23528">
        <ele>2080.43</ele>
        <time>2015-06-04T14:10:29Z</time>
      </trkpt>
      <trkpt lat="42.45419" lon="2.23518">
        <ele>2078.99</ele>
        <time>2015-06-04T14:10:42Z</time>
      </trkpt>
      <trkpt lat="42.45422" lon="2.23516">
        <ele>2077.55</ele>
        <time>2015-06-04T14:10:51Z</time>
      </trkpt>
      <trkpt lat="42.45423" lon="2.23516">
        <ele>2077.07</ele>
        <time>2015-06-04T14:10:52Z</time>
      </trkpt>
      <trkpt lat="42.45432" lon="2.23512">
        <ele>2075.62</ele>
        <time>2015-06-04T14:11:05Z</time>
      </trkpt>
      <trkpt lat="42.45435" lon="2.23507">
        <ele>2074.18</ele>
        <time>2015-06-04T14:11:17Z</time>
      </trkpt>
      <trkpt lat="42.45444" lon="2.23502">
        <ele>2072.74</ele>
        <time>2015-06-04T14:11:31Z</time>
      </trkpt>
      <trkpt lat="42.45448" lon="2.23496">
        <ele>2071.78</ele>
        <time>2015-06-04T14:11:43Z</time>
      </trkpt>
      <trkpt lat="42.45449" lon="2.23486">
        <ele>2069.86</ele>
        <time>2015-06-04T14:11:58Z</time>
      </trkpt>
      <trkpt lat="42.45453" lon="2.23466">
        <ele>2068.89</ele>
        <time>2015-06-04T14:12:10Z</time>
      </trkpt>
      <trkpt lat="42.45461" lon="2.23462">
        <ele>2067.93</ele>
        <time>2015-06-04T14:12:22Z</time>
      </trkpt>
      <trkpt lat="42.45467" lon="2.23452">
        <ele>2065.53</ele>
        <time>2015-06-04T14:12:38Z</time>
      </trkpt>
      <trkpt lat="42.4547" lon="2.23446">
        <ele>2064.09</ele>
        <time>2015-06-04T14:12:50Z</time>
      </trkpt>
      <trkpt lat="42.45471" lon="2.23434">
        <ele>2062.17</ele>
        <time>2015-06-04T14:13:04Z</time>
      </trkpt>
      <trkpt lat="42.4548" lon="2.23432">
        <ele>2059.76</ele>
        <time>2015-06-04T14:13:17Z</time>
      </trkpt>
      <trkpt lat="42.4548" lon="2.23426">
        <ele>2057.36</ele>
        <time>2015-06-04T14:13:29Z</time>
      </trkpt>
      <trkpt lat="42.45484" lon="2.23423">
        <ele>2054.47</ele>
        <time>2015-06-04T14:13:39Z</time>
      </trkpt>
      <trkpt lat="42.45488" lon="2.23415">
        <ele>2053.51</ele>
        <time>2015-06-04T14:13:51Z</time>
      </trkpt>
      <trkpt lat="42.4549" lon="2.23412">
        <ele>2052.55</ele>
        <time>2015-06-04T14:13:55Z</time>
      </trkpt>
      <trkpt lat="42.45495" lon="2.23404">
        <ele>2051.11</ele>
        <time>2015-06-04T14:14:05Z</time>
      </trkpt>
      <trkpt lat="42.45501" lon="2.23398">
        <ele>2049.67</ele>
        <time>2015-06-04T14:14:18Z</time>
      </trkpt>
      <trkpt lat="42.45508" lon="2.23394">
        <ele>2048.71</ele>
        <time>2015-06-04T14:14:31Z</time>
      </trkpt>
      <trkpt lat="42.45513" lon="2.23386">
        <ele>2047.26</ele>
        <time>2015-06-04T14:14:45Z</time>
      </trkpt>
      <trkpt lat="42.45517" lon="2.23376">
        <ele>2045.34</ele>
        <time>2015-06-04T14:14:59Z</time>
      </trkpt>
      <trkpt lat="42.45524" lon="2.2337">
        <ele>2043.42</ele>
        <time>2015-06-04T14:15:11Z</time>
      </trkpt>
      <trkpt lat="42.45533" lon="2.23372">
        <ele>2041.5</ele>
        <time>2015-06-04T14:15:25Z</time>
      </trkpt>
      <trkpt lat="42.45538" lon="2.23373">
        <ele>2040.54</ele>
        <time>2015-06-04T14:15:38Z</time>
      </trkpt>
      <trkpt lat="42.4554" lon="2.23374">
        <ele>2038.61</ele>
        <time>2015-06-04T14:15:42Z</time>
      </trkpt>
      <trkpt lat="42.45545" lon="2.23374">
        <ele>2037.65</ele>
        <time>2015-06-04T14:15:48Z</time>
      </trkpt>
      <trkpt lat="42.45557" lon="2.23368">
        <ele>2035.25</ele>
        <time>2015-06-04T14:16:03Z</time>
      </trkpt>
      <trkpt lat="42.45562" lon="2.23366">
        <ele>2034.29</ele>
        <time>2015-06-04T14:16:12Z</time>
      </trkpt>
      <trkpt lat="42.45569" lon="2.23366">
        <ele>2032.84</ele>
        <time>2015-06-04T14:16:21Z</time>
      </trkpt>
      <trkpt lat="42.45577" lon="2.23371">
        <ele>2030.92</ele>
        <time>2015-06-04T14:16:33Z</time>
      </trkpt>
      <trkpt lat="42.45583" lon="2.23378">
        <ele>2029</ele>
        <time>2015-06-04T14:16:45Z</time>
      </trkpt>
      <trkpt lat="42.4559" lon="2.23377">
        <ele>2026.6</ele>
        <time>2015-06-04T14:17:00Z</time>
      </trkpt>
      <trkpt lat="42.45597" lon="2.23373">
        <ele>2025.15</ele>
        <time>2015-06-04T14:17:10Z</time>
      </trkpt>
      <trkpt lat="42.45606" lon="2.23364">
        <ele>2023.23</ele>
        <time>2015-06-04T14:17:25Z</time>
      </trkpt>
      <trkpt lat="42.45609" lon="2.2336">
        <ele>2022.27</ele>
        <time>2015-06-04T14:17:31Z</time>
      </trkpt>
      <trkpt lat="42.45611" lon="2.23358">
        <ele>2021.79</ele>
        <time>2015-06-04T14:17:34Z</time>
      </trkpt>
      <trkpt lat="42.45613" lon="2.23349">
        <ele>2020.35</ele>
        <time>2015-06-04T14:17:47Z</time>
      </trkpt>
      <trkpt lat="42.45616" lon="2.23343">
        <ele>2020.35</ele>
        <time>2015-06-04T14:17:58Z</time>
      </trkpt>
      <trkpt lat="42.45617" lon="2.23341">
        <ele>2019.87</ele>
        <time>2015-06-04T14:18:02Z</time>
      </trkpt>
      <trkpt lat="42.45623" lon="2.23328">
        <ele>2017.46</ele>
        <time>2015-06-04T14:18:15Z</time>
      </trkpt>
      <trkpt lat="42.45625" lon="2.23321">
        <ele>2016.98</ele>
        <time>2015-06-04T14:18:24Z</time>
      </trkpt>
      <trkpt lat="42.45628" lon="2.23313">
        <ele>2016.02</ele>
        <time>2015-06-04T14:18:34Z</time>
      </trkpt>
      <trkpt lat="42.45631" lon="2.23309">
        <ele>2015.06</ele>
        <time>2015-06-04T14:18:38Z</time>
      </trkpt>
      <trkpt lat="42.45638" lon="2.23299">
        <ele>2012.18</ele>
        <time>2015-06-04T14:18:54Z</time>
      </trkpt>
      <trkpt lat="42.45645" lon="2.23292">
        <ele>2011.22</ele>
        <time>2015-06-04T14:19:07Z</time>
      </trkpt>
      <trkpt lat="42.45649" lon="2.23288">
        <ele>2010.25</ele>
        <time>2015-06-04T14:19:19Z</time>
      </trkpt>
      <trkpt lat="42.45646" lon="2.23283">
        <ele>2009.29</ele>
        <time>2015-06-04T14:19:31Z</time>
      </trkpt>
      <trkpt lat="42.45648" lon="2.23276">
        <ele>2008.33</ele>
        <time>2015-06-04T14:19:43Z</time>
      </trkpt>
      <trkpt lat="42.45652" lon="2.23264">
        <ele>2006.41</ele>
        <time>2015-06-04T14:19:56Z</time>
      </trkpt>
      <trkpt lat="42.45655" lon="2.23255">
        <ele>2006.41</ele>
        <time>2015-06-04T14:20:07Z</time>
      </trkpt>
      <trkpt lat="42.4566" lon="2.2325">
        <ele>2004.49</ele>
        <time>2015-06-04T14:20:20Z</time>
      </trkpt>
      <trkpt lat="42.45665" lon="2.23245">
        <ele>2003.52</ele>
        <time>2015-06-04T14:20:32Z</time>
      </trkpt>
      <trkpt lat="42.45672" lon="2.23237">
        <ele>2002.08</ele>
        <time>2015-06-04T14:20:45Z</time>
      </trkpt>
      <trkpt lat="42.45678" lon="2.23233">
        <ele>2001.12</ele>
        <time>2015-06-04T14:20:58Z</time>
      </trkpt>
      <trkpt lat="42.45681" lon="2.23232">
        <ele>2000.64</ele>
        <time>2015-06-04T14:21:11Z</time>
      </trkpt>
      <trkpt lat="42.45687" lon="2.23228">
        <ele>2000.64</ele>
        <time>2015-06-04T14:21:23Z</time>
      </trkpt>
      <trkpt lat="42.45688" lon="2.23229">
        <ele>2000.16</ele>
        <time>2015-06-04T14:21:37Z</time>
      </trkpt>
      <trkpt lat="42.45692" lon="2.23227">
        <ele>1999.2</ele>
        <time>2015-06-04T14:21:49Z</time>
      </trkpt>
      <trkpt lat="42.45699" lon="2.23224">
        <ele>1998.24</ele>
        <time>2015-06-04T14:22:00Z</time>
      </trkpt>
      <trkpt lat="42.45703" lon="2.23222">
        <ele>1997.28</ele>
        <time>2015-06-04T14:22:14Z</time>
      </trkpt>
      <trkpt lat="42.45701" lon="2.23219">
        <ele>1997.28</ele>
        <time>2015-06-04T14:22:25Z</time>
      </trkpt>
      <trkpt lat="42.45709" lon="2.23217">
        <ele>1996.32</ele>
        <time>2015-06-04T14:22:38Z</time>
      </trkpt>
      <trkpt lat="42.45713" lon="2.23214">
        <ele>1996.32</ele>
        <time>2015-06-04T14:22:49Z</time>
      </trkpt>
      <trkpt lat="42.45723" lon="2.23214">
        <ele>1995.35</ele>
        <time>2015-06-04T14:23:02Z</time>
      </trkpt>
      <trkpt lat="42.45725" lon="2.23212">
        <ele>1994.87</ele>
        <time>2015-06-04T14:23:06Z</time>
      </trkpt>
      <trkpt lat="42.45732" lon="2.23207">
        <ele>1992.95</ele>
        <time>2015-06-04T14:23:20Z</time>
      </trkpt>
      <trkpt lat="42.45739" lon="2.23207">
        <ele>1991.99</ele>
        <time>2015-06-04T14:23:33Z</time>
      </trkpt>
      <trkpt lat="42.45745" lon="2.23201">
        <ele>1991.03</ele>
        <time>2015-06-04T14:23:47Z</time>
      </trkpt>
      <trkpt lat="42.45748" lon="2.23194">
        <ele>1989.59</ele>
        <time>2015-06-04T14:23:58Z</time>
      </trkpt>
      <trkpt lat="42.45753" lon="2.23189">
        <ele>1988.14</ele>
        <time>2015-06-04T14:24:05Z</time>
      </trkpt>
      <trkpt lat="42.45752" lon="2.23177">
        <ele>1987.66</ele>
        <time>2015-06-04T14:24:16Z</time>
      </trkpt>
      <trkpt lat="42.45752" lon="2.23176">
        <ele>1987.66</ele>
        <time>2015-06-04T14:24:17Z</time>
      </trkpt>
      <trkpt lat="42.45761" lon="2.2317">
        <ele>1987.66</ele>
        <time>2015-06-04T14:24:29Z</time>
      </trkpt>
      <trkpt lat="42.45761" lon="2.23169">
        <ele>1988.62</ele>
        <time>2015-06-04T14:24:31Z</time>
      </trkpt>
      <trkpt lat="42.45765" lon="2.23161">
        <ele>1989.1</ele>
        <time>2015-06-04T14:24:44Z</time>
      </trkpt>
      <trkpt lat="42.45776" lon="2.23156">
        <ele>1989.1</ele>
        <time>2015-06-04T14:24:57Z</time>
      </trkpt>
      <trkpt lat="42.45779" lon="2.23156">
        <ele>1989.1</ele>
        <time>2015-06-04T14:25:00Z</time>
      </trkpt>
      <trkpt lat="42.45792" lon="2.23158">
        <ele>1986.7</ele>
        <time>2015-06-04T14:25:15Z</time>
      </trkpt>
      <trkpt lat="42.45794" lon="2.23159">
        <ele>1986.7</ele>
        <time>2015-06-04T14:25:18Z</time>
      </trkpt>
      <trkpt lat="42.45804" lon="2.23155">
        <ele>1984.78</ele>
        <time>2015-06-04T14:25:33Z</time>
      </trkpt>
      <trkpt lat="42.45813" lon="2.23157">
        <ele>1983.82</ele>
        <time>2015-06-04T14:25:45Z</time>
      </trkpt>
      <trkpt lat="42.45819" lon="2.23163">
        <ele>1983.82</ele>
        <time>2015-06-04T14:26:03Z</time>
      </trkpt>
      <trkpt lat="42.45822" lon="2.23163">
        <ele>1982.86</ele>
        <time>2015-06-04T14:26:26Z</time>
      </trkpt>
      <trkpt lat="42.45826" lon="2.2315">
        <ele>1980.93</ele>
        <time>2015-06-04T14:26:40Z</time>
      </trkpt>
      <trkpt lat="42.4583" lon="2.23143">
        <ele>1979.97</ele>
        <time>2015-06-04T14:26:49Z</time>
      </trkpt>
      <trkpt lat="42.45839" lon="2.23133">
        <ele>1979.01</ele>
        <time>2015-06-04T14:27:03Z</time>
      </trkpt>
      <trkpt lat="42.45841" lon="2.23129">
        <ele>1978.53</ele>
        <time>2015-06-04T14:27:07Z</time>
      </trkpt>
      <trkpt lat="42.45846" lon="2.23119">
        <ele>1977.57</ele>
        <time>2015-06-04T14:27:16Z</time>
      </trkpt>
      <trkpt lat="42.45848" lon="2.23117">
        <ele>1977.57</ele>
        <time>2015-06-04T14:27:18Z</time>
      </trkpt>
      <trkpt lat="42.4586" lon="2.23109">
        <ele>1974.69</ele>
        <time>2015-06-04T14:27:35Z</time>
      </trkpt>
      <trkpt lat="42.45869" lon="2.23114">
        <ele>1973.24</ele>
        <time>2015-06-04T14:27:47Z</time>
      </trkpt>
      <trkpt lat="42.45878" lon="2.23114">
        <ele>1971.32</ele>
        <time>2015-06-04T14:27:58Z</time>
      </trkpt>
      <trkpt lat="42.4588" lon="2.23114">
        <ele>1970.84</ele>
        <time>2015-06-04T14:28:02Z</time>
      </trkpt>
      <trkpt lat="42.45891" lon="2.23108">
        <ele>1969.88</ele>
        <time>2015-06-04T14:28:14Z</time>
      </trkpt>
      <trkpt lat="42.45892" lon="2.23107">
        <ele>1969.88</ele>
        <time>2015-06-04T14:28:16Z</time>
      </trkpt>
      <trkpt lat="42.45903" lon="2.23095">
        <ele>1968.92</ele>
        <time>2015-06-04T14:28:32Z</time>
      </trkpt>
      <trkpt lat="42.45908" lon="2.23083">
        <ele>1966.99</ele>
        <time>2015-06-04T14:28:46Z</time>
      </trkpt>
      <trkpt lat="42.45908" lon="2.2307">
        <ele>1966.03</ele>
        <time>2015-06-04T14:28:57Z</time>
      </trkpt>
      <trkpt lat="42.45913" lon="2.23061">
        <ele>1966.03</ele>
        <time>2015-06-04T14:29:11Z</time>
      </trkpt>
      <trkpt lat="42.45918" lon="2.23056">
        <ele>1964.59</ele>
        <time>2015-06-04T14:29:25Z</time>
      </trkpt>
      <trkpt lat="42.4592" lon="2.23053">
        <ele>1963.63</ele>
        <time>2015-06-04T14:29:45Z</time>
      </trkpt>
      <trkpt lat="42.4593" lon="2.23057">
        <ele>1963.15</ele>
        <time>2015-06-04T14:30:07Z</time>
      </trkpt>
      <trkpt lat="42.45927" lon="2.23057">
        <ele>1963.63</ele>
        <time>2015-06-04T14:30:38Z</time>
      </trkpt>
      <trkpt lat="42.45931" lon="2.2306">
        <ele>1962.67</ele>
        <time>2015-06-04T14:31:05Z</time>
      </trkpt>
      <trkpt lat="42.4593" lon="2.23058">
        <ele>1962.67</ele>
        <time>2015-06-04T14:31:26Z</time>
      </trkpt>
      <trkpt lat="42.45929" lon="2.23068">
        <ele>1963.63</ele>
        <time>2015-06-04T14:31:48Z</time>
      </trkpt>
      <trkpt lat="42.45931" lon="2.23059">
        <ele>1963.63</ele>
        <time>2015-06-04T14:32:12Z</time>
      </trkpt>
      <trkpt lat="42.45931" lon="2.23057">
        <ele>1962.19</ele>
        <time>2015-06-04T14:32:33Z</time>
      </trkpt>
      <trkpt lat="42.4594" lon="2.23057">
        <ele>1962.19</ele>
        <time>2015-06-04T14:32:49Z</time>
      </trkpt>
      <trkpt lat="42.45946" lon="2.23049">
        <ele>1961.71</ele>
        <time>2015-06-04T14:32:59Z</time>
      </trkpt>
      <trkpt lat="42.45951" lon="2.23032">
        <ele>1960.27</ele>
        <time>2015-06-04T14:33:14Z</time>
      </trkpt>
      <trkpt lat="42.45954" lon="2.23022">
        <ele>1959.3</ele>
        <time>2015-06-04T14:33:23Z</time>
      </trkpt>
      <trkpt lat="42.45961" lon="2.23012">
        <ele>1957.86</ele>
        <time>2015-06-04T14:33:36Z</time>
      </trkpt>
      <trkpt lat="42.45962" lon="2.23009">
        <ele>1957.86</ele>
        <time>2015-06-04T14:33:38Z</time>
      </trkpt>
      <trkpt lat="42.45971" lon="2.22995">
        <ele>1956.9</ele>
        <time>2015-06-04T14:33:55Z</time>
      </trkpt>
      <trkpt lat="42.45978" lon="2.2299">
        <ele>1955.94</ele>
        <time>2015-06-04T14:34:03Z</time>
      </trkpt>
      <trkpt lat="42.45981" lon="2.22989">
        <ele>1955.94</ele>
        <time>2015-06-04T14:34:05Z</time>
      </trkpt>
      <trkpt lat="42.45995" lon="2.22982">
        <ele>1954.5</ele>
        <time>2015-06-04T14:34:20Z</time>
      </trkpt>
      <trkpt lat="42.46005" lon="2.22975">
        <ele>1952.09</ele>
        <time>2015-06-04T14:34:35Z</time>
      </trkpt>
      <trkpt lat="42.46013" lon="2.22967">
        <ele>1951.13</ele>
        <time>2015-06-04T14:34:49Z</time>
      </trkpt>
      <trkpt lat="42.46027" lon="2.22965">
        <ele>1950.17</ele>
        <time>2015-06-04T14:35:02Z</time>
      </trkpt>
      <trkpt lat="42.46038" lon="2.22961">
        <ele>1949.21</ele>
        <time>2015-06-04T14:35:15Z</time>
      </trkpt>
      <trkpt lat="42.46048" lon="2.22966">
        <ele>1949.21</ele>
        <time>2015-06-04T14:35:22Z</time>
      </trkpt>
      <trkpt lat="42.46061" lon="2.22964">
        <ele>1948.25</ele>
        <time>2015-06-04T14:35:35Z</time>
      </trkpt>
      <trkpt lat="42.46076" lon="2.22969">
        <ele>1947.77</ele>
        <time>2015-06-04T14:35:50Z</time>
      </trkpt>
      <trkpt lat="42.46081" lon="2.22971">
        <ele>1947.77</ele>
        <time>2015-06-04T14:35:53Z</time>
      </trkpt>
      <trkpt lat="42.46083" lon="2.22971">
        <ele>1947.77</ele>
        <time>2015-06-04T14:35:56Z</time>
      </trkpt>
      <trkpt lat="42.46096" lon="2.22973">
        <ele>1947.29</ele>
        <time>2015-06-04T14:36:10Z</time>
      </trkpt>
      <trkpt lat="42.46105" lon="2.22971">
        <ele>1946.33</ele>
        <time>2015-06-04T14:36:22Z</time>
      </trkpt>
      <trkpt lat="42.46109" lon="2.22971">
        <ele>1946.33</ele>
        <time>2015-06-04T14:36:28Z</time>
      </trkpt>
      <trkpt lat="42.46113" lon="2.22971">
        <ele>1946.33</ele>
        <time>2015-06-04T14:36:31Z</time>
      </trkpt>
      <trkpt lat="42.46126" lon="2.22969">
        <ele>1945.36</ele>
        <time>2015-06-04T14:36:44Z</time>
      </trkpt>
      <trkpt lat="42.46133" lon="2.22967">
        <ele>1945.36</ele>
        <time>2015-06-04T14:36:53Z</time>
      </trkpt>
      <trkpt lat="42.46136" lon="2.22964">
        <ele>1944.88</ele>
        <time>2015-06-04T14:36:57Z</time>
      </trkpt>
      <trkpt lat="42.46139" lon="2.22957">
        <ele>1943.44</ele>
        <time>2015-06-04T14:37:04Z</time>
      </trkpt>
      <trkpt lat="42.4614" lon="2.22956">
        <ele>1943.44</ele>
        <time>2015-06-04T14:37:06Z</time>
      </trkpt>
      <trkpt lat="42.46149" lon="2.22946">
        <ele>1942.48</ele>
        <time>2015-06-04T14:37:21Z</time>
      </trkpt>
      <trkpt lat="42.46154" lon="2.22941">
        <ele>1942</ele>
        <time>2015-06-04T14:37:32Z</time>
      </trkpt>
      <trkpt lat="42.46155" lon="2.2294">
        <ele>1942</ele>
        <time>2015-06-04T14:37:33Z</time>
      </trkpt>
      <trkpt lat="42.46159" lon="2.22937">
        <ele>1941.52</ele>
        <time>2015-06-04T14:37:37Z</time>
      </trkpt>
      <trkpt lat="42.46168" lon="2.22926">
        <ele>1941.04</ele>
        <time>2015-06-04T14:37:52Z</time>
      </trkpt>
      <trkpt lat="42.46169" lon="2.22926">
        <ele>1941.04</ele>
        <time>2015-06-04T14:37:53Z</time>
      </trkpt>
      <trkpt lat="42.46179" lon="2.22918">
        <ele>1939.6</ele>
        <time>2015-06-04T14:38:06Z</time>
      </trkpt>
      <trkpt lat="42.46188" lon="2.22915">
        <ele>1938.16</ele>
        <time>2015-06-04T14:38:17Z</time>
      </trkpt>
      <trkpt lat="42.46196" lon="2.22911">
        <ele>1936.71</ele>
        <time>2015-06-04T14:38:32Z</time>
      </trkpt>
      <trkpt lat="42.46197" lon="2.2291">
        <ele>1936.71</ele>
        <time>2015-06-04T14:38:34Z</time>
      </trkpt>
      <trkpt lat="42.46201" lon="2.229">
        <ele>1935.75</ele>
        <time>2015-06-04T14:38:47Z</time>
      </trkpt>
      <trkpt lat="42.4621" lon="2.22896">
        <ele>1933.83</ele>
        <time>2015-06-04T14:39:03Z</time>
      </trkpt>
      <trkpt lat="42.46216" lon="2.22895">
        <ele>1932.39</ele>
        <time>2015-06-04T14:39:18Z</time>
      </trkpt>
      <trkpt lat="42.46219" lon="2.22888">
        <ele>1930.95</ele>
        <time>2015-06-04T14:39:29Z</time>
      </trkpt>
      <trkpt lat="42.46221" lon="2.22879">
        <ele>1928.54</ele>
        <time>2015-06-04T14:39:42Z</time>
      </trkpt>
      <trkpt lat="42.46236" lon="2.22875">
        <ele>1927.58</ele>
        <time>2015-06-04T14:39:56Z</time>
      </trkpt>
      <trkpt lat="42.46245" lon="2.22868">
        <ele>1926.62</ele>
        <time>2015-06-04T14:40:10Z</time>
      </trkpt>
      <trkpt lat="42.46242" lon="2.22856">
        <ele>1925.66</ele>
        <time>2015-06-04T14:40:25Z</time>
      </trkpt>
      <trkpt lat="42.46243" lon="2.22842">
        <ele>1924.22</ele>
        <time>2015-06-04T14:40:36Z</time>
      </trkpt>
      <trkpt lat="42.46241" lon="2.22839">
        <ele>1923.74</ele>
        <time>2015-06-04T14:40:40Z</time>
      </trkpt>
      <trkpt lat="42.46237" lon="2.22829">
        <ele>1923.25</ele>
        <time>2015-06-04T14:40:51Z</time>
      </trkpt>
      <trkpt lat="42.46239" lon="2.22822">
        <ele>1921.33</ele>
        <time>2015-06-04T14:40:59Z</time>
      </trkpt>
      <trkpt lat="42.46246" lon="2.22805">
        <ele>1919.41</ele>
        <time>2015-06-04T14:41:15Z</time>
      </trkpt>
      <trkpt lat="42.46245" lon="2.22795">
        <ele>1917.97</ele>
        <time>2015-06-04T14:41:23Z</time>
      </trkpt>
      <trkpt lat="42.46243" lon="2.22793">
        <ele>1917.97</ele>
        <time>2015-06-04T14:41:25Z</time>
      </trkpt>
      <trkpt lat="42.46237" lon="2.2278">
        <ele>1917.01</ele>
        <time>2015-06-04T14:41:39Z</time>
      </trkpt>
      <trkpt lat="42.4623" lon="2.22768">
        <ele>1916.53</ele>
        <time>2015-06-04T14:41:53Z</time>
      </trkpt>
      <trkpt lat="42.46231" lon="2.22748">
        <ele>1914.6</ele>
        <time>2015-06-04T14:42:08Z</time>
      </trkpt>
      <trkpt lat="42.46231" lon="2.22735">
        <ele>1913.16</ele>
        <time>2015-06-04T14:42:20Z</time>
      </trkpt>
      <trkpt lat="42.46234" lon="2.22727">
        <ele>1911.72</ele>
        <time>2015-06-04T14:42:33Z</time>
      </trkpt>
      <trkpt lat="42.46239" lon="2.2272">
        <ele>1910.28</ele>
        <time>2015-06-04T14:42:46Z</time>
      </trkpt>
      <trkpt lat="42.46241" lon="2.22709">
        <ele>1908.35</ele>
        <time>2015-06-04T14:43:02Z</time>
      </trkpt>
      <trkpt lat="42.46237" lon="2.22695">
        <ele>1906.91</ele>
        <time>2015-06-04T14:43:16Z</time>
      </trkpt>
      <trkpt lat="42.46241" lon="2.22683">
        <ele>1906.43</ele>
        <time>2015-06-04T14:43:28Z</time>
      </trkpt>
      <trkpt lat="42.46244" lon="2.2267">
        <ele>1904.51</ele>
        <time>2015-06-04T14:43:45Z</time>
      </trkpt>
      <trkpt lat="42.46245" lon="2.22657">
        <ele>1902.59</ele>
        <time>2015-06-04T14:43:57Z</time>
      </trkpt>
      <trkpt lat="42.46246" lon="2.22645">
        <ele>1901.14</ele>
        <time>2015-06-04T14:44:10Z</time>
      </trkpt>
      <trkpt lat="42.4625" lon="2.22633">
        <ele>1898.26</ele>
        <time>2015-06-04T14:44:26Z</time>
      </trkpt>
      <trkpt lat="42.4625" lon="2.22623">
        <ele>1896.34</ele>
        <time>2015-06-04T14:44:38Z</time>
      </trkpt>
      <trkpt lat="42.46254" lon="2.22619">
        <ele>1895.38</ele>
        <time>2015-06-04T14:44:52Z</time>
      </trkpt>
      <trkpt lat="42.46258" lon="2.22613">
        <ele>1893.45</ele>
        <time>2015-06-04T14:45:06Z</time>
      </trkpt>
      <trkpt lat="42.46261" lon="2.22601">
        <ele>1891.53</ele>
        <time>2015-06-04T14:45:21Z</time>
      </trkpt>
      <trkpt lat="42.46256" lon="2.22604">
        <ele>1890.57</ele>
        <time>2015-06-04T14:45:36Z</time>
      </trkpt>
      <trkpt lat="42.46253" lon="2.22592">
        <ele>1889.61</ele>
        <time>2015-06-04T14:45:49Z</time>
      </trkpt>
      <trkpt lat="42.46254" lon="2.22583">
        <ele>1887.21</ele>
        <time>2015-06-04T14:46:03Z</time>
      </trkpt>
      <trkpt lat="42.46261" lon="2.22574">
        <ele>1886.24</ele>
        <time>2015-06-04T14:46:15Z</time>
      </trkpt>
      <trkpt lat="42.46259" lon="2.22563">
        <ele>1883.84</ele>
        <time>2015-06-04T14:46:30Z</time>
      </trkpt>
      <trkpt lat="42.4627" lon="2.22558">
        <ele>1882.4</ele>
        <time>2015-06-04T14:46:42Z</time>
      </trkpt>
      <trkpt lat="42.46274" lon="2.22545">
        <ele>1880</ele>
        <time>2015-06-04T14:46:56Z</time>
      </trkpt>
      <trkpt lat="42.46276" lon="2.22536">
        <ele>1878.55</ele>
        <time>2015-06-04T14:47:08Z</time>
      </trkpt>
      <trkpt lat="42.46278" lon="2.22527">
        <ele>1877.11</ele>
        <time>2015-06-04T14:47:20Z</time>
      </trkpt>
      <trkpt lat="42.46279" lon="2.22515">
        <ele>1875.19</ele>
        <time>2015-06-04T14:47:35Z</time>
      </trkpt>
      <trkpt lat="42.46279" lon="2.22515">
        <ele>1875.19</ele>
        <time>2015-06-04T14:47:36Z</time>
      </trkpt>
      <trkpt lat="42.4628" lon="2.22504">
        <ele>1873.27</ele>
        <time>2015-06-04T14:47:49Z</time>
      </trkpt>
      <trkpt lat="42.4628" lon="2.22501">
        <ele>1872.79</ele>
        <time>2015-06-04T14:47:51Z</time>
      </trkpt>
      <trkpt lat="42.46284" lon="2.22497">
        <ele>1871.82</ele>
        <time>2015-06-04T14:47:57Z</time>
      </trkpt>
      <trkpt lat="42.46292" lon="2.22485">
        <ele>1869.42</ele>
        <time>2015-06-04T14:48:09Z</time>
      </trkpt>
      <trkpt lat="42.46299" lon="2.22472">
        <ele>1867.02</ele>
        <time>2015-06-04T14:48:25Z</time>
      </trkpt>
      <trkpt lat="42.46296" lon="2.22456">
        <ele>1864.61</ele>
        <time>2015-06-04T14:48:37Z</time>
      </trkpt>
      <trkpt lat="42.46297" lon="2.22452">
        <ele>1864.13</ele>
        <time>2015-06-04T14:48:40Z</time>
      </trkpt>
      <trkpt lat="42.46308" lon="2.22441">
        <ele>1862.21</ele>
        <time>2015-06-04T14:48:56Z</time>
      </trkpt>
      <trkpt lat="42.46322" lon="2.22429">
        <ele>1860.77</ele>
        <time>2015-06-04T14:49:14Z</time>
      </trkpt>
      <trkpt lat="42.46328" lon="2.22423">
        <ele>1859.33</ele>
        <time>2015-06-04T14:49:21Z</time>
      </trkpt>
      <trkpt lat="42.46329" lon="2.22416">
        <ele>1858.37</ele>
        <time>2015-06-04T14:49:31Z</time>
      </trkpt>
      <trkpt lat="42.46322" lon="2.22405">
        <ele>1855.96</ele>
        <time>2015-06-04T14:49:47Z</time>
      </trkpt>
      <trkpt lat="42.46321" lon="2.22405">
        <ele>1855.96</ele>
        <time>2015-06-04T14:49:48Z</time>
      </trkpt>
      <trkpt lat="42.46324" lon="2.22399">
        <ele>1854.52</ele>
        <time>2015-06-04T14:50:03Z</time>
      </trkpt>
      <trkpt lat="42.46321" lon="2.22387">
        <ele>1852.12</ele>
        <time>2015-06-04T14:50:17Z</time>
      </trkpt>
      <trkpt lat="42.4632" lon="2.22377">
        <ele>1850.19</ele>
        <time>2015-06-04T14:50:33Z</time>
      </trkpt>
      <trkpt lat="42.46327" lon="2.22362">
        <ele>1851.16</ele>
        <time>2015-06-04T14:50:48Z</time>
      </trkpt>
      <trkpt lat="42.46335" lon="2.22351">
        <ele>1851.16</ele>
        <time>2015-06-04T14:51:05Z</time>
      </trkpt>
      <trkpt lat="42.46347" lon="2.22341">
        <ele>1851.16</ele>
        <time>2015-06-04T14:51:18Z</time>
      </trkpt>
      <trkpt lat="42.46359" lon="2.22339">
        <ele>1850.68</ele>
        <time>2015-06-04T14:51:32Z</time>
      </trkpt>
      <trkpt lat="42.46365" lon="2.22337">
        <ele>1849.23</ele>
        <time>2015-06-04T14:51:42Z</time>
      </trkpt>
      <trkpt lat="42.46377" lon="2.2234">
        <ele>1848.27</ele>
        <time>2015-06-04T14:51:56Z</time>
      </trkpt>
      <trkpt lat="42.46385" lon="2.22332">
        <ele>1848.27</ele>
        <time>2015-06-04T14:52:11Z</time>
      </trkpt>
      <trkpt lat="42.46385" lon="2.22332">
        <ele>1848.27</ele>
        <time>2015-06-04T14:52:12Z</time>
      </trkpt>
      <trkpt lat="42.46389" lon="2.22329">
        <ele>1848.27</ele>
        <time>2015-06-04T14:52:18Z</time>
      </trkpt>
      <trkpt lat="42.464" lon="2.22322">
        <ele>1847.79</ele>
        <time>2015-06-04T14:52:31Z</time>
      </trkpt>
      <trkpt lat="42.46405" lon="2.22324">
        <ele>1847.79</ele>
        <time>2015-06-04T14:52:40Z</time>
      </trkpt>
      <trkpt lat="42.46406" lon="2.22334">
        <ele>1847.79</ele>
        <time>2015-06-04T14:52:48Z</time>
      </trkpt>
      <trkpt lat="42.46412" lon="2.22348">
        <ele>1847.79</ele>
        <time>2015-06-04T14:53:02Z</time>
      </trkpt>
      <trkpt lat="42.46413" lon="2.22352">
        <ele>1847.31</ele>
        <time>2015-06-04T14:53:07Z</time>
      </trkpt>
      <trkpt lat="42.46423" lon="2.22356">
        <ele>1846.35</ele>
        <time>2015-06-04T14:53:20Z</time>
      </trkpt>
      <trkpt lat="42.46428" lon="2.22361">
        <ele>1846.35</ele>
        <time>2015-06-04T14:53:26Z</time>
      </trkpt>
      <trkpt lat="42.46435" lon="2.22375">
        <ele>1845.87</ele>
        <time>2015-06-04T14:53:40Z</time>
      </trkpt>
      <trkpt lat="42.46433" lon="2.22387">
        <ele>1844.91</ele>
        <time>2015-06-04T14:53:52Z</time>
      </trkpt>
      <trkpt lat="42.46435" lon="2.22388">
        <ele>1844.91</ele>
        <time>2015-06-04T14:54:09Z</time>
      </trkpt>
      <trkpt lat="42.46438" lon="2.22389">
        <ele>1843.95</ele>
        <time>2015-06-04T14:54:28Z</time>
      </trkpt>
      <trkpt lat="42.46435" lon="2.22386">
        <ele>1843.47</ele>
        <time>2015-06-04T14:54:47Z</time>
      </trkpt>
      <trkpt lat="42.46437" lon="2.22386">
        <ele>1844.43</ele>
        <time>2015-06-04T14:55:11Z</time>
      </trkpt>
      <trkpt lat="42.46435" lon="2.2239">
        <ele>1844.43</ele>
        <time>2015-06-04T14:55:29Z</time>
      </trkpt>
      <trkpt lat="42.46436" lon="2.2239">
        <ele>1842.98</ele>
        <time>2015-06-04T14:55:32Z</time>
      </trkpt>
      <trkpt lat="42.46436" lon="2.2239">
        <ele>1844.91</ele>
        <time>2015-06-04T14:55:33Z</time>
      </trkpt>
      <trkpt lat="42.46435" lon="2.22391">
        <ele>1843.95</ele>
        <time>2015-06-04T14:55:38Z</time>
      </trkpt>
      <trkpt lat="42.46438" lon="2.22399">
        <ele>1843.95</ele>
        <time>2015-06-04T14:56:03Z</time>
      </trkpt>
      <trkpt lat="42.46436" lon="2.22391">
        <ele>1844.43</ele>
        <time>2015-06-04T14:56:14Z</time>
      </trkpt>
      <trkpt lat="42.46438" lon="2.22401">
        <ele>1847.79</ele>
        <time>2015-06-04T14:58:45Z</time>
      </trkpt>
    </trkseg>
  </trk>
</gpx>